<?xml version="1.0" encoding="UTF-8"?>
<gpx version="1.1" creator="2bulu-scraper" xmlns="http://www.topografix.com/GPX/1/1">
  <metadata><name>黄荆老林20公里徒步环线</name><desc>source: 2bulu.com trackId=88304462; exported 2026-09-01T14:51:36.125Z</desc>
    <bounds minlat="28.2266902" minlon="105.7156228" maxlat="28.2700227" maxlon="105.7567144"/>
    <link href="https://www.2bulu.com/track/t-R4NlwiKdisDp%252FR2KBg5Tzw%253D%253D.htm"><text>2bulu 源页面</text></link>
  </metadata>
  <wpt lat="28.2314023" lon="105.7553594"><ele>1017</ele><name>入口走公路
        </name></wpt>
  <wpt lat="28.2329816" lon="105.7533682"><ele>1025</ele><name>
        </name></wpt>
  <wpt lat="28.2318086" lon="105.7487167"><ele>1040</ele><name>开始缓慢上坡
        </name></wpt>
  <wpt lat="28.231144" lon="105.7465974"><ele>1083</ele><name>
        </name></wpt>
  <wpt lat="28.228865" lon="105.7484056"><ele>1128</ele><name>继续缓慢爬升
        </name></wpt>
  <wpt lat="28.2297592" lon="105.7450101"><ele>1177</ele><name>三公里热身结束
        </name></wpt>
  <wpt lat="28.2296083" lon="105.7435026"><ele>1191</ele><name>
        </name></wpt>
  <wpt lat="28.2294458" lon="105.7370176"><ele>1256</ele><name>轻松到达海拔最高点，第一个垭口
        </name></wpt>
  <wpt lat="28.2293364" lon="105.7367281"><ele>1251</ele><name>开始往下走山野路
        </name></wpt>
  <wpt lat="28.2291511" lon="105.7356187"><ele>1215</ele><name>山野路
        </name></wpt>
  <wpt lat="28.2289202" lon="105.7344676"><ele>1191</ele><name>
        </name></wpt>
  <wpt lat="28.2285897" lon="105.7328054"><ele>1147</ele><name>够不够野？
        </name></wpt>
  <wpt lat="28.2283296" lon="105.7322515"><ele>1131</ele><name>
        </name></wpt>
  <wpt lat="28.2267496" lon="105.7303752"><ele>1097</ele><name>又走公路了
        </name></wpt>
  <wpt lat="28.2272852" lon="105.7284466"><ele>1091</ele><name>向右
        </name></wpt>
  <wpt lat="28.2288034" lon="105.729427"><ele>1180</ele><name>向右转弯
        </name></wpt>
  <wpt lat="28.2310413" lon="105.7290831"><ele>1124</ele><name>
        </name></wpt>
  <wpt lat="28.2314939" lon="105.7288388"><ele>1114</ele><name>有大黄狗很多条
        </name></wpt>
  <wpt lat="28.2357734" lon="105.727003"><ele>1077</ele><name>
        </name></wpt>
  <wpt lat="28.2401357" lon="105.7220323"><ele>1057</ele><name>
        </name></wpt>
  <wpt lat="28.2437898" lon="105.7178708"><ele>1029</ele><name>走出树林，向右走公路
        </name></wpt>
  <wpt lat="28.2440175" lon="105.7178282"><ele>1031</ele><name>
        </name></wpt>
  <wpt lat="28.2445451" lon="105.717964"><ele>1030</ele><name>
        </name></wpt>
  <wpt lat="28.2453018" lon="105.7179715"><ele>1029</ele><name>上公路
        </name></wpt>
  <wpt lat="28.2467283" lon="105.716053"><ele>1033</ele><name>
        </name></wpt>
  <wpt lat="28.2486411" lon="105.7165484"><ele>1046</ele><name>向前
        </name></wpt>
  <wpt lat="28.2496393" lon="105.7197085"><ele>1041</ele><name>右转沿河谷小路
        </name></wpt>
  <wpt lat="28.2506252" lon="105.7199248"><ele>1037</ele><name>
        </name></wpt>
  <wpt lat="28.2566132" lon="105.7205839"><ele>1020</ele><name>
        </name></wpt>
  <wpt lat="28.2576921" lon="105.7210942"><ele>1033</ele><name>醉美步道
        </name></wpt>
  <wpt lat="28.2610438" lon="105.7244346"><ele>1017</ele><name>过桥
        </name></wpt>
  <wpt lat="28.2611683" lon="105.7257258"><ele>1004</ele><name>到达三连瘫瀑布
        </name></wpt>
  <wpt lat="28.2652001" lon="105.7253775"><ele>971</ele><name>景区道路
        </name></wpt>
  <wpt lat="28.2653882" lon="105.7264657"><ele>982</ele><name>
        </name></wpt>
  <wpt lat="28.2674498" lon="105.728404"><ele>986</ele><name>景区栈道
        </name></wpt>
  <wpt lat="28.2678041" lon="105.7282802"><ele>997</ele><name>
        </name></wpt>
  <wpt lat="28.2680707" lon="105.7278493"><ele>955</ele><name>
        </name></wpt>
  <wpt lat="28.2684317" lon="105.7281257"><ele>926</ele><name>
        </name></wpt>
  <wpt lat="28.2684718" lon="105.7282421"><ele>922</ele><name>开始干午饭！
        </name></wpt>
  <wpt lat="28.2696934" lon="105.7287485"><ele>891</ele><name>黑龙潭瀑布
        </name></wpt>
  <wpt lat="28.269707" lon="105.7305242"><ele>895</ele><name>
        </name></wpt>
  <wpt lat="28.2674" lon="105.7311696"><ele>886</ele><name>走公路
        </name></wpt>
  <wpt lat="28.2621088" lon="105.7343653"><ele>928</ele><name>道路平缓好走
        </name></wpt>
  <wpt lat="28.2593778" lon="105.7360251"><ele>919</ele><name>
        </name></wpt>
  <wpt lat="28.2436826" lon="105.7467838"><ele>975</ele><name>
        </name></wpt>
  <wpt lat="28.2397026" lon="105.7486962"><ele>998</ele><name>
        </name></wpt>
  <wpt lat="28.2380783" lon="105.7507103"><ele>1007</ele><name>最后一公里啦，加油！
        </name></wpt>
  <wpt lat="28.2327804" lon="105.7549682"><ele>1005</ele><name>马上到了
        </name></wpt>
  <wpt lat="28.2309596" lon="105.7563877"><ele>1017</ele><name>到了到了
        </name></wpt>
  <trk><name>黄荆老林20公里徒步环线</name>
      <trkseg>
        <trkpt lat="28.2311246" lon="105.7560334"><ele>1017.87</ele><time>2026-08-13T16:31:57.000Z</time></trkpt>
        <trkpt lat="28.2312052" lon="105.7561"><ele>1017.87</ele><time>2026-08-13T16:33:03.000Z</time></trkpt>
        <trkpt lat="28.2312059" lon="105.7559842"><ele>1018.56</ele><time>2026-08-13T16:33:27.000Z</time></trkpt>
        <trkpt lat="28.2312157" lon="105.7558647"><ele>1018.08</ele><time>2026-08-13T16:33:35.000Z</time></trkpt>
        <trkpt lat="28.2312204" lon="105.7557418"><ele>1018.09</ele><time>2026-08-13T16:33:43.000Z</time></trkpt>
        <trkpt lat="28.231245" lon="105.7556331"><ele>1018.59</ele><time>2026-08-13T16:33:51.000Z</time></trkpt>
        <trkpt lat="28.2312914" lon="105.7555429"><ele>1018.55</ele><time>2026-08-13T16:33:59.000Z</time></trkpt>
        <trkpt lat="28.2313508" lon="105.7554566"><ele>1022.31</ele><time>2026-08-13T16:34:05.000Z</time></trkpt>
        <trkpt lat="28.2314023" lon="105.7553594"><ele>1023.24</ele><time>2026-08-13T16:34:15.000Z</time></trkpt>
        <trkpt lat="28.231427" lon="105.7552581"><ele>1020.4</ele><time>2026-08-13T16:34:23.000Z</time></trkpt>
        <trkpt lat="28.2314541" lon="105.7551505"><ele>1018.52</ele><time>2026-08-13T16:34:33.000Z</time></trkpt>
        <trkpt lat="28.2314981" lon="105.7550443"><ele>1017.41</ele><time>2026-08-13T16:34:43.000Z</time></trkpt>
        <trkpt lat="28.2315327" lon="105.7549328"><ele>1016.93</ele><time>2026-08-13T16:34:53.000Z</time></trkpt>
        <trkpt lat="28.2315708" lon="105.754835"><ele>1016.37</ele><time>2026-08-13T16:35:01.000Z</time></trkpt>
        <trkpt lat="28.2316128" lon="105.7547428"><ele>1015.72</ele><time>2026-08-13T16:35:11.000Z</time></trkpt>
        <trkpt lat="28.2316777" lon="105.7546563"><ele>1015.24</ele><time>2026-08-13T16:35:29.000Z</time></trkpt>
        <trkpt lat="28.2317735" lon="105.7546135"><ele>1012.49</ele><time>2026-08-13T16:35:35.000Z</time></trkpt>
        <trkpt lat="28.2318807" lon="105.7545756"><ele>1010.39</ele><time>2026-08-13T16:35:41.000Z</time></trkpt>
        <trkpt lat="28.2319788" lon="105.7545933"><ele>1009.18</ele><time>2026-08-13T16:35:49.000Z</time></trkpt>
        <trkpt lat="28.2320731" lon="105.754623"><ele>1008.43</ele><time>2026-08-13T16:35:57.000Z</time></trkpt>
        <trkpt lat="28.2321795" lon="105.7546672"><ele>1008.54</ele><time>2026-08-13T16:36:07.000Z</time></trkpt>
        <trkpt lat="28.2322742" lon="105.7547114"><ele>1008.27</ele><time>2026-08-13T16:36:13.000Z</time></trkpt>
        <trkpt lat="28.2323812" lon="105.7547429"><ele>1007.73</ele><time>2026-08-13T16:36:23.000Z</time></trkpt>
        <trkpt lat="28.2324898" lon="105.7547948"><ele>1006.55</ele><time>2026-08-13T16:36:33.000Z</time></trkpt>
        <trkpt lat="28.2325809" lon="105.7548428"><ele>1006.08</ele><time>2026-08-13T16:36:41.000Z</time></trkpt>
        <trkpt lat="28.232679" lon="105.7548693"><ele>1005.36</ele><time>2026-08-13T16:36:49.000Z</time></trkpt>
        <trkpt lat="28.2327777" lon="105.7549109"><ele>1004.59</ele><time>2026-08-13T16:36:57.000Z</time></trkpt>
        <trkpt lat="28.2328615" lon="105.7549756"><ele>1003.92</ele><time>2026-08-13T16:37:07.000Z</time></trkpt>
        <trkpt lat="28.2329578" lon="105.7550335"><ele>1003.57</ele><time>2026-08-13T16:37:15.000Z</time></trkpt>
        <trkpt lat="28.2330585" lon="105.7550705"><ele>1002.96</ele><time>2026-08-13T16:37:25.000Z</time></trkpt>
        <trkpt lat="28.2331668" lon="105.7550978"><ele>1002.84</ele><time>2026-08-13T16:37:33.000Z</time></trkpt>
        <trkpt lat="28.233259" lon="105.7550709"><ele>1003.47</ele><time>2026-08-13T16:37:41.000Z</time></trkpt>
        <trkpt lat="28.2333045" lon="105.7549689"><ele>1004.52</ele><time>2026-08-13T16:37:49.000Z</time></trkpt>
        <trkpt lat="28.2333039" lon="105.7548524"><ele>1005.64</ele><time>2026-08-13T16:37:59.000Z</time></trkpt>
        <trkpt lat="28.2333037" lon="105.7547253"><ele>1006.93</ele><time>2026-08-13T16:38:07.000Z</time></trkpt>
        <trkpt lat="28.2333073" lon="105.7546725"><ele>1008.33</ele><time>2026-08-13T16:38:13.000Z</time></trkpt>
        <trkpt lat="28.2333184" lon="105.7545636"><ele>1009.39</ele><time>2026-08-13T16:38:25.000Z</time></trkpt>
        <trkpt lat="28.2333321" lon="105.7544269"><ele>1010.71</ele><time>2026-08-13T16:38:33.000Z</time></trkpt>
        <trkpt lat="28.2333426" lon="105.7543113"><ele>1011.77</ele><time>2026-08-13T16:38:41.000Z</time></trkpt>
        <trkpt lat="28.2333031" lon="105.7542008"><ele>1014.02</ele><time>2026-08-13T16:38:51.000Z</time></trkpt>
        <trkpt lat="28.2332355" lon="105.7541198"><ele>1022.28</ele><time>2026-08-13T16:38:55.000Z</time></trkpt>
        <trkpt lat="28.2331731" lon="105.7540368"><ele>1024.7</ele><time>2026-08-13T16:39:05.000Z</time></trkpt>
        <trkpt lat="28.2331225" lon="105.7539253"><ele>1024.75</ele><time>2026-08-13T16:39:13.000Z</time></trkpt>
        <trkpt lat="28.2330942" lon="105.753816"><ele>1025.22</ele><time>2026-08-13T16:39:23.000Z</time></trkpt>
        <trkpt lat="28.2330753" lon="105.753692"><ele>1025.07</ele><time>2026-08-13T16:39:31.000Z</time></trkpt>
        <trkpt lat="28.2330561" lon="105.7535749"><ele>1026.11</ele><time>2026-08-13T16:39:39.000Z</time></trkpt>
        <trkpt lat="28.2330181" lon="105.7534665"><ele>1026.09</ele><time>2026-08-13T16:39:47.000Z</time></trkpt>
        <trkpt lat="28.2329816" lon="105.7533682"><ele>1025.99</ele><time>2026-08-13T16:39:55.000Z</time></trkpt>
        <trkpt lat="28.2329232" lon="105.7532817"><ele>1025.57</ele><time>2026-08-13T16:40:03.000Z</time></trkpt>
        <trkpt lat="28.2328694" lon="105.7531887"><ele>1023.09</ele><time>2026-08-13T16:40:11.000Z</time></trkpt>
        <trkpt lat="28.2328134" lon="105.7530937"><ele>1023.81</ele><time>2026-08-13T16:40:19.000Z</time></trkpt>
        <trkpt lat="28.232773" lon="105.7529787"><ele>1024.49</ele><time>2026-08-13T16:40:29.000Z</time></trkpt>
        <trkpt lat="28.2327355" lon="105.7528761"><ele>1025.02</ele><time>2026-08-13T16:40:35.000Z</time></trkpt>
        <trkpt lat="28.2327067" lon="105.7527588"><ele>1025.65</ele><time>2026-08-13T16:40:49.000Z</time></trkpt>
        <trkpt lat="28.2326729" lon="105.7526332"><ele>1027.39</ele><time>2026-08-13T16:40:57.000Z</time></trkpt>
        <trkpt lat="28.2326306" lon="105.7525175"><ele>1029.94</ele><time>2026-08-13T16:41:05.000Z</time></trkpt>
        <trkpt lat="28.2325851" lon="105.7523864"><ele>1031.24</ele><time>2026-08-13T16:41:19.000Z</time></trkpt>
        <trkpt lat="28.2325329" lon="105.7522871"><ele>1031.44</ele><time>2026-08-13T16:41:25.000Z</time></trkpt>
        <trkpt lat="28.2325033" lon="105.7521888"><ele>1031.14</ele><time>2026-08-13T16:41:35.000Z</time></trkpt>
        <trkpt lat="28.2324768" lon="105.7520801"><ele>1031.91</ele><time>2026-08-13T16:41:49.000Z</time></trkpt>
        <trkpt lat="28.2324298" lon="105.7519729"><ele>1034.32</ele><time>2026-08-13T16:41:57.000Z</time></trkpt>
        <trkpt lat="28.2323704" lon="105.7518661"><ele>1036.4</ele><time>2026-08-13T16:42:05.000Z</time></trkpt>
        <trkpt lat="28.2323267" lon="105.7517671"><ele>1037.81</ele><time>2026-08-13T16:42:13.000Z</time></trkpt>
        <trkpt lat="28.2322918" lon="105.7516709"><ele>1039.17</ele><time>2026-08-13T16:42:19.000Z</time></trkpt>
        <trkpt lat="28.2322559" lon="105.7515694"><ele>1040.41</ele><time>2026-08-13T16:42:27.000Z</time></trkpt>
        <trkpt lat="28.2322118" lon="105.7514602"><ele>1040.57</ele><time>2026-08-13T16:42:35.000Z</time></trkpt>
        <trkpt lat="28.2321612" lon="105.7513439"><ele>1039.73</ele><time>2026-08-13T16:42:49.000Z</time></trkpt>
        <trkpt lat="28.2321202" lon="105.7512246"><ele>1035.98</ele><time>2026-08-13T16:42:59.000Z</time></trkpt>
        <trkpt lat="28.2320854" lon="105.7511038"><ele>1033.25</ele><time>2026-08-13T16:43:07.000Z</time></trkpt>
        <trkpt lat="28.2320594" lon="105.7509815"><ele>1032.26</ele><time>2026-08-13T16:43:15.000Z</time></trkpt>
        <trkpt lat="28.2320387" lon="105.7508713"><ele>1031.37</ele><time>2026-08-13T16:43:23.000Z</time></trkpt>
        <trkpt lat="28.2320126" lon="105.7507567"><ele>1031.29</ele><time>2026-08-13T16:43:31.000Z</time></trkpt>
        <trkpt lat="28.2319828" lon="105.7506448"><ele>1031.78</ele><time>2026-08-13T16:43:39.000Z</time></trkpt>
        <trkpt lat="28.2319504" lon="105.7505288"><ele>1032.93</ele><time>2026-08-13T16:43:47.000Z</time></trkpt>
        <trkpt lat="28.2319072" lon="105.7504066"><ele>1034.05</ele><time>2026-08-13T16:43:55.000Z</time></trkpt>
        <trkpt lat="28.2318698" lon="105.7502936"><ele>1034.24</ele><time>2026-08-13T16:44:03.000Z</time></trkpt>
        <trkpt lat="28.2318512" lon="105.7501811"><ele>1034.32</ele><time>2026-08-13T16:44:13.000Z</time></trkpt>
        <trkpt lat="28.2318419" lon="105.7500672"><ele>1034.16</ele><time>2026-08-13T16:44:21.000Z</time></trkpt>
        <trkpt lat="28.2318283" lon="105.7499456"><ele>1033.81</ele><time>2026-08-13T16:44:31.000Z</time></trkpt>
        <trkpt lat="28.2318174" lon="105.7498175"><ele>1033.68</ele><time>2026-08-13T16:44:41.000Z</time></trkpt>
        <trkpt lat="28.2318177" lon="105.7497033"><ele>1033.7</ele><time>2026-08-13T16:44:49.000Z</time></trkpt>
        <trkpt lat="28.2318214" lon="105.7495791"><ele>1034</ele><time>2026-08-13T16:44:59.000Z</time></trkpt>
        <trkpt lat="28.231841" lon="105.7494529"><ele>1034.99</ele><time>2026-08-13T16:45:11.000Z</time></trkpt>
        <trkpt lat="28.2318455" lon="105.7493208"><ele>1036.4</ele><time>2026-08-13T16:45:19.000Z</time></trkpt>
        <trkpt lat="28.2318602" lon="105.7491894"><ele>1037.46</ele><time>2026-08-13T16:45:27.000Z</time></trkpt>
        <trkpt lat="28.2318582" lon="105.7490678"><ele>1038.01</ele><time>2026-08-13T16:45:37.000Z</time></trkpt>
        <trkpt lat="28.2318492" lon="105.7489404"><ele>1038.4</ele><time>2026-08-13T16:45:47.000Z</time></trkpt>
        <trkpt lat="28.2318473" lon="105.7488191"><ele>1038.32</ele><time>2026-08-13T16:45:55.000Z</time></trkpt>
        <trkpt lat="28.2318086" lon="105.7487167"><ele>1038.77</ele><time>2026-08-13T16:46:03.000Z</time></trkpt>
        <trkpt lat="28.231758" lon="105.7486249"><ele>1039.09</ele><time>2026-08-13T16:46:17.000Z</time></trkpt>
        <trkpt lat="28.2317351" lon="105.7485273"><ele>1038.85</ele><time>2026-08-13T16:46:27.000Z</time></trkpt>
        <trkpt lat="28.2317294" lon="105.7484995"><ele>1038.7</ele><time>2026-08-13T16:46:29.000Z</time></trkpt>
        <trkpt lat="28.2317072" lon="105.7484144"><ele>1038.6</ele><time>2026-08-13T16:46:39.000Z</time></trkpt>
        <trkpt lat="28.2316935" lon="105.7483069"><ele>1040.26</ele><time>2026-08-13T16:46:49.000Z</time></trkpt>
        <trkpt lat="28.2316809" lon="105.7481947"><ele>1040.88</ele><time>2026-08-13T16:46:57.000Z</time></trkpt>
        <trkpt lat="28.2316783" lon="105.7480874"><ele>1042.69</ele><time>2026-08-13T16:47:03.000Z</time></trkpt>
        <trkpt lat="28.2316872" lon="105.7479681"><ele>1044</ele><time>2026-08-13T16:47:11.000Z</time></trkpt>
        <trkpt lat="28.2317068" lon="105.7479056"><ele>1045.11</ele><time>2026-08-13T16:47:19.000Z</time></trkpt>
        <trkpt lat="28.231714" lon="105.747816"><ele>1047.57</ele><time>2026-08-13T16:47:31.000Z</time></trkpt>
        <trkpt lat="28.2317065" lon="105.7477117"><ele>1048.76</ele><time>2026-08-13T16:47:39.000Z</time></trkpt>
        <trkpt lat="28.2316609" lon="105.7476124"><ele>1049.31</ele><time>2026-08-13T16:47:47.000Z</time></trkpt>
        <trkpt lat="28.2316274" lon="105.7474973"><ele>1050.37</ele><time>2026-08-13T16:47:55.000Z</time></trkpt>
        <trkpt lat="28.2315961" lon="105.7473838"><ele>1051.21</ele><time>2026-08-13T16:48:03.000Z</time></trkpt>
        <trkpt lat="28.2315819" lon="105.7472588"><ele>1051.76</ele><time>2026-08-13T16:48:11.000Z</time></trkpt>
        <trkpt lat="28.231576" lon="105.7471398"><ele>1051.07</ele><time>2026-08-13T16:48:19.000Z</time></trkpt>
        <trkpt lat="28.2315727" lon="105.7470242"><ele>1050.24</ele><time>2026-08-13T16:48:27.000Z</time></trkpt>
        <trkpt lat="28.2315696" lon="105.7469145"><ele>1049.79</ele><time>2026-08-13T16:48:35.000Z</time></trkpt>
        <trkpt lat="28.2315539" lon="105.7468127"><ele>1049.86</ele><time>2026-08-13T16:48:43.000Z</time></trkpt>
        <trkpt lat="28.231543" lon="105.7466956"><ele>1050.76</ele><time>2026-08-13T16:48:53.000Z</time></trkpt>
        <trkpt lat="28.2315553" lon="105.7465872"><ele>1051.55</ele><time>2026-08-13T16:49:01.000Z</time></trkpt>
        <trkpt lat="28.231554" lon="105.7465593"><ele>1052.59</ele><time>2026-08-13T16:49:09.000Z</time></trkpt>
        <trkpt lat="28.2315484" lon="105.7464716"><ele>1054.34</ele><time>2026-08-13T16:49:23.000Z</time></trkpt>
        <trkpt lat="28.2315646" lon="105.7463564"><ele>1056.44</ele><time>2026-08-13T16:49:33.000Z</time></trkpt>
        <trkpt lat="28.2315786" lon="105.7462257"><ele>1058.55</ele><time>2026-08-13T16:49:41.000Z</time></trkpt>
        <trkpt lat="28.2316091" lon="105.7461045"><ele>1060.56</ele><time>2026-08-13T16:49:49.000Z</time></trkpt>
        <trkpt lat="28.2315986" lon="105.7459759"><ele>1061.94</ele><time>2026-08-13T16:49:57.000Z</time></trkpt>
        <trkpt lat="28.2315794" lon="105.7458566"><ele>1062.07</ele><time>2026-08-13T16:50:07.000Z</time></trkpt>
        <trkpt lat="28.2315534" lon="105.7457531"><ele>1064.13</ele><time>2026-08-13T16:50:17.000Z</time></trkpt>
        <trkpt lat="28.2315155" lon="105.7456446"><ele>1065.62</ele><time>2026-08-13T16:50:31.000Z</time></trkpt>
        <trkpt lat="28.2314724" lon="105.7455456"><ele>1068.95</ele><time>2026-08-13T16:50:39.000Z</time></trkpt>
        <trkpt lat="28.2313881" lon="105.7454769"><ele>1072.85</ele><time>2026-08-13T16:50:43.000Z</time></trkpt>
        <trkpt lat="28.231303" lon="105.7454233"><ele>1077.27</ele><time>2026-08-13T16:50:53.000Z</time></trkpt>
        <trkpt lat="28.2312581" lon="105.7454909"><ele>1079.13</ele><time>2026-08-13T16:51:17.000Z</time></trkpt>
        <trkpt lat="28.2312144" lon="105.7455942"><ele>1075.57</ele><time>2026-08-13T16:51:25.000Z</time></trkpt>
        <trkpt lat="28.2311882" lon="105.7457094"><ele>1073.2</ele><time>2026-08-13T16:51:33.000Z</time></trkpt>
        <trkpt lat="28.2311826" lon="105.7458367"><ele>1071.41</ele><time>2026-08-13T16:51:41.000Z</time></trkpt>
        <trkpt lat="28.2311615" lon="105.7459479"><ele>1069.4</ele><time>2026-08-13T16:51:51.000Z</time></trkpt>
        <trkpt lat="28.2311363" lon="105.7460631"><ele>1068.01</ele><time>2026-08-13T16:51:59.000Z</time></trkpt>
        <trkpt lat="28.2310899" lon="105.7461658"><ele>1068.08</ele><time>2026-08-13T16:52:07.000Z</time></trkpt>
        <trkpt lat="28.23105" lon="105.7462655"><ele>1068.44</ele><time>2026-08-13T16:52:15.000Z</time></trkpt>
        <trkpt lat="28.2310847" lon="105.746368"><ele>1068.21</ele><time>2026-08-13T16:52:27.000Z</time></trkpt>
        <trkpt lat="28.2311089" lon="105.7464881"><ele>1070.81</ele><time>2026-08-13T16:52:33.000Z</time></trkpt>
        <trkpt lat="28.231144" lon="105.7465974"><ele>1073.77</ele><time>2026-08-13T16:52:45.000Z</time></trkpt>
        <trkpt lat="28.2311703" lon="105.7467041"><ele>1077.63</ele><time>2026-08-13T16:52:53.000Z</time></trkpt>
        <trkpt lat="28.2311571" lon="105.746823"><ele>1080.69</ele><time>2026-08-13T16:53:03.000Z</time></trkpt>
        <trkpt lat="28.2311389" lon="105.746934"><ele>1081.78</ele><time>2026-08-13T16:53:11.000Z</time></trkpt>
        <trkpt lat="28.2311533" lon="105.7470344"><ele>1080.7</ele><time>2026-08-13T16:53:19.000Z</time></trkpt>
        <trkpt lat="28.2311412" lon="105.7471499"><ele>1077.94</ele><time>2026-08-13T16:53:29.000Z</time></trkpt>
        <trkpt lat="28.2311582" lon="105.747267"><ele>1075.52</ele><time>2026-08-13T16:53:39.000Z</time></trkpt>
        <trkpt lat="28.2311669" lon="105.7473898"><ele>1074.42</ele><time>2026-08-13T16:53:49.000Z</time></trkpt>
        <trkpt lat="28.2311599" lon="105.7475129"><ele>1073.98</ele><time>2026-08-13T16:53:57.000Z</time></trkpt>
        <trkpt lat="28.2311436" lon="105.7476349"><ele>1073.72</ele><time>2026-08-13T16:54:05.000Z</time></trkpt>
        <trkpt lat="28.2311556" lon="105.7477398"><ele>1073.48</ele><time>2026-08-13T16:54:13.000Z</time></trkpt>
        <trkpt lat="28.2311867" lon="105.7478459"><ele>1073.29</ele><time>2026-08-13T16:54:25.000Z</time></trkpt>
        <trkpt lat="28.2311885" lon="105.7479559"><ele>1073.4</ele><time>2026-08-13T16:54:47.000Z</time></trkpt>
        <trkpt lat="28.23119" lon="105.7480746"><ele>1074.65</ele><time>2026-08-13T16:54:57.000Z</time></trkpt>
        <trkpt lat="28.231163" lon="105.7481836"><ele>1077.57</ele><time>2026-08-13T16:55:23.000Z</time></trkpt>
        <trkpt lat="28.2311335" lon="105.7482906"><ele>1077.28</ele><time>2026-08-13T16:55:31.000Z</time></trkpt>
        <trkpt lat="28.2311346" lon="105.7484028"><ele>1077.32</ele><time>2026-08-13T16:55:37.000Z</time></trkpt>
        <trkpt lat="28.2311121" lon="105.7484764"><ele>1077.48</ele><time>2026-08-13T16:55:43.000Z</time></trkpt>
        <trkpt lat="28.2310127" lon="105.7485162"><ele>1077.48</ele><time>2026-08-13T16:55:53.000Z</time></trkpt>
        <trkpt lat="28.2309102" lon="105.7485275"><ele>1076.18</ele><time>2026-08-13T16:55:59.000Z</time></trkpt>
        <trkpt lat="28.2307976" lon="105.7485132"><ele>1075.47</ele><time>2026-08-13T16:56:07.000Z</time></trkpt>
        <trkpt lat="28.2306868" lon="105.7485208"><ele>1075.19</ele><time>2026-08-13T16:56:19.000Z</time></trkpt>
        <trkpt lat="28.2305877" lon="105.7484943"><ele>1075.82</ele><time>2026-08-13T16:56:27.000Z</time></trkpt>
        <trkpt lat="28.230491" lon="105.7484773"><ele>1077.43</ele><time>2026-08-13T16:56:37.000Z</time></trkpt>
        <trkpt lat="28.2303982" lon="105.7484307"><ele>1080.03</ele><time>2026-08-13T16:56:43.000Z</time></trkpt>
        <trkpt lat="28.2303094" lon="105.7483874"><ele>1082.57</ele><time>2026-08-13T16:56:51.000Z</time></trkpt>
        <trkpt lat="28.2302157" lon="105.7483483"><ele>1084.19</ele><time>2026-08-13T16:56:59.000Z</time></trkpt>
        <trkpt lat="28.2301219" lon="105.7483121"><ele>1086.14</ele><time>2026-08-13T16:57:07.000Z</time></trkpt>
        <trkpt lat="28.2300267" lon="105.748282"><ele>1087.81</ele><time>2026-08-13T16:57:17.000Z</time></trkpt>
        <trkpt lat="28.2299286" lon="105.7482707"><ele>1088.37</ele><time>2026-08-13T16:57:25.000Z</time></trkpt>
        <trkpt lat="28.229827" lon="105.748222"><ele>1089.69</ele><time>2026-08-13T16:57:35.000Z</time></trkpt>
        <trkpt lat="28.2297389" lon="105.7481539"><ele>1090.98</ele><time>2026-08-13T16:57:43.000Z</time></trkpt>
        <trkpt lat="28.2296536" lon="105.7481054"><ele>1091.91</ele><time>2026-08-13T16:57:51.000Z</time></trkpt>
        <trkpt lat="28.2295713" lon="105.7480439"><ele>1092.59</ele><time>2026-08-13T16:58:01.000Z</time></trkpt>
        <trkpt lat="28.2294815" lon="105.7480173"><ele>1092.64</ele><time>2026-08-13T16:58:09.000Z</time></trkpt>
        <trkpt lat="28.229393" lon="105.7479836"><ele>1093.41</ele><time>2026-08-13T16:58:17.000Z</time></trkpt>
        <trkpt lat="28.229288" lon="105.7479534"><ele>1094.2</ele><time>2026-08-13T16:58:25.000Z</time></trkpt>
        <trkpt lat="28.2291923" lon="105.7479291"><ele>1094.11</ele><time>2026-08-13T16:58:35.000Z</time></trkpt>
        <trkpt lat="28.2290921" lon="105.7478965"><ele>1093.87</ele><time>2026-08-13T16:58:45.000Z</time></trkpt>
        <trkpt lat="28.2289996" lon="105.7478708"><ele>1094.34</ele><time>2026-08-13T16:58:53.000Z</time></trkpt>
        <trkpt lat="28.2288964" lon="105.7478477"><ele>1095.17</ele><time>2026-08-13T16:59:03.000Z</time></trkpt>
        <trkpt lat="28.2288206" lon="105.7478629"><ele>1096.3</ele><time>2026-08-13T16:59:15.000Z</time></trkpt>
        <trkpt lat="28.2287825" lon="105.747946"><ele>1099.64</ele><time>2026-08-13T16:59:37.000Z</time></trkpt>
        <trkpt lat="28.2288316" lon="105.7480311"><ele>1104.18</ele><time>2026-08-13T16:59:47.000Z</time></trkpt>
        <trkpt lat="28.2288614" lon="105.7480624"><ele>1106.18</ele><time>2026-08-13T16:59:49.000Z</time></trkpt>
        <trkpt lat="28.2289256" lon="105.7481318"><ele>1107.41</ele><time>2026-08-13T17:00:01.000Z</time></trkpt>
        <trkpt lat="28.2289962" lon="105.7482143"><ele>1106.15</ele><time>2026-08-13T17:00:17.000Z</time></trkpt>
        <trkpt lat="28.2290647" lon="105.7483324"><ele>1107.63</ele><time>2026-08-13T17:00:23.000Z</time></trkpt>
        <trkpt lat="28.2291369" lon="105.7484392"><ele>1108.52</ele><time>2026-08-13T17:00:33.000Z</time></trkpt>
        <trkpt lat="28.2292099" lon="105.7485297"><ele>1107.94</ele><time>2026-08-13T17:00:43.000Z</time></trkpt>
        <trkpt lat="28.2292719" lon="105.7486108"><ele>1107.96</ele><time>2026-08-13T17:00:51.000Z</time></trkpt>
        <trkpt lat="28.2293273" lon="105.7486944"><ele>1108.49</ele><time>2026-08-13T17:00:59.000Z</time></trkpt>
        <trkpt lat="28.2293609" lon="105.7488037"><ele>1109.29</ele><time>2026-08-13T17:01:07.000Z</time></trkpt>
        <trkpt lat="28.2293638" lon="105.7489407"><ele>1109.64</ele><time>2026-08-13T17:01:19.000Z</time></trkpt>
        <trkpt lat="28.229303" lon="105.7490272"><ele>1110.89</ele><time>2026-08-13T17:01:29.000Z</time></trkpt>
        <trkpt lat="28.2292186" lon="105.7490053"><ele>1111.92</ele><time>2026-08-13T17:01:37.000Z</time></trkpt>
        <trkpt lat="28.2291622" lon="105.7489012"><ele>1112.62</ele><time>2026-08-13T17:01:45.000Z</time></trkpt>
        <trkpt lat="28.2290932" lon="105.7487814"><ele>1114.52</ele><time>2026-08-13T17:01:57.000Z</time></trkpt>
        <trkpt lat="28.2290388" lon="105.7486712"><ele>1116.24</ele><time>2026-08-13T17:02:07.000Z</time></trkpt>
        <trkpt lat="28.2289733" lon="105.7485849"><ele>1116.78</ele><time>2026-08-13T17:02:15.000Z</time></trkpt>
        <trkpt lat="28.2289063" lon="105.7485032"><ele>1117.39</ele><time>2026-08-13T17:02:23.000Z</time></trkpt>
        <trkpt lat="28.228865" lon="105.7484056"><ele>1119.05</ele><time>2026-08-13T17:02:33.000Z</time></trkpt>
        <trkpt lat="28.2288134" lon="105.7482968"><ele>1122.97</ele><time>2026-08-13T17:02:45.000Z</time></trkpt>
        <trkpt lat="28.2287638" lon="105.7482008"><ele>1121.91</ele><time>2026-08-13T17:02:53.000Z</time></trkpt>
        <trkpt lat="28.2286904" lon="105.748111"><ele>1121.46</ele><time>2026-08-13T17:03:03.000Z</time></trkpt>
        <trkpt lat="28.2285945" lon="105.7481011"><ele>1121.09</ele><time>2026-08-13T17:03:13.000Z</time></trkpt>
        <trkpt lat="28.2284937" lon="105.7481165"><ele>1120.89</ele><time>2026-08-13T17:03:19.000Z</time></trkpt>
        <trkpt lat="28.228397" lon="105.7481262"><ele>1121.06</ele><time>2026-08-13T17:03:31.000Z</time></trkpt>
        <trkpt lat="28.2283003" lon="105.7480852"><ele>1124.23</ele><time>2026-08-13T17:03:37.000Z</time></trkpt>
        <trkpt lat="28.2282436" lon="105.7480011"><ele>1126.21</ele><time>2026-08-13T17:03:47.000Z</time></trkpt>
        <trkpt lat="28.2282508" lon="105.7478951"><ele>1127.93</ele><time>2026-08-13T17:03:55.000Z</time></trkpt>
        <trkpt lat="28.2283275" lon="105.7477991"><ele>1129.24</ele><time>2026-08-13T17:04:05.000Z</time></trkpt>
        <trkpt lat="28.2284098" lon="105.7477045"><ele>1129.19</ele><time>2026-08-13T17:04:15.000Z</time></trkpt>
        <trkpt lat="28.2284371" lon="105.7475929"><ele>1129.55</ele><time>2026-08-13T17:04:25.000Z</time></trkpt>
        <trkpt lat="28.2284458" lon="105.747481"><ele>1131.04</ele><time>2026-08-13T17:04:33.000Z</time></trkpt>
        <trkpt lat="28.2284525" lon="105.7473715"><ele>1132.76</ele><time>2026-08-13T17:04:41.000Z</time></trkpt>
        <trkpt lat="28.2284347" lon="105.7472536"><ele>1134.85</ele><time>2026-08-13T17:04:51.000Z</time></trkpt>
        <trkpt lat="28.2283784" lon="105.7471619"><ele>1136.01</ele><time>2026-08-13T17:05:11.000Z</time></trkpt>
        <trkpt lat="28.2282951" lon="105.7470755"><ele>1137.63</ele><time>2026-08-13T17:05:17.000Z</time></trkpt>
        <trkpt lat="28.2282861" lon="105.7469602"><ele>1138.06</ele><time>2026-08-13T17:05:25.000Z</time></trkpt>
        <trkpt lat="28.2283544" lon="105.7468975"><ele>1138.77</ele><time>2026-08-13T17:05:31.000Z</time></trkpt>
        <trkpt lat="28.2284621" lon="105.7468828"><ele>1138.5</ele><time>2026-08-13T17:05:43.000Z</time></trkpt>
        <trkpt lat="28.2285688" lon="105.746891"><ele>1137.26</ele><time>2026-08-13T17:05:51.000Z</time></trkpt>
        <trkpt lat="28.2286835" lon="105.7469099"><ele>1136.37</ele><time>2026-08-13T17:06:01.000Z</time></trkpt>
        <trkpt lat="28.2287684" lon="105.7469704"><ele>1136.28</ele><time>2026-08-13T17:06:11.000Z</time></trkpt>
        <trkpt lat="28.2288335" lon="105.7470508"><ele>1140.44</ele><time>2026-08-13T17:06:17.000Z</time></trkpt>
        <trkpt lat="28.2288956" lon="105.7471458"><ele>1139.83</ele><time>2026-08-13T17:06:31.000Z</time></trkpt>
        <trkpt lat="28.2289671" lon="105.7472452"><ele>1142.5</ele><time>2026-08-13T17:06:41.000Z</time></trkpt>
        <trkpt lat="28.2290201" lon="105.7473651"><ele>1147.05</ele><time>2026-08-13T17:06:49.000Z</time></trkpt>
        <trkpt lat="28.2290485" lon="105.7474404"><ele>1149.16</ele><time>2026-08-13T17:07:05.000Z</time></trkpt>
        <trkpt lat="28.2291305" lon="105.7474823"><ele>1149.52</ele><time>2026-08-13T17:07:23.000Z</time></trkpt>
        <trkpt lat="28.2292104" lon="105.7475016"><ele>1146.97</ele><time>2026-08-13T17:07:31.000Z</time></trkpt>
        <trkpt lat="28.2293136" lon="105.7475013"><ele>1144.8</ele><time>2026-08-13T17:07:45.000Z</time></trkpt>
        <trkpt lat="28.2294043" lon="105.7475431"><ele>1143.51</ele><time>2026-08-13T17:07:57.000Z</time></trkpt>
        <trkpt lat="28.229491" lon="105.7475974"><ele>1143.38</ele><time>2026-08-13T17:08:03.000Z</time></trkpt>
        <trkpt lat="28.2295854" lon="105.7476354"><ele>1143.77</ele><time>2026-08-13T17:08:11.000Z</time></trkpt>
        <trkpt lat="28.2296745" lon="105.7476757"><ele>1144.65</ele><time>2026-08-13T17:08:19.000Z</time></trkpt>
        <trkpt lat="28.229772" lon="105.7477085"><ele>1145.69</ele><time>2026-08-13T17:08:29.000Z</time></trkpt>
        <trkpt lat="28.2298794" lon="105.7477501"><ele>1146.75</ele><time>2026-08-13T17:08:47.000Z</time></trkpt>
        <trkpt lat="28.2299924" lon="105.7477721"><ele>1150.34</ele><time>2026-08-13T17:08:57.000Z</time></trkpt>
        <trkpt lat="28.2300844" lon="105.7478187"><ele>1152.59</ele><time>2026-08-13T17:09:07.000Z</time></trkpt>
        <trkpt lat="28.230181" lon="105.7477817"><ele>1154.14</ele><time>2026-08-13T17:09:19.000Z</time></trkpt>
        <trkpt lat="28.2302771" lon="105.7477248"><ele>1153.47</ele><time>2026-08-13T17:09:33.000Z</time></trkpt>
        <trkpt lat="28.2303731" lon="105.7476733"><ele>1147.38</ele><time>2026-08-13T17:09:43.000Z</time></trkpt>
        <trkpt lat="28.2304458" lon="105.7475883"><ele>1145.3</ele><time>2026-08-13T17:09:53.000Z</time></trkpt>
        <trkpt lat="28.2304726" lon="105.7474644"><ele>1144.67</ele><time>2026-08-13T17:10:03.000Z</time></trkpt>
        <trkpt lat="28.2304554" lon="105.7473489"><ele>1145.19</ele><time>2026-08-13T17:10:17.000Z</time></trkpt>
        <trkpt lat="28.2303812" lon="105.747261"><ele>1146.43</ele><time>2026-08-13T17:10:43.000Z</time></trkpt>
        <trkpt lat="28.2303126" lon="105.7471739"><ele>1150.44</ele><time>2026-08-13T17:10:51.000Z</time></trkpt>
        <trkpt lat="28.2302761" lon="105.7470632"><ele>1153.03</ele><time>2026-08-13T17:11:01.000Z</time></trkpt>
        <trkpt lat="28.2302595" lon="105.7469418"><ele>1155.77</ele><time>2026-08-13T17:11:07.000Z</time></trkpt>
        <trkpt lat="28.2303161" lon="105.7468615"><ele>1158.71</ele><time>2026-08-13T17:11:19.000Z</time></trkpt>
        <trkpt lat="28.2303494" lon="105.7467687"><ele>1162.58</ele><time>2026-08-13T17:11:39.000Z</time></trkpt>
        <trkpt lat="28.2303199" lon="105.7466741"><ele>1163.72</ele><time>2026-08-13T17:11:47.000Z</time></trkpt>
        <trkpt lat="28.2302589" lon="105.7465849"><ele>1163.61</ele><time>2026-08-13T17:11:55.000Z</time></trkpt>
        <trkpt lat="28.2301779" lon="105.7465092"><ele>1163.21</ele><time>2026-08-13T17:12:03.000Z</time></trkpt>
        <trkpt lat="28.2300869" lon="105.7464359"><ele>1160.89</ele><time>2026-08-13T17:12:13.000Z</time></trkpt>
        <trkpt lat="28.2300092" lon="105.7463584"><ele>1160.08</ele><time>2026-08-13T17:12:21.000Z</time></trkpt>
        <trkpt lat="28.229992" lon="105.7462549"><ele>1160.51</ele><time>2026-08-13T17:12:31.000Z</time></trkpt>
        <trkpt lat="28.2300031" lon="105.746209"><ele>1163.2</ele><time>2026-08-13T17:12:33.000Z</time></trkpt>
        <trkpt lat="28.2299971" lon="105.7461199"><ele>1165.22</ele><time>2026-08-13T17:12:45.000Z</time></trkpt>
        <trkpt lat="28.2299963" lon="105.7460134"><ele>1169.91</ele><time>2026-08-13T17:12:55.000Z</time></trkpt>
        <trkpt lat="28.2299915" lon="105.7459026"><ele>1172.66</ele><time>2026-08-13T17:13:01.000Z</time></trkpt>
        <trkpt lat="28.2300443" lon="105.7457934"><ele>1170.79</ele><time>2026-08-13T17:13:11.000Z</time></trkpt>
        <trkpt lat="28.2301167" lon="105.7457076"><ele>1170.06</ele><time>2026-08-13T17:13:21.000Z</time></trkpt>
        <trkpt lat="28.2301777" lon="105.7456182"><ele>1169.66</ele><time>2026-08-13T17:13:33.000Z</time></trkpt>
        <trkpt lat="28.2301572" lon="105.7455181"><ele>1172.35</ele><time>2026-08-13T17:13:41.000Z</time></trkpt>
        <trkpt lat="28.2300849" lon="105.74544"><ele>1173.19</ele><time>2026-08-13T17:13:49.000Z</time></trkpt>
        <trkpt lat="28.2299908" lon="105.7453707"><ele>1172.48</ele><time>2026-08-13T17:14:07.000Z</time></trkpt>
        <trkpt lat="28.2299022" lon="105.7453041"><ele>1171.11</ele><time>2026-08-13T17:14:17.000Z</time></trkpt>
        <trkpt lat="28.229839" lon="105.7452154"><ele>1170.87</ele><time>2026-08-13T17:14:27.000Z</time></trkpt>
        <trkpt lat="28.2297954" lon="105.7451206"><ele>1171.59</ele><time>2026-08-13T17:14:39.000Z</time></trkpt>
        <trkpt lat="28.2297592" lon="105.7450101"><ele>1173.43</ele><time>2026-08-13T17:14:49.000Z</time></trkpt>
        <trkpt lat="28.2297612" lon="105.7449882"><ele>1174.95</ele><time>2026-08-13T17:14:55.000Z</time></trkpt>
        <trkpt lat="28.229774" lon="105.7449094"><ele>1174.75</ele><time>2026-08-13T17:15:13.000Z</time></trkpt>
        <trkpt lat="28.2297543" lon="105.744817"><ele>1176.49</ele><time>2026-08-13T17:15:21.000Z</time></trkpt>
        <trkpt lat="28.2297536" lon="105.7447012"><ele>1178.72</ele><time>2026-08-13T17:15:39.000Z</time></trkpt>
        <trkpt lat="28.2297673" lon="105.7445815"><ele>1182.39</ele><time>2026-08-13T17:15:47.000Z</time></trkpt>
        <trkpt lat="28.2297529" lon="105.744466"><ele>1184.39</ele><time>2026-08-13T17:15:55.000Z</time></trkpt>
        <trkpt lat="28.2297083" lon="105.7443549"><ele>1185.11</ele><time>2026-08-13T17:16:03.000Z</time></trkpt>
        <trkpt lat="28.2296417" lon="105.7442617"><ele>1184.69</ele><time>2026-08-13T17:16:13.000Z</time></trkpt>
        <trkpt lat="28.2295622" lon="105.7441649"><ele>1185.15</ele><time>2026-08-13T17:16:21.000Z</time></trkpt>
        <trkpt lat="28.2294669" lon="105.744088"><ele>1186.46</ele><time>2026-08-13T17:16:29.000Z</time></trkpt>
        <trkpt lat="28.2293843" lon="105.7440083"><ele>1187.29</ele><time>2026-08-13T17:16:41.000Z</time></trkpt>
        <trkpt lat="28.2293608" lon="105.7439118"><ele>1188.46</ele><time>2026-08-13T17:16:49.000Z</time></trkpt>
        <trkpt lat="28.2294038" lon="105.7438185"><ele>1190</ele><time>2026-08-13T17:16:59.000Z</time></trkpt>
        <trkpt lat="28.2294737" lon="105.7437357"><ele>1190.33</ele><time>2026-08-13T17:17:09.000Z</time></trkpt>
        <trkpt lat="28.2295255" lon="105.7436981"><ele>1193.03</ele><time>2026-08-13T17:17:13.000Z</time></trkpt>
        <trkpt lat="28.2295832" lon="105.7436178"><ele>1194.5</ele><time>2026-08-13T17:17:21.000Z</time></trkpt>
        <trkpt lat="28.2296083" lon="105.7435026"><ele>1192.55</ele><time>2026-08-13T17:17:29.000Z</time></trkpt>
        <trkpt lat="28.2296114" lon="105.7434764"><ele>1191.83</ele><time>2026-08-13T17:17:37.000Z</time></trkpt>
        <trkpt lat="28.2295656" lon="105.743409"><ele>1192.6</ele><time>2026-08-13T17:17:45.000Z</time></trkpt>
        <trkpt lat="28.2295066" lon="105.7433236"><ele>1192.65</ele><time>2026-08-13T17:17:55.000Z</time></trkpt>
        <trkpt lat="28.229472" lon="105.7432861"><ele>1192.42</ele><time>2026-08-13T17:17:59.000Z</time></trkpt>
        <trkpt lat="28.2293936" lon="105.7432827"><ele>1192.4</ele><time>2026-08-13T17:18:05.000Z</time></trkpt>
        <trkpt lat="28.2293044" lon="105.7432489"><ele>1191.86</ele><time>2026-08-13T17:18:19.000Z</time></trkpt>
        <trkpt lat="28.2292" lon="105.7432096"><ele>1192.25</ele><time>2026-08-13T17:18:29.000Z</time></trkpt>
        <trkpt lat="28.2291316" lon="105.7431338"><ele>1193.79</ele><time>2026-08-13T17:18:39.000Z</time></trkpt>
        <trkpt lat="28.22913" lon="105.7430219"><ele>1195.39</ele><time>2026-08-13T17:18:47.000Z</time></trkpt>
        <trkpt lat="28.2291662" lon="105.7429006"><ele>1196.75</ele><time>2026-08-13T17:18:55.000Z</time></trkpt>
        <trkpt lat="28.2291836" lon="105.7428576"><ele>1198.1</ele><time>2026-08-13T17:18:57.000Z</time></trkpt>
        <trkpt lat="28.2291773" lon="105.7427721"><ele>1198.89</ele><time>2026-08-13T17:19:17.000Z</time></trkpt>
        <trkpt lat="28.2292135" lon="105.7426793"><ele>1199.48</ele><time>2026-08-13T17:19:29.000Z</time></trkpt>
        <trkpt lat="28.2292435" lon="105.7426099"><ele>1200.52</ele><time>2026-08-13T17:19:37.000Z</time></trkpt>
        <trkpt lat="28.2292835" lon="105.7425175"><ele>1200.9</ele><time>2026-08-13T17:19:51.000Z</time></trkpt>
        <trkpt lat="28.2293398" lon="105.7424333"><ele>1200.47</ele><time>2026-08-13T17:19:59.000Z</time></trkpt>
        <trkpt lat="28.2293099" lon="105.7423321"><ele>1200.67</ele><time>2026-08-13T17:20:07.000Z</time></trkpt>
        <trkpt lat="28.2292361" lon="105.7422365"><ele>1201.72</ele><time>2026-08-13T17:20:13.000Z</time></trkpt>
        <trkpt lat="28.2291505" lon="105.7421495"><ele>1200.85</ele><time>2026-08-13T17:20:23.000Z</time></trkpt>
        <trkpt lat="28.2290818" lon="105.7420622"><ele>1200.46</ele><time>2026-08-13T17:20:31.000Z</time></trkpt>
        <trkpt lat="28.2290085" lon="105.7419811"><ele>1200.34</ele><time>2026-08-13T17:20:39.000Z</time></trkpt>
        <trkpt lat="28.2290083" lon="105.7418742"><ele>1200.37</ele><time>2026-08-13T17:20:47.000Z</time></trkpt>
        <trkpt lat="28.22908" lon="105.7418056"><ele>1201.04</ele><time>2026-08-13T17:20:53.000Z</time></trkpt>
        <trkpt lat="28.2291873" lon="105.74184"><ele>1201.76</ele><time>2026-08-13T17:20:57.000Z</time></trkpt>
        <trkpt lat="28.2292902" lon="105.7418264"><ele>1209.7</ele><time>2026-08-13T17:21:09.000Z</time></trkpt>
        <trkpt lat="28.2293594" lon="105.7417542"><ele>1212.29</ele><time>2026-08-13T17:21:17.000Z</time></trkpt>
        <trkpt lat="28.2294287" lon="105.7416722"><ele>1211.77</ele><time>2026-08-13T17:21:27.000Z</time></trkpt>
        <trkpt lat="28.2294349" lon="105.7415461"><ele>1210.94</ele><time>2026-08-13T17:21:33.000Z</time></trkpt>
        <trkpt lat="28.2294498" lon="105.7414181"><ele>1209.07</ele><time>2026-08-13T17:21:43.000Z</time></trkpt>
        <trkpt lat="28.2294438" lon="105.7412986"><ele>1209.65</ele><time>2026-08-13T17:21:53.000Z</time></trkpt>
        <trkpt lat="28.2293658" lon="105.7412317"><ele>1210.07</ele><time>2026-08-13T17:22:03.000Z</time></trkpt>
        <trkpt lat="28.2293202" lon="105.7412241"><ele>1209.74</ele><time>2026-08-13T17:22:07.000Z</time></trkpt>
        <trkpt lat="28.2292166" lon="105.7411657"><ele>1209.72</ele><time>2026-08-13T17:22:23.000Z</time></trkpt>
        <trkpt lat="28.2291228" lon="105.7410984"><ele>1209.76</ele><time>2026-08-13T17:22:29.000Z</time></trkpt>
        <trkpt lat="28.229064" lon="105.740998"><ele>1209.86</ele><time>2026-08-13T17:22:39.000Z</time></trkpt>
        <trkpt lat="28.2290236" lon="105.740882"><ele>1212.04</ele><time>2026-08-13T17:22:47.000Z</time></trkpt>
        <trkpt lat="28.2290073" lon="105.7408126"><ele>1217.7</ele><time>2026-08-13T17:22:51.000Z</time></trkpt>
        <trkpt lat="28.2290873" lon="105.7407647"><ele>1222.98</ele><time>2026-08-13T17:23:15.000Z</time></trkpt>
        <trkpt lat="28.2291781" lon="105.7407331"><ele>1226.18</ele><time>2026-08-13T17:23:25.000Z</time></trkpt>
        <trkpt lat="28.2292475" lon="105.7406435"><ele>1226.93</ele><time>2026-08-13T17:23:37.000Z</time></trkpt>
        <trkpt lat="28.2293092" lon="105.7405565"><ele>1225.86</ele><time>2026-08-13T17:23:45.000Z</time></trkpt>
        <trkpt lat="28.2293469" lon="105.7404562"><ele>1224.26</ele><time>2026-08-13T17:24:01.000Z</time></trkpt>
        <trkpt lat="28.2293583" lon="105.7403316"><ele>1222.89</ele><time>2026-08-13T17:24:11.000Z</time></trkpt>
        <trkpt lat="28.2293475" lon="105.7402128"><ele>1222.2</ele><time>2026-08-13T17:24:19.000Z</time></trkpt>
        <trkpt lat="28.2293229" lon="105.7400841"><ele>1222.33</ele><time>2026-08-13T17:24:27.000Z</time></trkpt>
        <trkpt lat="28.2293052" lon="105.7399969"><ele>1222.28</ele><time>2026-08-13T17:24:33.000Z</time></trkpt>
        <trkpt lat="28.2292953" lon="105.7399023"><ele>1222.19</ele><time>2026-08-13T17:24:39.000Z</time></trkpt>
        <trkpt lat="28.2292234" lon="105.7398171"><ele>1223.94</ele><time>2026-08-13T17:24:49.000Z</time></trkpt>
        <trkpt lat="28.2291255" lon="105.7397925"><ele>1224.62</ele><time>2026-08-13T17:24:57.000Z</time></trkpt>
        <trkpt lat="28.2290186" lon="105.7397922"><ele>1224.69</ele><time>2026-08-13T17:25:09.000Z</time></trkpt>
        <trkpt lat="28.2289609" lon="105.7397235"><ele>1224.97</ele><time>2026-08-13T17:25:17.000Z</time></trkpt>
        <trkpt lat="28.228967" lon="105.7395953"><ele>1225.23</ele><time>2026-08-13T17:25:23.000Z</time></trkpt>
        <trkpt lat="28.2289651" lon="105.7394683"><ele>1225.54</ele><time>2026-08-13T17:25:31.000Z</time></trkpt>
        <trkpt lat="28.2289281" lon="105.7393676"><ele>1226.04</ele><time>2026-08-13T17:25:39.000Z</time></trkpt>
        <trkpt lat="28.2289169" lon="105.7392525"><ele>1227.22</ele><time>2026-08-13T17:25:49.000Z</time></trkpt>
        <trkpt lat="28.2289769" lon="105.73917"><ele>1228.09</ele><time>2026-08-13T17:25:55.000Z</time></trkpt>
        <trkpt lat="28.2290861" lon="105.7391379"><ele>1228.77</ele><time>2026-08-13T17:26:03.000Z</time></trkpt>
        <trkpt lat="28.2291929" lon="105.7390883"><ele>1229.63</ele><time>2026-08-13T17:26:13.000Z</time></trkpt>
        <trkpt lat="28.229237" lon="105.7389972"><ele>1230.13</ele><time>2026-08-13T17:26:23.000Z</time></trkpt>
        <trkpt lat="28.2292383" lon="105.7388894"><ele>1229.98</ele><time>2026-08-13T17:26:31.000Z</time></trkpt>
        <trkpt lat="28.2292301" lon="105.7387793"><ele>1229.75</ele><time>2026-08-13T17:26:41.000Z</time></trkpt>
        <trkpt lat="28.2292259" lon="105.7386693"><ele>1230.2</ele><time>2026-08-13T17:26:51.000Z</time></trkpt>
        <trkpt lat="28.2291732" lon="105.7385634"><ele>1230.4</ele><time>2026-08-13T17:27:01.000Z</time></trkpt>
        <trkpt lat="28.229102" lon="105.7384764"><ele>1230.41</ele><time>2026-08-13T17:27:09.000Z</time></trkpt>
        <trkpt lat="28.2291037" lon="105.7383778"><ele>1230.36</ele><time>2026-08-13T17:27:19.000Z</time></trkpt>
        <trkpt lat="28.229161" lon="105.738259"><ele>1230.48</ele><time>2026-08-13T17:27:25.000Z</time></trkpt>
        <trkpt lat="28.2291997" lon="105.7381497"><ele>1230.98</ele><time>2026-08-13T17:27:31.000Z</time></trkpt>
        <trkpt lat="28.2292248" lon="105.7380457"><ele>1231.83</ele><time>2026-08-13T17:27:37.000Z</time></trkpt>
        <trkpt lat="28.2292484" lon="105.7379313"><ele>1233</ele><time>2026-08-13T17:27:45.000Z</time></trkpt>
        <trkpt lat="28.2292752" lon="105.7378267"><ele>1235.28</ele><time>2026-08-13T17:27:53.000Z</time></trkpt>
        <trkpt lat="28.2293088" lon="105.7377755"><ele>1237.88</ele><time>2026-08-13T17:27:59.000Z</time></trkpt>
        <trkpt lat="28.2293793" lon="105.7377016"><ele>1241.37</ele><time>2026-08-13T17:28:13.000Z</time></trkpt>
        <trkpt lat="28.2294192" lon="105.7376012"><ele>1244.44</ele><time>2026-08-13T17:28:19.000Z</time></trkpt>
        <trkpt lat="28.2294526" lon="105.7375003"><ele>1247.73</ele><time>2026-08-13T17:28:27.000Z</time></trkpt>
        <trkpt lat="28.2294806" lon="105.7373971"><ele>1250.9</ele><time>2026-08-13T17:28:35.000Z</time></trkpt>
        <trkpt lat="28.2294936" lon="105.7372745"><ele>1253.85</ele><time>2026-08-13T17:28:41.000Z</time></trkpt>
        <trkpt lat="28.2294941" lon="105.7371625"><ele>1255.32</ele><time>2026-08-13T17:28:49.000Z</time></trkpt>
        <trkpt lat="28.2294592" lon="105.7370494"><ele>1256.08</ele><time>2026-08-13T17:29:25.000Z</time></trkpt>
        <trkpt lat="28.2294458" lon="105.7370176"><ele>1256.23</ele><time>2026-08-13T17:29:27.000Z</time></trkpt>
        <trkpt lat="28.229416" lon="105.7369441"><ele>1256.24</ele><time>2026-08-13T17:30:17.000Z</time></trkpt>
        <trkpt lat="28.2293672" lon="105.7368451"><ele>1253.41</ele><time>2026-08-13T17:30:27.000Z</time></trkpt>
        <trkpt lat="28.2293364" lon="105.7367281"><ele>1252.36</ele><time>2026-08-13T17:30:47.000Z</time></trkpt>
        <trkpt lat="28.2293328" lon="105.7366003"><ele>1251.83</ele><time>2026-08-13T17:31:55.000Z</time></trkpt>
        <trkpt lat="28.229313" lon="105.7364889"><ele>1248.94</ele><time>2026-08-13T17:32:05.000Z</time></trkpt>
        <trkpt lat="28.2293021" lon="105.7363663"><ele>1246.6</ele><time>2026-08-13T17:32:13.000Z</time></trkpt>
        <trkpt lat="28.2292581" lon="105.7362605"><ele>1244.41</ele><time>2026-08-13T17:32:23.000Z</time></trkpt>
        <trkpt lat="28.2292253" lon="105.7361419"><ele>1243.82</ele><time>2026-08-13T17:32:33.000Z</time></trkpt>
        <trkpt lat="28.2291869" lon="105.7360362"><ele>1242.52</ele><time>2026-08-13T17:32:47.000Z</time></trkpt>
        <trkpt lat="28.2291939" lon="105.7359305"><ele>1240.37</ele><time>2026-08-13T17:33:03.000Z</time></trkpt>
        <trkpt lat="28.2291775" lon="105.7358245"><ele>1237.33</ele><time>2026-08-13T17:33:19.000Z</time></trkpt>
        <trkpt lat="28.2291504" lon="105.7357221"><ele>1233.93</ele><time>2026-08-13T17:33:33.000Z</time></trkpt>
        <trkpt lat="28.2291511" lon="105.7356187"><ele>1231.02</ele><time>2026-08-13T17:33:59.000Z</time></trkpt>
        <trkpt lat="28.229139" lon="105.735508"><ele>1224.32</ele><time>2026-08-13T17:34:23.000Z</time></trkpt>
        <trkpt lat="28.2291311" lon="105.7354683"><ele>1219.16</ele><time>2026-08-13T17:34:27.000Z</time></trkpt>
        <trkpt lat="28.2291081" lon="105.7353779"><ele>1216</ele><time>2026-08-13T17:34:49.000Z</time></trkpt>
        <trkpt lat="28.2290729" lon="105.7352663"><ele>1213.48</ele><time>2026-08-13T17:35:01.000Z</time></trkpt>
        <trkpt lat="28.2290328" lon="105.7351513"><ele>1210.83</ele><time>2026-08-13T17:35:15.000Z</time></trkpt>
        <trkpt lat="28.2290015" lon="105.7350401"><ele>1208.17</ele><time>2026-08-13T17:35:35.000Z</time></trkpt>
        <trkpt lat="28.2289739" lon="105.7349326"><ele>1205.88</ele><time>2026-08-13T17:35:47.000Z</time></trkpt>
        <trkpt lat="28.228971" lon="105.7348833"><ele>1203.6</ele><time>2026-08-13T17:35:51.000Z</time></trkpt>
        <trkpt lat="28.2289714" lon="105.7348011"><ele>1201.74</ele><time>2026-08-13T17:36:27.000Z</time></trkpt>
        <trkpt lat="28.228969" lon="105.7346866"><ele>1200.23</ele><time>2026-08-13T17:36:37.000Z</time></trkpt>
        <trkpt lat="28.2289612" lon="105.7345658"><ele>1198.48</ele><time>2026-08-13T17:36:53.000Z</time></trkpt>
        <trkpt lat="28.2289202" lon="105.7344676"><ele>1192.47</ele><time>2026-08-13T17:37:05.000Z</time></trkpt>
        <trkpt lat="28.2288927" lon="105.7343664"><ele>1191.69</ele><time>2026-08-13T17:37:27.000Z</time></trkpt>
        <trkpt lat="28.2288675" lon="105.7342652"><ele>1189.22</ele><time>2026-08-13T17:37:35.000Z</time></trkpt>
        <trkpt lat="28.2288482" lon="105.7341578"><ele>1187.3</ele><time>2026-08-13T17:37:45.000Z</time></trkpt>
        <trkpt lat="28.2288637" lon="105.7340559"><ele>1185.24</ele><time>2026-08-13T17:38:01.000Z</time></trkpt>
        <trkpt lat="28.2288433" lon="105.7339572"><ele>1181.31</ele><time>2026-08-13T17:38:15.000Z</time></trkpt>
        <trkpt lat="28.228822" lon="105.7338555"><ele>1178.23</ele><time>2026-08-13T17:38:23.000Z</time></trkpt>
        <trkpt lat="28.2288059" lon="105.7337437"><ele>1176.07</ele><time>2026-08-13T17:38:31.000Z</time></trkpt>
        <trkpt lat="28.22881" lon="105.7336486"><ele>1175.32</ele><time>2026-08-13T17:38:47.000Z</time></trkpt>
        <trkpt lat="28.2287734" lon="105.7335645"><ele>1174.24</ele><time>2026-08-13T17:39:07.000Z</time></trkpt>
        <trkpt lat="28.2287251" lon="105.7334625"><ele>1171.72</ele><time>2026-08-13T17:39:21.000Z</time></trkpt>
        <trkpt lat="28.2286743" lon="105.7333635"><ele>1169.18</ele><time>2026-08-13T17:39:29.000Z</time></trkpt>
        <trkpt lat="28.2286352" lon="105.7332562"><ele>1168.21</ele><time>2026-08-13T17:39:39.000Z</time></trkpt>
        <trkpt lat="28.2286161" lon="105.7331332"><ele>1165.38</ele><time>2026-08-13T17:39:49.000Z</time></trkpt>
        <trkpt lat="28.2286063" lon="105.7330139"><ele>1159.08</ele><time>2026-08-13T17:39:59.000Z</time></trkpt>
        <trkpt lat="28.2286094" lon="105.7329006"><ele>1154.48</ele><time>2026-08-13T17:40:09.000Z</time></trkpt>
        <trkpt lat="28.2285897" lon="105.7328054"><ele>1150.45</ele><time>2026-08-13T17:40:21.000Z</time></trkpt>
        <trkpt lat="28.2285404" lon="105.732709"><ele>1149.08</ele><time>2026-08-13T17:41:05.000Z</time></trkpt>
        <trkpt lat="28.2284814" lon="105.7326223"><ele>1147.95</ele><time>2026-08-13T17:41:15.000Z</time></trkpt>
        <trkpt lat="28.2284244" lon="105.7325377"><ele>1146.59</ele><time>2026-08-13T17:41:27.000Z</time></trkpt>
        <trkpt lat="28.2284118" lon="105.7324265"><ele>1144.35</ele><time>2026-08-13T17:41:39.000Z</time></trkpt>
        <trkpt lat="28.2284116" lon="105.7323423"><ele>1140.02</ele><time>2026-08-13T17:41:47.000Z</time></trkpt>
        <trkpt lat="28.2283579" lon="105.7322688"><ele>1135.85</ele><time>2026-08-13T17:41:57.000Z</time></trkpt>
        <trkpt lat="28.2283296" lon="105.7322515"><ele>1131.49</ele><time>2026-08-13T17:42:03.000Z</time></trkpt>
        <trkpt lat="28.2282693" lon="105.7322005"><ele>1131.19</ele><time>2026-08-13T17:43:01.000Z</time></trkpt>
        <trkpt lat="28.2282239" lon="105.7321104"><ele>1129.94</ele><time>2026-08-13T17:43:11.000Z</time></trkpt>
        <trkpt lat="28.2282114" lon="105.7320011"><ele>1127.67</ele><time>2026-08-13T17:43:27.000Z</time></trkpt>
        <trkpt lat="28.2281642" lon="105.7319075"><ele>1125.6</ele><time>2026-08-13T17:43:35.000Z</time></trkpt>
        <trkpt lat="28.2281123" lon="105.7318002"><ele>1124.41</ele><time>2026-08-13T17:43:49.000Z</time></trkpt>
        <trkpt lat="28.2280731" lon="105.7316987"><ele>1123.36</ele><time>2026-08-13T17:44:27.000Z</time></trkpt>
        <trkpt lat="28.2280451" lon="105.7315764"><ele>1121.57</ele><time>2026-08-13T17:44:41.000Z</time></trkpt>
        <trkpt lat="28.2280305" lon="105.7314556"><ele>1119.55</ele><time>2026-08-13T17:44:49.000Z</time></trkpt>
        <trkpt lat="28.2279897" lon="105.7313448"><ele>1118.87</ele><time>2026-08-13T17:45:05.000Z</time></trkpt>
        <trkpt lat="28.22792" lon="105.7312511"><ele>1117.56</ele><time>2026-08-13T17:45:15.000Z</time></trkpt>
        <trkpt lat="28.2278595" lon="105.7311585"><ele>1117.03</ele><time>2026-08-13T17:45:27.000Z</time></trkpt>
        <trkpt lat="28.2277845" lon="105.731086"><ele>1116</ele><time>2026-08-13T17:45:35.000Z</time></trkpt>
        <trkpt lat="28.2277086" lon="105.7309972"><ele>1114.83</ele><time>2026-08-13T17:45:47.000Z</time></trkpt>
        <trkpt lat="28.227622" lon="105.7308793"><ele>1112.99</ele><time>2026-08-13T17:45:57.000Z</time></trkpt>
        <trkpt lat="28.227543" lon="105.7307915"><ele>1112.19</ele><time>2026-08-13T17:46:03.000Z</time></trkpt>
        <trkpt lat="28.2274633" lon="105.7307248"><ele>1110.67</ele><time>2026-08-13T17:46:13.000Z</time></trkpt>
        <trkpt lat="28.2273952" lon="105.7307107"><ele>1109.06</ele><time>2026-08-13T17:46:35.000Z</time></trkpt>
        <trkpt lat="28.2273255" lon="105.7306692"><ele>1102.37</ele><time>2026-08-13T17:47:07.000Z</time></trkpt>
        <trkpt lat="28.227273" lon="105.7305879"><ele>1099.31</ele><time>2026-08-13T17:47:31.000Z</time></trkpt>
        <trkpt lat="28.2272083" lon="105.730505"><ele>1097.37</ele><time>2026-08-13T17:47:43.000Z</time></trkpt>
        <trkpt lat="28.2271532" lon="105.7304273"><ele>1094.96</ele><time>2026-08-13T17:47:53.000Z</time></trkpt>
        <trkpt lat="28.2270657" lon="105.7303825"><ele>1092.43</ele><time>2026-08-13T17:48:05.000Z</time></trkpt>
        <trkpt lat="28.2269694" lon="105.7303622"><ele>1090.63</ele><time>2026-08-13T17:48:13.000Z</time></trkpt>
        <trkpt lat="28.2268584" lon="105.7303833"><ele>1089.26</ele><time>2026-08-13T17:48:23.000Z</time></trkpt>
        <trkpt lat="28.2267496" lon="105.7303752"><ele>1091.12</ele><time>2026-08-13T17:48:31.000Z</time></trkpt>
        <trkpt lat="28.2266902" lon="105.730403"><ele>1093.78</ele><time>2026-08-13T17:49:03.000Z</time></trkpt>
        <trkpt lat="28.2267168" lon="105.7303434"><ele>1093.46</ele><time>2026-08-13T17:49:19.000Z</time></trkpt>
        <trkpt lat="28.2267659" lon="105.7302479"><ele>1093.29</ele><time>2026-08-13T17:49:27.000Z</time></trkpt>
        <trkpt lat="28.2268172" lon="105.7301439"><ele>1093.61</ele><time>2026-08-13T17:49:33.000Z</time></trkpt>
        <trkpt lat="28.2268673" lon="105.7300315"><ele>1096.18</ele><time>2026-08-13T17:49:39.000Z</time></trkpt>
        <trkpt lat="28.2269204" lon="105.7299232"><ele>1097.85</ele><time>2026-08-13T17:49:47.000Z</time></trkpt>
        <trkpt lat="28.2269364" lon="105.7297989"><ele>1098.63</ele><time>2026-08-13T17:49:59.000Z</time></trkpt>
        <trkpt lat="28.2269356" lon="105.7296815"><ele>1100.35</ele><time>2026-08-13T17:50:09.000Z</time></trkpt>
        <trkpt lat="28.2269511" lon="105.7295707"><ele>1101.59</ele><time>2026-08-13T17:50:17.000Z</time></trkpt>
        <trkpt lat="28.226973" lon="105.729444"><ele>1102.82</ele><time>2026-08-13T17:50:27.000Z</time></trkpt>
        <trkpt lat="28.2270075" lon="105.7293221"><ele>1103.73</ele><time>2026-08-13T17:50:37.000Z</time></trkpt>
        <trkpt lat="28.2270417" lon="105.7292098"><ele>1103.5</ele><time>2026-08-13T17:50:53.000Z</time></trkpt>
        <trkpt lat="28.2270798" lon="105.7290896"><ele>1100.57</ele><time>2026-08-13T17:51:01.000Z</time></trkpt>
        <trkpt lat="28.2271259" lon="105.7289732"><ele>1099.49</ele><time>2026-08-13T17:51:07.000Z</time></trkpt>
        <trkpt lat="28.2271666" lon="105.7288573"><ele>1098.36</ele><time>2026-08-13T17:51:15.000Z</time></trkpt>
        <trkpt lat="28.2271994" lon="105.7287541"><ele>1097.07</ele><time>2026-08-13T17:51:23.000Z</time></trkpt>
        <trkpt lat="28.2272295" lon="105.7286526"><ele>1096.06</ele><time>2026-08-13T17:51:31.000Z</time></trkpt>
        <trkpt lat="28.227259" lon="105.7285527"><ele>1095.42</ele><time>2026-08-13T17:51:39.000Z</time></trkpt>
        <trkpt lat="28.2272852" lon="105.7284466"><ele>1094.06</ele><time>2026-08-13T17:51:47.000Z</time></trkpt>
        <trkpt lat="28.2273068" lon="105.7284582"><ele>1092.79</ele><time>2026-08-13T17:51:57.000Z</time></trkpt>
        <trkpt lat="28.2273758" lon="105.7285313"><ele>1093.25</ele><time>2026-08-13T17:52:27.000Z</time></trkpt>
        <trkpt lat="28.2274087" lon="105.7286543"><ele>1092.71</ele><time>2026-08-13T17:52:35.000Z</time></trkpt>
        <trkpt lat="28.2274339" lon="105.7287781"><ele>1091.38</ele><time>2026-08-13T17:52:43.000Z</time></trkpt>
        <trkpt lat="28.2275103" lon="105.7288254"><ele>1091.86</ele><time>2026-08-13T17:52:51.000Z</time></trkpt>
        <trkpt lat="28.2276056" lon="105.7288435"><ele>1091.63</ele><time>2026-08-13T17:52:59.000Z</time></trkpt>
        <trkpt lat="28.2276919" lon="105.7288957"><ele>1091.73</ele><time>2026-08-13T17:53:11.000Z</time></trkpt>
        <trkpt lat="28.2277333" lon="105.7289842"><ele>1091.35</ele><time>2026-08-13T17:53:19.000Z</time></trkpt>
        <trkpt lat="28.2277353" lon="105.7290919"><ele>1091.93</ele><time>2026-08-13T17:53:27.000Z</time></trkpt>
        <trkpt lat="28.2277214" lon="105.7292093"><ele>1093.29</ele><time>2026-08-13T17:53:37.000Z</time></trkpt>
        <trkpt lat="28.2277062" lon="105.7293198"><ele>1095.06</ele><time>2026-08-13T17:53:51.000Z</time></trkpt>
        <trkpt lat="28.2276988" lon="105.72943"><ele>1097.09</ele><time>2026-08-13T17:54:05.000Z</time></trkpt>
        <trkpt lat="28.2276852" lon="105.7295382"><ele>1098.95</ele><time>2026-08-13T17:54:15.000Z</time></trkpt>
        <trkpt lat="28.2276835" lon="105.7296481"><ele>1100.41</ele><time>2026-08-13T17:54:27.000Z</time></trkpt>
        <trkpt lat="28.2276987" lon="105.7297569"><ele>1101.61</ele><time>2026-08-13T17:54:39.000Z</time></trkpt>
        <trkpt lat="28.2277808" lon="105.7297763"><ele>1103.18</ele><time>2026-08-13T17:55:09.000Z</time></trkpt>
        <trkpt lat="28.2278832" lon="105.7298018"><ele>1102.26</ele><time>2026-08-13T17:55:41.000Z</time></trkpt>
        <trkpt lat="28.227988" lon="105.7298011"><ele>1103.11</ele><time>2026-08-13T17:56:35.000Z</time></trkpt>
        <trkpt lat="28.2280706" lon="105.7297464"><ele>1107.8</ele><time>2026-08-13T17:56:55.000Z</time></trkpt>
        <trkpt lat="28.228152" lon="105.7297576"><ele>1112.45</ele><time>2026-08-13T17:57:11.000Z</time></trkpt>
        <trkpt lat="28.2282414" lon="105.7297678"><ele>1116.27</ele><time>2026-08-13T17:57:55.000Z</time></trkpt>
        <trkpt lat="28.2282911" lon="105.7297009"><ele>1120.71</ele><time>2026-08-13T17:58:41.000Z</time></trkpt>
        <trkpt lat="28.2283226" lon="105.7296037"><ele>1127.71</ele><time>2026-08-13T17:59:07.000Z</time></trkpt>
        <trkpt lat="28.2283454" lon="105.7294976"><ele>1132.57</ele><time>2026-08-13T17:59:33.000Z</time></trkpt>
        <trkpt lat="28.2284204" lon="105.7294475"><ele>1136.97</ele><time>2026-08-13T18:00:39.000Z</time></trkpt>
        <trkpt lat="28.22849" lon="105.7293791"><ele>1143.42</ele><time>2026-08-13T18:02:09.000Z</time></trkpt>
        <trkpt lat="28.2285801" lon="105.7293716"><ele>1150.08</ele><time>2026-08-13T18:04:35.000Z</time></trkpt>
        <trkpt lat="28.228631" lon="105.7294632"><ele>1156.92</ele><time>2026-08-13T18:05:53.000Z</time></trkpt>
        <trkpt lat="28.2287206" lon="105.7294724"><ele>1163.28</ele><time>2026-08-13T18:07:01.000Z</time></trkpt>
        <trkpt lat="28.2288034" lon="105.729427"><ele>1168.63</ele><time>2026-08-13T18:07:29.000Z</time></trkpt>
        <trkpt lat="28.2289047" lon="105.7294674"><ele>1173.43</ele><time>2026-08-13T18:10:25.000Z</time></trkpt>
        <trkpt lat="28.2289768" lon="105.7295461"><ele>1179.2</ele><time>2026-08-13T18:10:37.000Z</time></trkpt>
        <trkpt lat="28.2290533" lon="105.7296241"><ele>1182.35</ele><time>2026-08-13T18:10:51.000Z</time></trkpt>
        <trkpt lat="28.2291337" lon="105.7296909"><ele>1185.61</ele><time>2026-08-13T18:11:19.000Z</time></trkpt>
        <trkpt lat="28.2292278" lon="105.7296714"><ele>1188.27</ele><time>2026-08-13T18:12:05.000Z</time></trkpt>
        <trkpt lat="28.2293273" lon="105.7296097"><ele>1189.84</ele><time>2026-08-13T18:13:19.000Z</time></trkpt>
        <trkpt lat="28.2293991" lon="105.729541"><ele>1191.04</ele><time>2026-08-13T18:14:51.000Z</time></trkpt>
        <trkpt lat="28.229435" lon="105.7294355"><ele>1192.22</ele><time>2026-08-13T18:15:07.000Z</time></trkpt>
        <trkpt lat="28.2294506" lon="105.7293276"><ele>1192.17</ele><time>2026-08-13T18:15:25.000Z</time></trkpt>
        <trkpt lat="28.2295249" lon="105.7293135"><ele>1189.63</ele><time>2026-08-13T18:15:57.000Z</time></trkpt>
        <trkpt lat="28.2296186" lon="105.7293326"><ele>1186.64</ele><time>2026-08-13T18:16:19.000Z</time></trkpt>
        <trkpt lat="28.2297122" lon="105.7293167"><ele>1184.19</ele><time>2026-08-13T18:16:41.000Z</time></trkpt>
        <trkpt lat="28.2298092" lon="105.7292893"><ele>1183.15</ele><time>2026-08-13T18:16:59.000Z</time></trkpt>
        <trkpt lat="28.2299018" lon="105.7292421"><ele>1181.76</ele><time>2026-08-13T18:17:17.000Z</time></trkpt>
        <trkpt lat="28.2300011" lon="105.7292081"><ele>1181.39</ele><time>2026-08-13T18:17:37.000Z</time></trkpt>
        <trkpt lat="28.2300988" lon="105.7291959"><ele>1179.97</ele><time>2026-08-13T18:17:47.000Z</time></trkpt>
        <trkpt lat="28.2301919" lon="105.7292061"><ele>1179.29</ele><time>2026-08-13T18:18:31.000Z</time></trkpt>
        <trkpt lat="28.2302767" lon="105.7291753"><ele>1177.76</ele><time>2026-08-13T18:18:49.000Z</time></trkpt>
        <trkpt lat="28.2303605" lon="105.7292098"><ele>1173.8</ele><time>2026-08-13T18:19:37.000Z</time></trkpt>
        <trkpt lat="28.2304429" lon="105.7291869"><ele>1172.19</ele><time>2026-08-13T18:20:09.000Z</time></trkpt>
        <trkpt lat="28.2305353" lon="105.7291511"><ele>1170.78</ele><time>2026-08-13T18:20:47.000Z</time></trkpt>
        <trkpt lat="28.2306298" lon="105.7291335"><ele>1165.63</ele><time>2026-08-13T18:20:53.000Z</time></trkpt>
        <trkpt lat="28.2306506" lon="105.7291388"><ele>1162.45</ele><time>2026-08-13T18:21:01.000Z</time></trkpt>
        <trkpt lat="28.2307184" lon="105.7291182"><ele>1158.65</ele><time>2026-08-13T18:23:33.000Z</time></trkpt>
        <trkpt lat="28.2308241" lon="105.7290967"><ele>1151.03</ele><time>2026-08-13T18:23:49.000Z</time></trkpt>
        <trkpt lat="28.2309208" lon="105.7290794"><ele>1143.79</ele><time>2026-08-13T18:24:01.000Z</time></trkpt>
        <trkpt lat="28.2309674" lon="105.7290886"><ele>1138</ele><time>2026-08-13T18:24:07.000Z</time></trkpt>
        <trkpt lat="28.2310413" lon="105.7290831"><ele>1134.1</ele><time>2026-08-13T18:24:19.000Z</time></trkpt>
        <trkpt lat="28.2311273" lon="105.7290539"><ele>1129.9</ele><time>2026-08-13T18:25:01.000Z</time></trkpt>
        <trkpt lat="28.2312226" lon="105.7289976"><ele>1126.53</ele><time>2026-08-13T18:25:07.000Z</time></trkpt>
        <trkpt lat="28.2313141" lon="105.72894"><ele>1123.63</ele><time>2026-08-13T18:25:17.000Z</time></trkpt>
        <trkpt lat="28.2314007" lon="105.7288813"><ele>1121.35</ele><time>2026-08-13T18:25:35.000Z</time></trkpt>
        <trkpt lat="28.2314939" lon="105.7288388"><ele>1118.91</ele><time>2026-08-13T18:25:45.000Z</time></trkpt>
        <trkpt lat="28.2315743" lon="105.7287846"><ele>1117</ele><time>2026-08-13T18:26:11.000Z</time></trkpt>
        <trkpt lat="28.2316566" lon="105.7287609"><ele>1113.93</ele><time>2026-08-13T18:26:21.000Z</time></trkpt>
        <trkpt lat="28.2317321" lon="105.7287028"><ele>1112.25</ele><time>2026-08-13T18:26:35.000Z</time></trkpt>
        <trkpt lat="28.2317508" lon="105.7286784"><ele>1110.38</ele><time>2026-08-13T18:26:37.000Z</time></trkpt>
        <trkpt lat="28.231779" lon="105.7285978"><ele>1109.38</ele><time>2026-08-13T18:26:47.000Z</time></trkpt>
        <trkpt lat="28.2318269" lon="105.7285045"><ele>1108.5</ele><time>2026-08-13T18:26:53.000Z</time></trkpt>
        <trkpt lat="28.2319063" lon="105.7284161"><ele>1107.84</ele><time>2026-08-13T18:27:01.000Z</time></trkpt>
        <trkpt lat="28.2320036" lon="105.7283743"><ele>1104.85</ele><time>2026-08-13T18:27:11.000Z</time></trkpt>
        <trkpt lat="28.2321157" lon="105.7283761"><ele>1104.07</ele><time>2026-08-13T18:27:19.000Z</time></trkpt>
        <trkpt lat="28.2322202" lon="105.7283794"><ele>1103.67</ele><time>2026-08-13T18:27:29.000Z</time></trkpt>
        <trkpt lat="28.2323288" lon="105.7283808"><ele>1104.28</ele><time>2026-08-13T18:27:37.000Z</time></trkpt>
        <trkpt lat="28.2324434" lon="105.7283842"><ele>1104.66</ele><time>2026-08-13T18:27:45.000Z</time></trkpt>
        <trkpt lat="28.232548" lon="105.7283772"><ele>1105.09</ele><time>2026-08-13T18:27:53.000Z</time></trkpt>
        <trkpt lat="28.2326424" lon="105.7283442"><ele>1105.53</ele><time>2026-08-13T18:28:03.000Z</time></trkpt>
        <trkpt lat="28.2326934" lon="105.7283214"><ele>1105.57</ele><time>2026-08-13T18:28:11.000Z</time></trkpt>
        <trkpt lat="28.2327749" lon="105.728291"><ele>1102.94</ele><time>2026-08-13T18:28:29.000Z</time></trkpt>
        <trkpt lat="28.2328378" lon="105.7282656"><ele>1101.78</ele><time>2026-08-13T18:28:35.000Z</time></trkpt>
        <trkpt lat="28.232921" lon="105.7282532"><ele>1101.23</ele><time>2026-08-13T18:29:13.000Z</time></trkpt>
        <trkpt lat="28.2330069" lon="105.7282141"><ele>1100.37</ele><time>2026-08-13T18:29:21.000Z</time></trkpt>
        <trkpt lat="28.2330999" lon="105.7281883"><ele>1099.36</ele><time>2026-08-13T18:29:29.000Z</time></trkpt>
        <trkpt lat="28.2332191" lon="105.7281544"><ele>1098.9</ele><time>2026-08-13T18:29:37.000Z</time></trkpt>
        <trkpt lat="28.233293" lon="105.7281402"><ele>1100.11</ele><time>2026-08-13T18:29:45.000Z</time></trkpt>
        <trkpt lat="28.2333756" lon="105.7281097"><ele>1099.45</ele><time>2026-08-13T18:30:09.000Z</time></trkpt>
        <trkpt lat="28.2334599" lon="105.7280632"><ele>1097.34</ele><time>2026-08-13T18:30:15.000Z</time></trkpt>
        <trkpt lat="28.2335565" lon="105.7280353"><ele>1095.94</ele><time>2026-08-13T18:30:21.000Z</time></trkpt>
        <trkpt lat="28.2336576" lon="105.7280047"><ele>1096.17</ele><time>2026-08-13T18:30:29.000Z</time></trkpt>
        <trkpt lat="28.2337573" lon="105.7279787"><ele>1096.49</ele><time>2026-08-13T18:30:37.000Z</time></trkpt>
        <trkpt lat="28.2338611" lon="105.727955"><ele>1097.12</ele><time>2026-08-13T18:30:45.000Z</time></trkpt>
        <trkpt lat="28.2339581" lon="105.7279233"><ele>1097.99</ele><time>2026-08-13T18:30:53.000Z</time></trkpt>
        <trkpt lat="28.2340411" lon="105.7278686"><ele>1098.35</ele><time>2026-08-13T18:31:01.000Z</time></trkpt>
        <trkpt lat="28.2341311" lon="105.7278317"><ele>1097.75</ele><time>2026-08-13T18:31:09.000Z</time></trkpt>
        <trkpt lat="28.2342274" lon="105.7278096"><ele>1097.19</ele><time>2026-08-13T18:31:17.000Z</time></trkpt>
        <trkpt lat="28.2343378" lon="105.7278013"><ele>1097.25</ele><time>2026-08-13T18:31:25.000Z</time></trkpt>
        <trkpt lat="28.2344365" lon="105.7277649"><ele>1097.53</ele><time>2026-08-13T18:31:33.000Z</time></trkpt>
        <trkpt lat="28.2345249" lon="105.727726"><ele>1097.92</ele><time>2026-08-13T18:31:39.000Z</time></trkpt>
        <trkpt lat="28.2346265" lon="105.7276763"><ele>1097.61</ele><time>2026-08-13T18:31:47.000Z</time></trkpt>
        <trkpt lat="28.2347144" lon="105.7276143"><ele>1096.24</ele><time>2026-08-13T18:31:55.000Z</time></trkpt>
        <trkpt lat="28.2348076" lon="105.7276029"><ele>1094.62</ele><time>2026-08-13T18:32:01.000Z</time></trkpt>
        <trkpt lat="28.2348982" lon="105.7275936"><ele>1094.16</ele><time>2026-08-13T18:32:07.000Z</time></trkpt>
        <trkpt lat="28.2350091" lon="105.7275975"><ele>1094.32</ele><time>2026-08-13T18:32:15.000Z</time></trkpt>
        <trkpt lat="28.2351084" lon="105.7275498"><ele>1094.2</ele><time>2026-08-13T18:32:25.000Z</time></trkpt>
        <trkpt lat="28.2352173" lon="105.727526"><ele>1093.06</ele><time>2026-08-13T18:32:35.000Z</time></trkpt>
        <trkpt lat="28.2352929" lon="105.727439"><ele>1091.09</ele><time>2026-08-13T18:32:45.000Z</time></trkpt>
        <trkpt lat="28.2353442" lon="105.7273412"><ele>1088.85</ele><time>2026-08-13T18:32:53.000Z</time></trkpt>
        <trkpt lat="28.2353945" lon="105.7272485"><ele>1087.05</ele><time>2026-08-13T18:33:01.000Z</time></trkpt>
        <trkpt lat="28.2354656" lon="105.7271738"><ele>1085.73</ele><time>2026-08-13T18:33:09.000Z</time></trkpt>
        <trkpt lat="28.2355393" lon="105.7271003"><ele>1084.09</ele><time>2026-08-13T18:33:15.000Z</time></trkpt>
        <trkpt lat="28.2356263" lon="105.7270443"><ele>1082.68</ele><time>2026-08-13T18:33:23.000Z</time></trkpt>
        <trkpt lat="28.2357351" lon="105.7270068"><ele>1081.54</ele><time>2026-08-13T18:33:31.000Z</time></trkpt>
        <trkpt lat="28.2357734" lon="105.727003"><ele>1081.05</ele><time>2026-08-13T18:33:35.000Z</time></trkpt>
        <trkpt lat="28.2358416" lon="105.7269609"><ele>1079.43</ele><time>2026-08-13T18:33:55.000Z</time></trkpt>
        <trkpt lat="28.2359319" lon="105.7269134"><ele>1078.23</ele><time>2026-08-13T18:34:03.000Z</time></trkpt>
        <trkpt lat="28.2360181" lon="105.7268622"><ele>1078.46</ele><time>2026-08-13T18:34:09.000Z</time></trkpt>
        <trkpt lat="28.2360938" lon="105.7267952"><ele>1078.16</ele><time>2026-08-13T18:34:15.000Z</time></trkpt>
        <trkpt lat="28.2361851" lon="105.7267217"><ele>1077.98</ele><time>2026-08-13T18:34:23.000Z</time></trkpt>
        <trkpt lat="28.2362901" lon="105.7266882"><ele>1077.75</ele><time>2026-08-13T18:34:31.000Z</time></trkpt>
        <trkpt lat="28.236388" lon="105.7266662"><ele>1078.34</ele><time>2026-08-13T18:34:39.000Z</time></trkpt>
        <trkpt lat="28.2364832" lon="105.7266477"><ele>1079.14</ele><time>2026-08-13T18:34:47.000Z</time></trkpt>
        <trkpt lat="28.2365891" lon="105.7266096"><ele>1080.46</ele><time>2026-08-13T18:34:55.000Z</time></trkpt>
        <trkpt lat="28.2366939" lon="105.7265463"><ele>1081.41</ele><time>2026-08-13T18:35:05.000Z</time></trkpt>
        <trkpt lat="28.2367556" lon="105.7264614"><ele>1082.12</ele><time>2026-08-13T18:35:11.000Z</time></trkpt>
        <trkpt lat="28.2368175" lon="105.7263584"><ele>1081.9</ele><time>2026-08-13T18:35:19.000Z</time></trkpt>
        <trkpt lat="28.2368763" lon="105.7262659"><ele>1080.42</ele><time>2026-08-13T18:35:27.000Z</time></trkpt>
        <trkpt lat="28.236926" lon="105.7261707"><ele>1079.27</ele><time>2026-08-13T18:35:35.000Z</time></trkpt>
        <trkpt lat="28.2369741" lon="105.7260623"><ele>1078.33</ele><time>2026-08-13T18:35:43.000Z</time></trkpt>
        <trkpt lat="28.2369967" lon="105.7259398"><ele>1077.23</ele><time>2026-08-13T18:35:53.000Z</time></trkpt>
        <trkpt lat="28.2370204" lon="105.7258159"><ele>1076.91</ele><time>2026-08-13T18:36:01.000Z</time></trkpt>
        <trkpt lat="28.2370756" lon="105.7257116"><ele>1076.79</ele><time>2026-08-13T18:36:09.000Z</time></trkpt>
        <trkpt lat="28.2371483" lon="105.7256169"><ele>1076.76</ele><time>2026-08-13T18:36:17.000Z</time></trkpt>
        <trkpt lat="28.2372124" lon="105.7255293"><ele>1076.26</ele><time>2026-08-13T18:36:23.000Z</time></trkpt>
        <trkpt lat="28.2372933" lon="105.7254468"><ele>1075.83</ele><time>2026-08-13T18:36:33.000Z</time></trkpt>
        <trkpt lat="28.2373872" lon="105.7253719"><ele>1074.93</ele><time>2026-08-13T18:36:41.000Z</time></trkpt>
        <trkpt lat="28.2374775" lon="105.7252911"><ele>1073.67</ele><time>2026-08-13T18:36:51.000Z</time></trkpt>
        <trkpt lat="28.2375591" lon="105.7252135"><ele>1071.52</ele><time>2026-08-13T18:36:59.000Z</time></trkpt>
        <trkpt lat="28.2376524" lon="105.7251404"><ele>1070.75</ele><time>2026-08-13T18:37:07.000Z</time></trkpt>
        <trkpt lat="28.2377607" lon="105.7250723"><ele>1070.14</ele><time>2026-08-13T18:37:19.000Z</time></trkpt>
        <trkpt lat="28.2378716" lon="105.7250118"><ele>1069.39</ele><time>2026-08-13T18:37:27.000Z</time></trkpt>
        <trkpt lat="28.2379898" lon="105.7249768"><ele>1069</ele><time>2026-08-13T18:37:35.000Z</time></trkpt>
        <trkpt lat="28.2380883" lon="105.7249337"><ele>1068.26</ele><time>2026-08-13T18:37:47.000Z</time></trkpt>
        <trkpt lat="28.2381711" lon="105.724883"><ele>1065.98</ele><time>2026-08-13T18:37:55.000Z</time></trkpt>
        <trkpt lat="28.2382433" lon="105.7248219"><ele>1066.62</ele><time>2026-08-13T18:38:07.000Z</time></trkpt>
        <trkpt lat="28.2383096" lon="105.7247253"><ele>1064.99</ele><time>2026-08-13T18:38:15.000Z</time></trkpt>
        <trkpt lat="28.2383797" lon="105.7246455"><ele>1064.12</ele><time>2026-08-13T18:38:23.000Z</time></trkpt>
        <trkpt lat="28.2384607" lon="105.7245684"><ele>1062.86</ele><time>2026-08-13T18:38:31.000Z</time></trkpt>
        <trkpt lat="28.238544" lon="105.7244954"><ele>1062.1</ele><time>2026-08-13T18:38:39.000Z</time></trkpt>
        <trkpt lat="28.2385955" lon="105.7244403"><ele>1062.03</ele><time>2026-08-13T18:38:47.000Z</time></trkpt>
        <trkpt lat="28.2386733" lon="105.7243798"><ele>1060.13</ele><time>2026-08-13T18:39:07.000Z</time></trkpt>
        <trkpt lat="28.2387557" lon="105.7242915"><ele>1058.64</ele><time>2026-08-13T18:39:17.000Z</time></trkpt>
        <trkpt lat="28.2388412" lon="105.7242153"><ele>1058.17</ele><time>2026-08-13T18:39:25.000Z</time></trkpt>
        <trkpt lat="28.2389141" lon="105.7241433"><ele>1057.68</ele><time>2026-08-13T18:39:31.000Z</time></trkpt>
        <trkpt lat="28.2389952" lon="105.7240767"><ele>1057.96</ele><time>2026-08-13T18:39:39.000Z</time></trkpt>
        <trkpt lat="28.239069" lon="105.7239945"><ele>1058.7</ele><time>2026-08-13T18:39:49.000Z</time></trkpt>
        <trkpt lat="28.2391621" lon="105.7238895"><ele>1059.5</ele><time>2026-08-13T18:40:05.000Z</time></trkpt>
        <trkpt lat="28.2392533" lon="105.723802"><ele>1057.98</ele><time>2026-08-13T18:40:11.000Z</time></trkpt>
        <trkpt lat="28.2393326" lon="105.7237102"><ele>1057.65</ele><time>2026-08-13T18:40:19.000Z</time></trkpt>
        <trkpt lat="28.239389" lon="105.7236093"><ele>1057.67</ele><time>2026-08-13T18:40:27.000Z</time></trkpt>
        <trkpt lat="28.2394322" lon="105.723513"><ele>1056.74</ele><time>2026-08-13T18:40:33.000Z</time></trkpt>
        <trkpt lat="28.2394906" lon="105.7234159"><ele>1056.1</ele><time>2026-08-13T18:40:41.000Z</time></trkpt>
        <trkpt lat="28.239547" lon="105.7233183"><ele>1055.83</ele><time>2026-08-13T18:40:49.000Z</time></trkpt>
        <trkpt lat="28.2395998" lon="105.7232063"><ele>1055.13</ele><time>2026-08-13T18:40:57.000Z</time></trkpt>
        <trkpt lat="28.2396504" lon="105.723094"><ele>1054.73</ele><time>2026-08-13T18:41:05.000Z</time></trkpt>
        <trkpt lat="28.2397202" lon="105.7230004"><ele>1054.35</ele><time>2026-08-13T18:41:13.000Z</time></trkpt>
        <trkpt lat="28.2397957" lon="105.7229042"><ele>1054.15</ele><time>2026-08-13T18:41:21.000Z</time></trkpt>
        <trkpt lat="28.2398516" lon="105.722811"><ele>1053.9</ele><time>2026-08-13T18:41:29.000Z</time></trkpt>
        <trkpt lat="28.2398678" lon="105.7226945"><ele>1053.2</ele><time>2026-08-13T18:41:39.000Z</time></trkpt>
        <trkpt lat="28.2398956" lon="105.7225884"><ele>1052.42</ele><time>2026-08-13T18:41:47.000Z</time></trkpt>
        <trkpt lat="28.2399263" lon="105.7224887"><ele>1052.33</ele><time>2026-08-13T18:41:55.000Z</time></trkpt>
        <trkpt lat="28.2399706" lon="105.7223861"><ele>1052.6</ele><time>2026-08-13T18:42:01.000Z</time></trkpt>
        <trkpt lat="28.2400147" lon="105.7222886"><ele>1052.72</ele><time>2026-08-13T18:42:07.000Z</time></trkpt>
        <trkpt lat="28.2400661" lon="105.7221956"><ele>1053.22</ele><time>2026-08-13T18:42:15.000Z</time></trkpt>
        <trkpt lat="28.2401033" lon="105.722077"><ele>1053.88</ele><time>2026-08-13T18:42:23.000Z</time></trkpt>
        <trkpt lat="28.2401357" lon="105.7220323"><ele>1053.94</ele><time>2026-08-13T18:42:29.000Z</time></trkpt>
        <trkpt lat="28.240159" lon="105.7219397"><ele>1055.17</ele><time>2026-08-13T18:42:47.000Z</time></trkpt>
        <trkpt lat="28.2402068" lon="105.7218519"><ele>1056.16</ele><time>2026-08-13T18:42:55.000Z</time></trkpt>
        <trkpt lat="28.2402937" lon="105.7217866"><ele>1056.97</ele><time>2026-08-13T18:43:03.000Z</time></trkpt>
        <trkpt lat="28.2403724" lon="105.7216976"><ele>1058.12</ele><time>2026-08-13T18:43:07.000Z</time></trkpt>
        <trkpt lat="28.2404502" lon="105.7216243"><ele>1058.63</ele><time>2026-08-13T18:43:11.000Z</time></trkpt>
        <trkpt lat="28.2405279" lon="105.7215369"><ele>1056.99</ele><time>2026-08-13T18:43:21.000Z</time></trkpt>
        <trkpt lat="28.2405952" lon="105.7214507"><ele>1055.4</ele><time>2026-08-13T18:43:29.000Z</time></trkpt>
        <trkpt lat="28.2406673" lon="105.7213756"><ele>1054.64</ele><time>2026-08-13T18:43:35.000Z</time></trkpt>
        <trkpt lat="28.2407451" lon="105.7212808"><ele>1054.74</ele><time>2026-08-13T18:43:43.000Z</time></trkpt>
        <trkpt lat="28.2408167" lon="105.721201"><ele>1054.48</ele><time>2026-08-13T18:43:49.000Z</time></trkpt>
        <trkpt lat="28.2409018" lon="105.7211304"><ele>1054.78</ele><time>2026-08-13T18:43:57.000Z</time></trkpt>
        <trkpt lat="28.2409822" lon="105.7210401"><ele>1055.06</ele><time>2026-08-13T18:44:07.000Z</time></trkpt>
        <trkpt lat="28.2410424" lon="105.720943"><ele>1054.55</ele><time>2026-08-13T18:44:15.000Z</time></trkpt>
        <trkpt lat="28.2410948" lon="105.7208374"><ele>1054.34</ele><time>2026-08-13T18:44:25.000Z</time></trkpt>
        <trkpt lat="28.2411512" lon="105.7207371"><ele>1053.9</ele><time>2026-08-13T18:44:33.000Z</time></trkpt>
        <trkpt lat="28.2412073" lon="105.7206219"><ele>1053.48</ele><time>2026-08-13T18:44:43.000Z</time></trkpt>
        <trkpt lat="28.2412517" lon="105.7205032"><ele>1052.28</ele><time>2026-08-13T18:44:51.000Z</time></trkpt>
        <trkpt lat="28.2413055" lon="105.7204046"><ele>1050.99</ele><time>2026-08-13T18:44:59.000Z</time></trkpt>
        <trkpt lat="28.2413752" lon="105.7203245"><ele>1049.98</ele><time>2026-08-13T18:45:05.000Z</time></trkpt>
        <trkpt lat="28.2414166" lon="105.7203022"><ele>1049.23</ele><time>2026-08-13T18:45:17.000Z</time></trkpt>
        <trkpt lat="28.2414021" lon="105.7203818"><ele>1046.01</ele><time>2026-08-13T18:45:21.000Z</time></trkpt>
        <trkpt lat="28.2414895" lon="105.7204028"><ele>1044.31</ele><time>2026-08-13T18:46:45.000Z</time></trkpt>
        <trkpt lat="28.2415798" lon="105.7203583"><ele>1044.39</ele><time>2026-08-13T18:46:55.000Z</time></trkpt>
        <trkpt lat="28.2416362" lon="105.7202677"><ele>1044.24</ele><time>2026-08-13T18:47:01.000Z</time></trkpt>
        <trkpt lat="28.2416891" lon="105.7201648"><ele>1044.93</ele><time>2026-08-13T18:47:09.000Z</time></trkpt>
        <trkpt lat="28.2417234" lon="105.7200613"><ele>1046.15</ele><time>2026-08-13T18:47:15.000Z</time></trkpt>
        <trkpt lat="28.2417398" lon="105.7199351"><ele>1047.56</ele><time>2026-08-13T18:47:21.000Z</time></trkpt>
        <trkpt lat="28.241762" lon="105.7198253"><ele>1048.27</ele><time>2026-08-13T18:47:29.000Z</time></trkpt>
        <trkpt lat="28.2418059" lon="105.719732"><ele>1049.32</ele><time>2026-08-13T18:47:35.000Z</time></trkpt>
        <trkpt lat="28.2418696" lon="105.7196354"><ele>1048.94</ele><time>2026-08-13T18:47:43.000Z</time></trkpt>
        <trkpt lat="28.2419651" lon="105.7195768"><ele>1048.44</ele><time>2026-08-13T18:47:51.000Z</time></trkpt>
        <trkpt lat="28.242059" lon="105.7195161"><ele>1048.19</ele><time>2026-08-13T18:47:59.000Z</time></trkpt>
        <trkpt lat="28.2421273" lon="105.7194187"><ele>1047.37</ele><time>2026-08-13T18:48:09.000Z</time></trkpt>
        <trkpt lat="28.242166" lon="105.7193023"><ele>1046.67</ele><time>2026-08-13T18:48:17.000Z</time></trkpt>
        <trkpt lat="28.2422185" lon="105.719191"><ele>1045.37</ele><time>2026-08-13T18:48:25.000Z</time></trkpt>
        <trkpt lat="28.2422904" lon="105.7191243"><ele>1043.77</ele><time>2026-08-13T18:48:31.000Z</time></trkpt>
        <trkpt lat="28.2423715" lon="105.7190649"><ele>1042.97</ele><time>2026-08-13T18:48:39.000Z</time></trkpt>
        <trkpt lat="28.2424556" lon="105.7190001"><ele>1042.54</ele><time>2026-08-13T18:48:47.000Z</time></trkpt>
        <trkpt lat="28.2425333" lon="105.7189084"><ele>1042.33</ele><time>2026-08-13T18:48:55.000Z</time></trkpt>
        <trkpt lat="28.2425959" lon="105.7188053"><ele>1042.27</ele><time>2026-08-13T18:49:03.000Z</time></trkpt>
        <trkpt lat="28.2426434" lon="105.7186966"><ele>1041.97</ele><time>2026-08-13T18:49:11.000Z</time></trkpt>
        <trkpt lat="28.2427084" lon="105.7186006"><ele>1041.65</ele><time>2026-08-13T18:49:19.000Z</time></trkpt>
        <trkpt lat="28.2427787" lon="105.7185117"><ele>1041.2</ele><time>2026-08-13T18:49:27.000Z</time></trkpt>
        <trkpt lat="28.2428367" lon="105.718421"><ele>1040.64</ele><time>2026-08-13T18:49:33.000Z</time></trkpt>
        <trkpt lat="28.2428801" lon="105.718329"><ele>1040.74</ele><time>2026-08-13T18:49:39.000Z</time></trkpt>
        <trkpt lat="28.242945" lon="105.7182517"><ele>1041.34</ele><time>2026-08-13T18:49:47.000Z</time></trkpt>
        <trkpt lat="28.2430334" lon="105.7181919"><ele>1042.19</ele><time>2026-08-13T18:49:57.000Z</time></trkpt>
        <trkpt lat="28.2431172" lon="105.7181361"><ele>1041.94</ele><time>2026-08-13T18:50:09.000Z</time></trkpt>
        <trkpt lat="28.2431741" lon="105.7181201"><ele>1042.01</ele><time>2026-08-13T18:50:19.000Z</time></trkpt>
        <trkpt lat="28.2432499" lon="105.7180951"><ele>1040.66</ele><time>2026-08-13T18:50:49.000Z</time></trkpt>
        <trkpt lat="28.2433548" lon="105.7180649"><ele>1038.4</ele><time>2026-08-13T18:50:59.000Z</time></trkpt>
        <trkpt lat="28.2434628" lon="105.7180428"><ele>1036.66</ele><time>2026-08-13T18:51:07.000Z</time></trkpt>
        <trkpt lat="28.2435689" lon="105.7180216"><ele>1035.13</ele><time>2026-08-13T18:51:15.000Z</time></trkpt>
        <trkpt lat="28.2436621" lon="105.7179758"><ele>1033.68</ele><time>2026-08-13T18:51:21.000Z</time></trkpt>
        <trkpt lat="28.2437437" lon="105.7179233"><ele>1032.34</ele><time>2026-08-13T18:51:27.000Z</time></trkpt>
        <trkpt lat="28.2437898" lon="105.7178708"><ele>1031.37</ele><time>2026-08-13T18:51:37.000Z</time></trkpt>
        <trkpt lat="28.2438613" lon="105.7178132"><ele>1030.41</ele><time>2026-08-13T18:52:09.000Z</time></trkpt>
        <trkpt lat="28.2439645" lon="105.7178132"><ele>1030.13</ele><time>2026-08-13T18:52:17.000Z</time></trkpt>
        <trkpt lat="28.2440175" lon="105.7178282"><ele>1030.52</ele><time>2026-08-13T18:52:23.000Z</time></trkpt>
        <trkpt lat="28.2440878" lon="105.7178917"><ele>1030.73</ele><time>2026-08-13T18:52:35.000Z</time></trkpt>
        <trkpt lat="28.2441706" lon="105.7179435"><ele>1030.6</ele><time>2026-08-13T18:52:41.000Z</time></trkpt>
        <trkpt lat="28.2442627" lon="105.7179663"><ele>1030.24</ele><time>2026-08-13T18:52:47.000Z</time></trkpt>
        <trkpt lat="28.2443564" lon="105.7179416"><ele>1029.66</ele><time>2026-08-13T18:52:53.000Z</time></trkpt>
        <trkpt lat="28.2444646" lon="105.7179381"><ele>1029.82</ele><time>2026-08-13T18:52:59.000Z</time></trkpt>
        <trkpt lat="28.2445451" lon="105.717964"><ele>1029.79</ele><time>2026-08-13T18:53:09.000Z</time></trkpt>
        <trkpt lat="28.2446367" lon="105.7179807"><ele>1029.97</ele><time>2026-08-13T18:54:07.000Z</time></trkpt>
        <trkpt lat="28.2447209" lon="105.7179419"><ele>1029.47</ele><time>2026-08-13T18:55:11.000Z</time></trkpt>
        <trkpt lat="28.2447954" lon="105.7180142"><ele>1030.15</ele><time>2026-08-13T18:55:27.000Z</time></trkpt>
        <trkpt lat="28.2448212" lon="105.7181281"><ele>1030.17</ele><time>2026-08-13T18:55:33.000Z</time></trkpt>
        <trkpt lat="28.2448743" lon="105.7182371"><ele>1029.88</ele><time>2026-08-13T18:55:39.000Z</time></trkpt>
        <trkpt lat="28.244939" lon="105.718207"><ele>1032.15</ele><time>2026-08-13T18:55:49.000Z</time></trkpt>
        <trkpt lat="28.245036" lon="105.7182002"><ele>1032.64</ele><time>2026-08-13T18:56:03.000Z</time></trkpt>
        <trkpt lat="28.2450989" lon="105.7181186"><ele>1032.29</ele><time>2026-08-13T18:56:11.000Z</time></trkpt>
        <trkpt lat="28.2451715" lon="105.7180397"><ele>1031.85</ele><time>2026-08-13T18:56:19.000Z</time></trkpt>
        <trkpt lat="28.2452675" lon="105.7179802"><ele>1031.09</ele><time>2026-08-13T18:56:27.000Z</time></trkpt>
        <trkpt lat="28.2453018" lon="105.7179715"><ele>1030.76</ele><time>2026-08-13T18:56:35.000Z</time></trkpt>
        <trkpt lat="28.2453847" lon="105.717965"><ele>1030.17</ele><time>2026-08-13T18:57:09.000Z</time></trkpt>
        <trkpt lat="28.2454808" lon="105.7179481"><ele>1030.64</ele><time>2026-08-13T18:57:17.000Z</time></trkpt>
        <trkpt lat="28.2455795" lon="105.7178996"><ele>1030.16</ele><time>2026-08-13T18:57:25.000Z</time></trkpt>
        <trkpt lat="28.2456555" lon="105.7178222"><ele>1030.15</ele><time>2026-08-13T18:57:33.000Z</time></trkpt>
        <trkpt lat="28.2457113" lon="105.7177028"><ele>1030.09</ele><time>2026-08-13T18:57:47.000Z</time></trkpt>
        <trkpt lat="28.2457561" lon="105.7175908"><ele>1030.8</ele><time>2026-08-13T18:57:53.000Z</time></trkpt>
        <trkpt lat="28.2457943" lon="105.71747"><ele>1031.5</ele><time>2026-08-13T18:58:01.000Z</time></trkpt>
        <trkpt lat="28.2458047" lon="105.7173514"><ele>1032.52</ele><time>2026-08-13T18:58:09.000Z</time></trkpt>
        <trkpt lat="28.2458406" lon="105.7172311"><ele>1033.28</ele><time>2026-08-13T18:58:17.000Z</time></trkpt>
        <trkpt lat="28.2458652" lon="105.7171655"><ele>1033.83</ele><time>2026-08-13T18:58:25.000Z</time></trkpt>
        <trkpt lat="28.2459093" lon="105.7170872"><ele>1034.13</ele><time>2026-08-13T18:58:35.000Z</time></trkpt>
        <trkpt lat="28.2459693" lon="105.7170037"><ele>1034.31</ele><time>2026-08-13T18:58:41.000Z</time></trkpt>
        <trkpt lat="28.2460423" lon="105.7169239"><ele>1034.89</ele><time>2026-08-13T18:58:47.000Z</time></trkpt>
        <trkpt lat="28.2461054" lon="105.7168751"><ele>1035.38</ele><time>2026-08-13T18:59:03.000Z</time></trkpt>
        <trkpt lat="28.2461479" lon="105.7167932"><ele>1034.5</ele><time>2026-08-13T18:59:23.000Z</time></trkpt>
        <trkpt lat="28.246197" lon="105.716696"><ele>1033.11</ele><time>2026-08-13T18:59:29.000Z</time></trkpt>
        <trkpt lat="28.2462621" lon="105.7166068"><ele>1031.72</ele><time>2026-08-13T18:59:37.000Z</time></trkpt>
        <trkpt lat="28.2463275" lon="105.7165189"><ele>1030.7</ele><time>2026-08-13T18:59:43.000Z</time></trkpt>
        <trkpt lat="28.2463934" lon="105.7164294"><ele>1030.02</ele><time>2026-08-13T18:59:51.000Z</time></trkpt>
        <trkpt lat="28.246437" lon="105.7163336"><ele>1030.44</ele><time>2026-08-13T18:59:59.000Z</time></trkpt>
        <trkpt lat="28.2464975" lon="105.7162596"><ele>1031.13</ele><time>2026-08-13T19:00:05.000Z</time></trkpt>
        <trkpt lat="28.246571" lon="105.7161859"><ele>1031.24</ele><time>2026-08-13T19:00:11.000Z</time></trkpt>
        <trkpt lat="28.2466512" lon="105.716114"><ele>1030.98</ele><time>2026-08-13T19:00:19.000Z</time></trkpt>
        <trkpt lat="28.2467283" lon="105.716053"><ele>1031.81</ele><time>2026-08-13T19:00:25.000Z</time></trkpt>
        <trkpt lat="28.2467802" lon="105.7159901"><ele>1032.32</ele><time>2026-08-13T19:00:41.000Z</time></trkpt>
        <trkpt lat="28.2468533" lon="105.7159432"><ele>1031.48</ele><time>2026-08-13T19:00:51.000Z</time></trkpt>
        <trkpt lat="28.246942" lon="105.7158791"><ele>1031.01</ele><time>2026-08-13T19:00:59.000Z</time></trkpt>
        <trkpt lat="28.2470362" lon="105.7158353"><ele>1032.02</ele><time>2026-08-13T19:01:05.000Z</time></trkpt>
        <trkpt lat="28.2471298" lon="105.7158064"><ele>1032.61</ele><time>2026-08-13T19:01:11.000Z</time></trkpt>
        <trkpt lat="28.2472441" lon="105.7157743"><ele>1033.41</ele><time>2026-08-13T19:01:27.000Z</time></trkpt>
        <trkpt lat="28.2473501" lon="105.7157536"><ele>1034.48</ele><time>2026-08-13T19:01:33.000Z</time></trkpt>
        <trkpt lat="28.2474585" lon="105.715732"><ele>1035.16</ele><time>2026-08-13T19:01:41.000Z</time></trkpt>
        <trkpt lat="28.2475697" lon="105.715717"><ele>1035.13</ele><time>2026-08-13T19:01:49.000Z</time></trkpt>
        <trkpt lat="28.247685" lon="105.7157004"><ele>1035.23</ele><time>2026-08-13T19:01:57.000Z</time></trkpt>
        <trkpt lat="28.2478042" lon="105.7156692"><ele>1036.53</ele><time>2026-08-13T19:02:09.000Z</time></trkpt>
        <trkpt lat="28.2479028" lon="105.7156522"><ele>1038.05</ele><time>2026-08-13T19:02:15.000Z</time></trkpt>
        <trkpt lat="28.2479969" lon="105.7156228"><ele>1038.66</ele><time>2026-08-13T19:02:23.000Z</time></trkpt>
        <trkpt lat="28.2480992" lon="105.7156462"><ele>1039.28</ele><time>2026-08-13T19:02:31.000Z</time></trkpt>
        <trkpt lat="28.2481935" lon="105.7156558"><ele>1039.48</ele><time>2026-08-13T19:02:37.000Z</time></trkpt>
        <trkpt lat="28.2482882" lon="105.715662"><ele>1040.05</ele><time>2026-08-13T19:02:45.000Z</time></trkpt>
        <trkpt lat="28.2483808" lon="105.7157053"><ele>1040.38</ele><time>2026-08-13T19:02:53.000Z</time></trkpt>
        <trkpt lat="28.2484621" lon="105.7157771"><ele>1041.45</ele><time>2026-08-13T19:02:59.000Z</time></trkpt>
        <trkpt lat="28.2485211" lon="105.7158736"><ele>1043.16</ele><time>2026-08-13T19:03:09.000Z</time></trkpt>
        <trkpt lat="28.2485798" lon="105.7159708"><ele>1044.19</ele><time>2026-08-13T19:03:19.000Z</time></trkpt>
        <trkpt lat="28.2486011" lon="105.7160846"><ele>1045.19</ele><time>2026-08-13T19:03:31.000Z</time></trkpt>
        <trkpt lat="28.2485933" lon="105.7162028"><ele>1046.94</ele><time>2026-08-13T19:03:41.000Z</time></trkpt>
        <trkpt lat="28.2486066" lon="105.7163285"><ele>1047.04</ele><time>2026-08-13T19:03:51.000Z</time></trkpt>
        <trkpt lat="28.2486239" lon="105.7164398"><ele>1046.09</ele><time>2026-08-13T19:03:57.000Z</time></trkpt>
        <trkpt lat="28.2486411" lon="105.7165484"><ele>1045.79</ele><time>2026-08-13T19:04:05.000Z</time></trkpt>
        <trkpt lat="28.2486444" lon="105.7165723"><ele>1045.73</ele><time>2026-08-13T19:04:11.000Z</time></trkpt>
        <trkpt lat="28.2486395" lon="105.7166623"><ele>1041.67</ele><time>2026-08-13T19:04:23.000Z</time></trkpt>
        <trkpt lat="28.2486602" lon="105.7167662"><ele>1039.09</ele><time>2026-08-13T19:04:29.000Z</time></trkpt>
        <trkpt lat="28.248684" lon="105.7168843"><ele>1037.43</ele><time>2026-08-13T19:04:35.000Z</time></trkpt>
        <trkpt lat="28.2487067" lon="105.7169982"><ele>1039.96</ele><time>2026-08-13T19:04:43.000Z</time></trkpt>
        <trkpt lat="28.2487061" lon="105.7171183"><ele>1041.03</ele><time>2026-08-13T19:04:55.000Z</time></trkpt>
        <trkpt lat="28.2487519" lon="105.717211"><ele>1039.75</ele><time>2026-08-13T19:05:01.000Z</time></trkpt>
        <trkpt lat="28.248779" lon="105.7173134"><ele>1040.09</ele><time>2026-08-13T19:05:07.000Z</time></trkpt>
        <trkpt lat="28.2487852" lon="105.7174284"><ele>1039.52</ele><time>2026-08-13T19:05:15.000Z</time></trkpt>
        <trkpt lat="28.2487753" lon="105.7175572"><ele>1039.05</ele><time>2026-08-13T19:05:27.000Z</time></trkpt>
        <trkpt lat="28.2487964" lon="105.7176725"><ele>1037.49</ele><time>2026-08-13T19:05:35.000Z</time></trkpt>
        <trkpt lat="28.2488402" lon="105.7177807"><ele>1036.47</ele><time>2026-08-13T19:05:43.000Z</time></trkpt>
        <trkpt lat="28.2488628" lon="105.7179048"><ele>1035.89</ele><time>2026-08-13T19:05:51.000Z</time></trkpt>
        <trkpt lat="28.2488784" lon="105.7180302"><ele>1035.16</ele><time>2026-08-13T19:05:59.000Z</time></trkpt>
        <trkpt lat="28.2488852" lon="105.7181642"><ele>1034.36</ele><time>2026-08-13T19:06:07.000Z</time></trkpt>
        <trkpt lat="28.2489015" lon="105.7182909"><ele>1033.1</ele><time>2026-08-13T19:06:15.000Z</time></trkpt>
        <trkpt lat="28.2489253" lon="105.7184171"><ele>1031.98</ele><time>2026-08-13T19:06:23.000Z</time></trkpt>
        <trkpt lat="28.2489393" lon="105.7185333"><ele>1031.55</ele><time>2026-08-13T19:06:31.000Z</time></trkpt>
        <trkpt lat="28.2489652" lon="105.7186405"><ele>1031.44</ele><time>2026-08-13T19:06:39.000Z</time></trkpt>
        <trkpt lat="28.2489967" lon="105.7187424"><ele>1031.73</ele><time>2026-08-13T19:06:47.000Z</time></trkpt>
        <trkpt lat="28.2490433" lon="105.7188349"><ele>1032.14</ele><time>2026-08-13T19:06:53.000Z</time></trkpt>
        <trkpt lat="28.2491029" lon="105.7189362"><ele>1032.84</ele><time>2026-08-13T19:07:01.000Z</time></trkpt>
        <trkpt lat="28.2491205" lon="105.7189782"><ele>1033.86</ele><time>2026-08-13T19:07:11.000Z</time></trkpt>
        <trkpt lat="28.249149" lon="105.7190535"><ele>1034.69</ele><time>2026-08-13T19:07:29.000Z</time></trkpt>
        <trkpt lat="28.2491931" lon="105.7191557"><ele>1035.3</ele><time>2026-08-13T19:07:37.000Z</time></trkpt>
        <trkpt lat="28.2492311" lon="105.7192621"><ele>1035.62</ele><time>2026-08-13T19:07:45.000Z</time></trkpt>
        <trkpt lat="28.2492685" lon="105.7193772"><ele>1037.95</ele><time>2026-08-13T19:07:53.000Z</time></trkpt>
        <trkpt lat="28.2493008" lon="105.7194808"><ele>1039.13</ele><time>2026-08-13T19:08:05.000Z</time></trkpt>
        <trkpt lat="28.2493439" lon="105.7195797"><ele>1037.12</ele><time>2026-08-13T19:08:11.000Z</time></trkpt>
        <trkpt lat="28.2494226" lon="105.7196675"><ele>1036.46</ele><time>2026-08-13T19:08:19.000Z</time></trkpt>
        <trkpt lat="28.2495362" lon="105.7196992"><ele>1035.53</ele><time>2026-08-13T19:08:27.000Z</time></trkpt>
        <trkpt lat="28.2496393" lon="105.7197085"><ele>1035.91</ele><time>2026-08-13T19:08:37.000Z</time></trkpt>
        <trkpt lat="28.2497354" lon="105.7196734"><ele>1037.95</ele><time>2026-08-13T19:08:47.000Z</time></trkpt>
        <trkpt lat="28.2498361" lon="105.7196583"><ele>1038.63</ele><time>2026-08-13T19:09:07.000Z</time></trkpt>
        <trkpt lat="28.2499491" lon="105.7196724"><ele>1038.54</ele><time>2026-08-13T19:09:13.000Z</time></trkpt>
        <trkpt lat="28.2500278" lon="105.7197335"><ele>1037.61</ele><time>2026-08-13T19:09:17.000Z</time></trkpt>
        <trkpt lat="28.2500911" lon="105.7198299"><ele>1033.31</ele><time>2026-08-13T19:09:25.000Z</time></trkpt>
        <trkpt lat="28.2501424" lon="105.7199257"><ele>1033.58</ele><time>2026-08-13T19:09:33.000Z</time></trkpt>
        <trkpt lat="28.2502219" lon="105.7199935"><ele>1035</ele><time>2026-08-13T19:09:41.000Z</time></trkpt>
        <trkpt lat="28.2503123" lon="105.7199813"><ele>1035.46</ele><time>2026-08-13T19:09:49.000Z</time></trkpt>
        <trkpt lat="28.2504029" lon="105.7199474"><ele>1035.91</ele><time>2026-08-13T19:09:57.000Z</time></trkpt>
        <trkpt lat="28.2505094" lon="105.7199143"><ele>1036.53</ele><time>2026-08-13T19:10:07.000Z</time></trkpt>
        <trkpt lat="28.2506252" lon="105.7199248"><ele>1036.94</ele><time>2026-08-13T19:10:13.000Z</time></trkpt>
        <trkpt lat="28.2507234" lon="105.7199908"><ele>1036.78</ele><time>2026-08-13T19:10:23.000Z</time></trkpt>
        <trkpt lat="28.2507951" lon="105.7200726"><ele>1035.77</ele><time>2026-08-13T19:10:31.000Z</time></trkpt>
        <trkpt lat="28.2508724" lon="105.7201705"><ele>1033.97</ele><time>2026-08-13T19:10:39.000Z</time></trkpt>
        <trkpt lat="28.2509307" lon="105.7202673"><ele>1031.62</ele><time>2026-08-13T19:10:45.000Z</time></trkpt>
        <trkpt lat="28.2510037" lon="105.7203366"><ele>1029.53</ele><time>2026-08-13T19:10:53.000Z</time></trkpt>
        <trkpt lat="28.2511016" lon="105.7203357"><ele>1027.88</ele><time>2026-08-13T19:11:01.000Z</time></trkpt>
        <trkpt lat="28.2512025" lon="105.7202952"><ele>1026.31</ele><time>2026-08-13T19:11:09.000Z</time></trkpt>
        <trkpt lat="28.2513155" lon="105.7202674"><ele>1025.17</ele><time>2026-08-13T19:11:19.000Z</time></trkpt>
        <trkpt lat="28.2514304" lon="105.7202432"><ele>1024</ele><time>2026-08-13T19:11:29.000Z</time></trkpt>
        <trkpt lat="28.2515359" lon="105.7202321"><ele>1024.02</ele><time>2026-08-13T19:11:37.000Z</time></trkpt>
        <trkpt lat="28.2516373" lon="105.7202436"><ele>1023.6</ele><time>2026-08-13T19:11:45.000Z</time></trkpt>
        <trkpt lat="28.2517373" lon="105.7202688"><ele>1023.58</ele><time>2026-08-13T19:11:53.000Z</time></trkpt>
        <trkpt lat="28.251842" lon="105.7202867"><ele>1023.57</ele><time>2026-08-13T19:12:01.000Z</time></trkpt>
        <trkpt lat="28.2519432" lon="105.7203287"><ele>1023.52</ele><time>2026-08-13T19:12:09.000Z</time></trkpt>
        <trkpt lat="28.2520378" lon="105.7203917"><ele>1023.75</ele><time>2026-08-13T19:12:17.000Z</time></trkpt>
        <trkpt lat="28.2521317" lon="105.7204574"><ele>1024</ele><time>2026-08-13T19:12:25.000Z</time></trkpt>
        <trkpt lat="28.2522239" lon="105.7205208"><ele>1024.95</ele><time>2026-08-13T19:12:33.000Z</time></trkpt>
        <trkpt lat="28.2523047" lon="105.7205948"><ele>1025.47</ele><time>2026-08-13T19:12:41.000Z</time></trkpt>
        <trkpt lat="28.2523786" lon="105.7206993"><ele>1026.52</ele><time>2026-08-13T19:12:51.000Z</time></trkpt>
        <trkpt lat="28.2524571" lon="105.7207942"><ele>1027.65</ele><time>2026-08-13T19:12:59.000Z</time></trkpt>
        <trkpt lat="28.2525379" lon="105.7208777"><ele>1029.07</ele><time>2026-08-13T19:13:07.000Z</time></trkpt>
        <trkpt lat="28.2526257" lon="105.7209518"><ele>1029.16</ele><time>2026-08-13T19:13:15.000Z</time></trkpt>
        <trkpt lat="28.2526943" lon="105.7210419"><ele>1029.1</ele><time>2026-08-13T19:13:23.000Z</time></trkpt>
        <trkpt lat="28.2527552" lon="105.7211303"><ele>1029.45</ele><time>2026-08-13T19:13:31.000Z</time></trkpt>
        <trkpt lat="28.2528197" lon="105.7212056"><ele>1028.69</ele><time>2026-08-13T19:13:37.000Z</time></trkpt>
        <trkpt lat="28.2528883" lon="105.7212901"><ele>1028.23</ele><time>2026-08-13T19:13:45.000Z</time></trkpt>
        <trkpt lat="28.2529491" lon="105.7213787"><ele>1027.57</ele><time>2026-08-13T19:13:53.000Z</time></trkpt>
        <trkpt lat="28.2530095" lon="105.721471"><ele>1026.44</ele><time>2026-08-13T19:14:03.000Z</time></trkpt>
        <trkpt lat="28.2530606" lon="105.7215654"><ele>1025.15</ele><time>2026-08-13T19:14:13.000Z</time></trkpt>
        <trkpt lat="28.2531156" lon="105.7216682"><ele>1024.5</ele><time>2026-08-13T19:14:25.000Z</time></trkpt>
        <trkpt lat="28.2531773" lon="105.7217671"><ele>1023.95</ele><time>2026-08-13T19:14:35.000Z</time></trkpt>
        <trkpt lat="28.2532307" lon="105.7218728"><ele>1023.55</ele><time>2026-08-13T19:14:45.000Z</time></trkpt>
        <trkpt lat="28.2532916" lon="105.7219674"><ele>1023.35</ele><time>2026-08-13T19:14:53.000Z</time></trkpt>
        <trkpt lat="28.2533357" lon="105.7220647"><ele>1023.6</ele><time>2026-08-13T19:15:01.000Z</time></trkpt>
        <trkpt lat="28.2533908" lon="105.7221694"><ele>1023.78</ele><time>2026-08-13T19:15:13.000Z</time></trkpt>
        <trkpt lat="28.2534835" lon="105.7222109"><ele>1024.79</ele><time>2026-08-13T19:15:23.000Z</time></trkpt>
        <trkpt lat="28.2535777" lon="105.7222283"><ele>1026.93</ele><time>2026-08-13T19:15:31.000Z</time></trkpt>
        <trkpt lat="28.2536775" lon="105.7222332"><ele>1028.39</ele><time>2026-08-13T19:15:39.000Z</time></trkpt>
        <trkpt lat="28.2537813" lon="105.7221962"><ele>1029.33</ele><time>2026-08-13T19:15:47.000Z</time></trkpt>
        <trkpt lat="28.2538918" lon="105.7221622"><ele>1029.98</ele><time>2026-08-13T19:15:55.000Z</time></trkpt>
        <trkpt lat="28.2540038" lon="105.7221267"><ele>1030.93</ele><time>2026-08-13T19:16:03.000Z</time></trkpt>
        <trkpt lat="28.2541109" lon="105.7220974"><ele>1032.18</ele><time>2026-08-13T19:16:11.000Z</time></trkpt>
        <trkpt lat="28.2542138" lon="105.7220627"><ele>1032.86</ele><time>2026-08-13T19:16:19.000Z</time></trkpt>
        <trkpt lat="28.2543166" lon="105.7220011"><ele>1032.86</ele><time>2026-08-13T19:16:27.000Z</time></trkpt>
        <trkpt lat="28.2544092" lon="105.7219505"><ele>1033.26</ele><time>2026-08-13T19:16:37.000Z</time></trkpt>
        <trkpt lat="28.2544955" lon="105.7219041"><ele>1033.68</ele><time>2026-08-13T19:16:45.000Z</time></trkpt>
        <trkpt lat="28.2545887" lon="105.7218605"><ele>1034.23</ele><time>2026-08-13T19:16:55.000Z</time></trkpt>
        <trkpt lat="28.2546692" lon="105.7218091"><ele>1033.84</ele><time>2026-08-13T19:17:03.000Z</time></trkpt>
        <trkpt lat="28.2547625" lon="105.7217443"><ele>1033.37</ele><time>2026-08-13T19:17:11.000Z</time></trkpt>
        <trkpt lat="28.254839" lon="105.7216757"><ele>1033.24</ele><time>2026-08-13T19:17:21.000Z</time></trkpt>
        <trkpt lat="28.254916" lon="105.7216173"><ele>1033.25</ele><time>2026-08-13T19:17:35.000Z</time></trkpt>
        <trkpt lat="28.2549941" lon="105.7215448"><ele>1032.13</ele><time>2026-08-13T19:17:43.000Z</time></trkpt>
        <trkpt lat="28.2550626" lon="105.7214692"><ele>1031.51</ele><time>2026-08-13T19:17:53.000Z</time></trkpt>
        <trkpt lat="28.2551319" lon="105.7213944"><ele>1031.55</ele><time>2026-08-13T19:18:03.000Z</time></trkpt>
        <trkpt lat="28.2552036" lon="105.72131"><ele>1031.53</ele><time>2026-08-13T19:18:11.000Z</time></trkpt>
        <trkpt lat="28.2552881" lon="105.7212408"><ele>1031.45</ele><time>2026-08-13T19:18:19.000Z</time></trkpt>
        <trkpt lat="28.2553693" lon="105.7211862"><ele>1030.83</ele><time>2026-08-13T19:18:27.000Z</time></trkpt>
        <trkpt lat="28.2554553" lon="105.7211431"><ele>1030.08</ele><time>2026-08-13T19:18:35.000Z</time></trkpt>
        <trkpt lat="28.2555486" lon="105.7211089"><ele>1029.37</ele><time>2026-08-13T19:18:43.000Z</time></trkpt>
        <trkpt lat="28.2556424" lon="105.7210634"><ele>1028.43</ele><time>2026-08-13T19:18:51.000Z</time></trkpt>
        <trkpt lat="28.2557293" lon="105.7210153"><ele>1027.2</ele><time>2026-08-13T19:18:57.000Z</time></trkpt>
        <trkpt lat="28.255793" lon="105.7209342"><ele>1026.12</ele><time>2026-08-13T19:19:03.000Z</time></trkpt>
        <trkpt lat="28.2558471" lon="105.7208417"><ele>1025.26</ele><time>2026-08-13T19:19:13.000Z</time></trkpt>
        <trkpt lat="28.255917" lon="105.7207695"><ele>1025.51</ele><time>2026-08-13T19:19:21.000Z</time></trkpt>
        <trkpt lat="28.2559932" lon="105.7207134"><ele>1026.13</ele><time>2026-08-13T19:19:29.000Z</time></trkpt>
        <trkpt lat="28.2560887" lon="105.7206813"><ele>1026.02</ele><time>2026-08-13T19:19:37.000Z</time></trkpt>
        <trkpt lat="28.2561985" lon="105.7206645"><ele>1025.56</ele><time>2026-08-13T19:19:49.000Z</time></trkpt>
        <trkpt lat="28.2562993" lon="105.7206515"><ele>1025.65</ele><time>2026-08-13T19:19:55.000Z</time></trkpt>
        <trkpt lat="28.256406" lon="105.720625"><ele>1025.09</ele><time>2026-08-13T19:20:03.000Z</time></trkpt>
        <trkpt lat="28.2565135" lon="105.7205911"><ele>1023.86</ele><time>2026-08-13T19:20:11.000Z</time></trkpt>
        <trkpt lat="28.2566132" lon="105.7205839"><ele>1022.75</ele><time>2026-08-13T19:20:19.000Z</time></trkpt>
        <trkpt lat="28.2567227" lon="105.7205904"><ele>1021.67</ele><time>2026-08-13T19:20:31.000Z</time></trkpt>
        <trkpt lat="28.2568218" lon="105.7206093"><ele>1021.2</ele><time>2026-08-13T19:20:39.000Z</time></trkpt>
        <trkpt lat="28.2569287" lon="105.7205994"><ele>1021.58</ele><time>2026-08-13T19:20:49.000Z</time></trkpt>
        <trkpt lat="28.2570281" lon="105.7205755"><ele>1021.44</ele><time>2026-08-13T19:20:57.000Z</time></trkpt>
        <trkpt lat="28.2571068" lon="105.7205881"><ele>1020.75</ele><time>2026-08-13T19:21:07.000Z</time></trkpt>
        <trkpt lat="28.25719" lon="105.7205741"><ele>1021.66</ele><time>2026-08-13T19:21:21.000Z</time></trkpt>
        <trkpt lat="28.2572574" lon="105.7206444"><ele>1022.96</ele><time>2026-08-13T19:21:29.000Z</time></trkpt>
        <trkpt lat="28.2572955" lon="105.7207548"><ele>1023.32</ele><time>2026-08-13T19:21:37.000Z</time></trkpt>
        <trkpt lat="28.2573564" lon="105.7208519"><ele>1024.74</ele><time>2026-08-13T19:21:47.000Z</time></trkpt>
        <trkpt lat="28.2574287" lon="105.7209315"><ele>1026.66</ele><time>2026-08-13T19:22:03.000Z</time></trkpt>
        <trkpt lat="28.2575054" lon="105.7210023"><ele>1028.5</ele><time>2026-08-13T19:22:11.000Z</time></trkpt>
        <trkpt lat="28.2575966" lon="105.7210679"><ele>1030.38</ele><time>2026-08-13T19:22:33.000Z</time></trkpt>
        <trkpt lat="28.2576921" lon="105.7210942"><ele>1031.23</ele><time>2026-08-13T19:22:39.000Z</time></trkpt>
        <trkpt lat="28.257767" lon="105.7211508"><ele>1031.88</ele><time>2026-08-13T19:23:23.000Z</time></trkpt>
        <trkpt lat="28.2578685" lon="105.7212001"><ele>1029.94</ele><time>2026-08-13T19:23:41.000Z</time></trkpt>
        <trkpt lat="28.2579818" lon="105.7212021"><ele>1029.45</ele><time>2026-08-13T19:23:49.000Z</time></trkpt>
        <trkpt lat="28.2580776" lon="105.721243"><ele>1030.51</ele><time>2026-08-13T19:23:55.000Z</time></trkpt>
        <trkpt lat="28.2581581" lon="105.7213183"><ele>1031.78</ele><time>2026-08-13T19:24:03.000Z</time></trkpt>
        <trkpt lat="28.2582311" lon="105.7214028"><ele>1031.96</ele><time>2026-08-13T19:24:21.000Z</time></trkpt>
        <trkpt lat="28.2583221" lon="105.7214657"><ele>1032.2</ele><time>2026-08-13T19:24:27.000Z</time></trkpt>
        <trkpt lat="28.2584085" lon="105.7215278"><ele>1032.63</ele><time>2026-08-13T19:24:35.000Z</time></trkpt>
        <trkpt lat="28.2584995" lon="105.7215671"><ele>1033.22</ele><time>2026-08-13T19:24:43.000Z</time></trkpt>
        <trkpt lat="28.258591" lon="105.7216239"><ele>1032.71</ele><time>2026-08-13T19:24:53.000Z</time></trkpt>
        <trkpt lat="28.2586824" lon="105.7216636"><ele>1032.21</ele><time>2026-08-13T19:25:01.000Z</time></trkpt>
        <trkpt lat="28.2587818" lon="105.7217164"><ele>1031.56</ele><time>2026-08-13T19:25:13.000Z</time></trkpt>
        <trkpt lat="28.2588598" lon="105.7217904"><ele>1030.28</ele><time>2026-08-13T19:25:21.000Z</time></trkpt>
        <trkpt lat="28.2589231" lon="105.7218792"><ele>1028.61</ele><time>2026-08-13T19:25:29.000Z</time></trkpt>
        <trkpt lat="28.2590095" lon="105.7219352"><ele>1027.07</ele><time>2026-08-13T19:25:37.000Z</time></trkpt>
        <trkpt lat="28.2590999" lon="105.7220091"><ele>1027</ele><time>2026-08-13T19:25:47.000Z</time></trkpt>
        <trkpt lat="28.2591813" lon="105.7220707"><ele>1026.9</ele><time>2026-08-13T19:25:55.000Z</time></trkpt>
        <trkpt lat="28.2591968" lon="105.7220933"><ele>1026.1</ele><time>2026-08-13T19:26:03.000Z</time></trkpt>
        <trkpt lat="28.2592494" lon="105.7221566"><ele>1025.57</ele><time>2026-08-13T19:26:09.000Z</time></trkpt>
        <trkpt lat="28.2593099" lon="105.7222317"><ele>1025.08</ele><time>2026-08-13T19:26:21.000Z</time></trkpt>
        <trkpt lat="28.2593799" lon="105.7223094"><ele>1023.99</ele><time>2026-08-13T19:26:27.000Z</time></trkpt>
        <trkpt lat="28.2594654" lon="105.7223913"><ele>1023.07</ele><time>2026-08-13T19:26:35.000Z</time></trkpt>
        <trkpt lat="28.2595561" lon="105.7224497"><ele>1021.96</ele><time>2026-08-13T19:26:43.000Z</time></trkpt>
        <trkpt lat="28.2596328" lon="105.7225257"><ele>1021.81</ele><time>2026-08-13T19:26:51.000Z</time></trkpt>
        <trkpt lat="28.2597223" lon="105.722607"><ele>1021.77</ele><time>2026-08-13T19:27:01.000Z</time></trkpt>
        <trkpt lat="28.2597958" lon="105.7226878"><ele>1021.26</ele><time>2026-08-13T19:27:09.000Z</time></trkpt>
        <trkpt lat="28.2598737" lon="105.7227588"><ele>1020.91</ele><time>2026-08-13T19:27:17.000Z</time></trkpt>
        <trkpt lat="28.2599644" lon="105.7227763"><ele>1021.07</ele><time>2026-08-13T19:27:25.000Z</time></trkpt>
        <trkpt lat="28.260054" lon="105.7227948"><ele>1021.84</ele><time>2026-08-13T19:27:33.000Z</time></trkpt>
        <trkpt lat="28.2601401" lon="105.7228284"><ele>1022.84</ele><time>2026-08-13T19:27:43.000Z</time></trkpt>
        <trkpt lat="28.260212" lon="105.722911"><ele>1023.33</ele><time>2026-08-13T19:27:59.000Z</time></trkpt>
        <trkpt lat="28.2602928" lon="105.7229654"><ele>1022.99</ele><time>2026-08-13T19:28:05.000Z</time></trkpt>
        <trkpt lat="28.2603853" lon="105.723015"><ele>1025.44</ele><time>2026-08-13T19:28:13.000Z</time></trkpt>
        <trkpt lat="28.2604743" lon="105.723055"><ele>1025.48</ele><time>2026-08-13T19:28:21.000Z</time></trkpt>
        <trkpt lat="28.260552" lon="105.7231139"><ele>1024.46</ele><time>2026-08-13T19:28:29.000Z</time></trkpt>
        <trkpt lat="28.2606169" lon="105.7231984"><ele>1023.36</ele><time>2026-08-13T19:28:37.000Z</time></trkpt>
        <trkpt lat="28.2606498" lon="105.7232978"><ele>1022.29</ele><time>2026-08-13T19:28:45.000Z</time></trkpt>
        <trkpt lat="28.2606596" lon="105.7234175"><ele>1021.16</ele><time>2026-08-13T19:28:53.000Z</time></trkpt>
        <trkpt lat="28.2606917" lon="105.7235219"><ele>1020.7</ele><time>2026-08-13T19:29:01.000Z</time></trkpt>
        <trkpt lat="28.2607362" lon="105.7236263"><ele>1020.16</ele><time>2026-08-13T19:29:09.000Z</time></trkpt>
        <trkpt lat="28.2607622" lon="105.7237435"><ele>1020.22</ele><time>2026-08-13T19:29:17.000Z</time></trkpt>
        <trkpt lat="28.2607807" lon="105.7238603"><ele>1020.03</ele><time>2026-08-13T19:29:25.000Z</time></trkpt>
        <trkpt lat="28.260801" lon="105.7239674"><ele>1019.38</ele><time>2026-08-13T19:29:33.000Z</time></trkpt>
        <trkpt lat="28.2608087" lon="105.7240828"><ele>1019.19</ele><time>2026-08-13T19:29:41.000Z</time></trkpt>
        <trkpt lat="28.2608099" lon="105.7241987"><ele>1018.4</ele><time>2026-08-13T19:29:49.000Z</time></trkpt>
        <trkpt lat="28.2608028" lon="105.7243193"><ele>1017.71</ele><time>2026-08-13T19:29:57.000Z</time></trkpt>
        <trkpt lat="28.2607794" lon="105.7244347"><ele>1017.55</ele><time>2026-08-13T19:30:07.000Z</time></trkpt>
        <trkpt lat="28.2608378" lon="105.724445"><ele>1017.08</ele><time>2026-08-13T19:30:17.000Z</time></trkpt>
        <trkpt lat="28.2608994" lon="105.7244396"><ele>1017.08</ele><time>2026-08-13T19:30:39.000Z</time></trkpt>
        <trkpt lat="28.2609956" lon="105.7244275"><ele>1016.92</ele><time>2026-08-13T19:30:59.000Z</time></trkpt>
        <trkpt lat="28.2610438" lon="105.7244346"><ele>1017.05</ele><time>2026-08-13T19:31:03.000Z</time></trkpt>
        <trkpt lat="28.2611114" lon="105.7244785"><ele>1017.06</ele><time>2026-08-13T19:31:39.000Z</time></trkpt>
        <trkpt lat="28.2611432" lon="105.7245813"><ele>1022.27</ele><time>2026-08-13T19:31:55.000Z</time></trkpt>
        <trkpt lat="28.2611918" lon="105.7247014"><ele>1024.59</ele><time>2026-08-13T19:32:19.000Z</time></trkpt>
        <trkpt lat="28.2612144" lon="105.7248139"><ele>1024.59</ele><time>2026-08-13T19:32:23.000Z</time></trkpt>
        <trkpt lat="28.2612486" lon="105.724918"><ele>1024.46</ele><time>2026-08-13T19:32:29.000Z</time></trkpt>
        <trkpt lat="28.2613254" lon="105.7249728"><ele>1024.53</ele><time>2026-08-13T19:32:37.000Z</time></trkpt>
        <trkpt lat="28.2613602" lon="105.7249779"><ele>1024.88</ele><time>2026-08-13T19:32:41.000Z</time></trkpt>
        <trkpt lat="28.2614132" lon="105.725035"><ele>1024.54</ele><time>2026-08-13T19:33:13.000Z</time></trkpt>
        <trkpt lat="28.26145" lon="105.7251237"><ele>1025.29</ele><time>2026-08-13T19:33:19.000Z</time></trkpt>
        <trkpt lat="28.261433" lon="105.7251743"><ele>1025.89</ele><time>2026-08-13T19:33:29.000Z</time></trkpt>
        <trkpt lat="28.2614028" lon="105.7252839"><ele>1026.73</ele><time>2026-08-13T19:33:37.000Z</time></trkpt>
        <trkpt lat="28.2613965" lon="105.7254026"><ele>1027.97</ele><time>2026-08-13T19:33:45.000Z</time></trkpt>
        <trkpt lat="28.2613358" lon="105.7254875"><ele>1028.19</ele><time>2026-08-13T19:33:55.000Z</time></trkpt>
        <trkpt lat="28.2612877" lon="105.7255999"><ele>1027.45</ele><time>2026-08-13T19:34:03.000Z</time></trkpt>
        <trkpt lat="28.2612229" lon="105.7256972"><ele>1024.68</ele><time>2026-08-13T19:34:11.000Z</time></trkpt>
        <trkpt lat="28.2611911" lon="105.7257641"><ele>1021.7</ele><time>2026-08-13T19:34:31.000Z</time></trkpt>
        <trkpt lat="28.2611993" lon="105.725634"><ele>1020.21</ele><time>2026-08-13T19:36:17.000Z</time></trkpt>
        <trkpt lat="28.2612069" lon="105.7255147"><ele>1018.84</ele><time>2026-08-13T19:36:25.000Z</time></trkpt>
        <trkpt lat="28.2611818" lon="105.7253864"><ele>1017.58</ele><time>2026-08-13T19:36:37.000Z</time></trkpt>
        <trkpt lat="28.2611355" lon="105.7252712"><ele>1015.12</ele><time>2026-08-13T19:36:43.000Z</time></trkpt>
        <trkpt lat="28.2610784" lon="105.7252235"><ele>1013.67</ele><time>2026-08-13T19:36:53.000Z</time></trkpt>
        <trkpt lat="28.2611485" lon="105.7253003"><ele>1012.1</ele><time>2026-08-13T19:40:03.000Z</time></trkpt>
        <trkpt lat="28.2611706" lon="105.7254023"><ele>1006.22</ele><time>2026-08-13T19:40:13.000Z</time></trkpt>
        <trkpt lat="28.2611661" lon="105.725507"><ele>1002.84</ele><time>2026-08-13T19:40:25.000Z</time></trkpt>
        <trkpt lat="28.2611567" lon="105.7256125"><ele>1002.08</ele><time>2026-08-13T19:40:45.000Z</time></trkpt>
        <trkpt lat="28.2611683" lon="105.7257258"><ele>1002.39</ele><time>2026-08-13T19:41:13.000Z</time></trkpt>
        <trkpt lat="28.2612019" lon="105.7258286"><ele>1003.28</ele><time>2026-08-13T19:42:11.000Z</time></trkpt>
        <trkpt lat="28.2612656" lon="105.7259175"><ele>1004.28</ele><time>2026-08-13T19:42:19.000Z</time></trkpt>
        <trkpt lat="28.2613577" lon="105.7259459"><ele>1004.88</ele><time>2026-08-13T19:42:25.000Z</time></trkpt>
        <trkpt lat="28.2614466" lon="105.725896"><ele>1005.06</ele><time>2026-08-13T19:42:29.000Z</time></trkpt>
        <trkpt lat="28.2615448" lon="105.7257953"><ele>1004.9</ele><time>2026-08-13T19:42:43.000Z</time></trkpt>
        <trkpt lat="28.2616136" lon="105.7256817"><ele>1004.3</ele><time>2026-08-13T19:42:49.000Z</time></trkpt>
        <trkpt lat="28.2616822" lon="105.7255847"><ele>1004.22</ele><time>2026-08-13T19:42:59.000Z</time></trkpt>
        <trkpt lat="28.2617686" lon="105.7255546"><ele>1003.91</ele><time>2026-08-13T19:43:09.000Z</time></trkpt>
        <trkpt lat="28.2618717" lon="105.7255465"><ele>1007.52</ele><time>2026-08-13T19:43:39.000Z</time></trkpt>
        <trkpt lat="28.2619669" lon="105.7255684"><ele>1011.71</ele><time>2026-08-13T19:43:51.000Z</time></trkpt>
        <trkpt lat="28.2620611" lon="105.7255736"><ele>1014.59</ele><time>2026-08-13T19:44:17.000Z</time></trkpt>
        <trkpt lat="28.2621546" lon="105.7255863"><ele>1011.91</ele><time>2026-08-13T19:44:29.000Z</time></trkpt>
        <trkpt lat="28.2622489" lon="105.7255724"><ele>1009.34</ele><time>2026-08-13T19:44:43.000Z</time></trkpt>
        <trkpt lat="28.2623575" lon="105.7255595"><ele>1005.27</ele><time>2026-08-13T19:45:01.000Z</time></trkpt>
        <trkpt lat="28.2624414" lon="105.7256002"><ele>1000.09</ele><time>2026-08-13T19:45:07.000Z</time></trkpt>
        <trkpt lat="28.2625362" lon="105.7255779"><ele>998.33</ele><time>2026-08-13T19:45:31.000Z</time></trkpt>
        <trkpt lat="28.2626251" lon="105.7255181"><ele>996.7</ele><time>2026-08-13T19:45:37.000Z</time></trkpt>
        <trkpt lat="28.2627247" lon="105.7254673"><ele>993.86</ele><time>2026-08-13T19:45:43.000Z</time></trkpt>
        <trkpt lat="28.2628243" lon="105.7254198"><ele>991.27</ele><time>2026-08-13T19:45:49.000Z</time></trkpt>
        <trkpt lat="28.2629359" lon="105.7253795"><ele>988.05</ele><time>2026-08-13T19:45:57.000Z</time></trkpt>
        <trkpt lat="28.2630306" lon="105.7253492"><ele>986.56</ele><time>2026-08-13T19:46:03.000Z</time></trkpt>
        <trkpt lat="28.2631123" lon="105.7252854"><ele>986.77</ele><time>2026-08-13T19:46:11.000Z</time></trkpt>
        <trkpt lat="28.2631886" lon="105.7252198"><ele>979.33</ele><time>2026-08-13T19:46:21.000Z</time></trkpt>
        <trkpt lat="28.2632859" lon="105.725158"><ele>974.8</ele><time>2026-08-13T19:46:31.000Z</time></trkpt>
        <trkpt lat="28.2633833" lon="105.725108"><ele>972.04</ele><time>2026-08-13T19:46:39.000Z</time></trkpt>
        <trkpt lat="28.2634818" lon="105.7250956"><ele>970.37</ele><time>2026-08-13T19:46:47.000Z</time></trkpt>
        <trkpt lat="28.2635756" lon="105.7250876"><ele>969.8</ele><time>2026-08-13T19:46:55.000Z</time></trkpt>
        <trkpt lat="28.2636453" lon="105.7250331"><ele>973.36</ele><time>2026-08-13T19:47:03.000Z</time></trkpt>
        <trkpt lat="28.2636837" lon="105.7250371"><ele>970.42</ele><time>2026-08-13T19:47:11.000Z</time></trkpt>
        <trkpt lat="28.2637637" lon="105.725052"><ele>972.94</ele><time>2026-08-13T19:47:33.000Z</time></trkpt>
        <trkpt lat="28.2638545" lon="105.7250461"><ele>975.97</ele><time>2026-08-13T19:47:39.000Z</time></trkpt>
        <trkpt lat="28.2639602" lon="105.7250432"><ele>977.34</ele><time>2026-08-13T19:47:47.000Z</time></trkpt>
        <trkpt lat="28.2640181" lon="105.725032"><ele>978.07</ele><time>2026-08-13T19:47:51.000Z</time></trkpt>
        <trkpt lat="28.2641039" lon="105.7249989"><ele>978.07</ele><time>2026-08-13T19:48:45.000Z</time></trkpt>
        <trkpt lat="28.2642097" lon="105.7249905"><ele>976.5</ele><time>2026-08-13T19:48:53.000Z</time></trkpt>
        <trkpt lat="28.2643185" lon="105.7249782"><ele>975</ele><time>2026-08-13T19:49:01.000Z</time></trkpt>
        <trkpt lat="28.2644168" lon="105.7249807"><ele>972.03</ele><time>2026-08-13T19:49:09.000Z</time></trkpt>
        <trkpt lat="28.2645257" lon="105.7249696"><ele>970.41</ele><time>2026-08-13T19:49:19.000Z</time></trkpt>
        <trkpt lat="28.2646332" lon="105.7249634"><ele>969.92</ele><time>2026-08-13T19:49:27.000Z</time></trkpt>
        <trkpt lat="28.2647363" lon="105.7249857"><ele>968.48</ele><time>2026-08-13T19:49:37.000Z</time></trkpt>
        <trkpt lat="28.2648275" lon="105.725024"><ele>967.59</ele><time>2026-08-13T19:49:47.000Z</time></trkpt>
        <trkpt lat="28.2649205" lon="105.7250818"><ele>965.75</ele><time>2026-08-13T19:49:57.000Z</time></trkpt>
        <trkpt lat="28.2649997" lon="105.7251427"><ele>965.64</ele><time>2026-08-13T19:50:09.000Z</time></trkpt>
        <trkpt lat="28.2650789" lon="105.7252139"><ele>966.94</ele><time>2026-08-13T19:50:17.000Z</time></trkpt>
        <trkpt lat="28.265127" lon="105.725304"><ele>967.08</ele><time>2026-08-13T19:50:25.000Z</time></trkpt>
        <trkpt lat="28.2652001" lon="105.7253775"><ele>968.37</ele><time>2026-08-13T19:50:37.000Z</time></trkpt>
        <trkpt lat="28.2652687" lon="105.7254556"><ele>969.39</ele><time>2026-08-13T19:50:47.000Z</time></trkpt>
        <trkpt lat="28.2653394" lon="105.725533"><ele>972.25</ele><time>2026-08-13T19:50:57.000Z</time></trkpt>
        <trkpt lat="28.2653896" lon="105.7256244"><ele>974.3</ele><time>2026-08-13T19:51:05.000Z</time></trkpt>
        <trkpt lat="28.265358" lon="105.7257004"><ele>975.63</ele><time>2026-08-13T19:51:13.000Z</time></trkpt>
        <trkpt lat="28.2653092" lon="105.7258132"><ele>978.96</ele><time>2026-08-13T19:51:29.000Z</time></trkpt>
        <trkpt lat="28.2652715" lon="105.7259194"><ele>981.82</ele><time>2026-08-13T19:51:37.000Z</time></trkpt>
        <trkpt lat="28.2652748" lon="105.7260335"><ele>983.52</ele><time>2026-08-13T19:51:51.000Z</time></trkpt>
        <trkpt lat="28.2652983" lon="105.7261577"><ele>983.12</ele><time>2026-08-13T19:51:59.000Z</time></trkpt>
        <trkpt lat="28.2653361" lon="105.7262742"><ele>982.77</ele><time>2026-08-13T19:52:13.000Z</time></trkpt>
        <trkpt lat="28.2653742" lon="105.7263752"><ele>983.36</ele><time>2026-08-13T19:52:17.000Z</time></trkpt>
        <trkpt lat="28.2654308" lon="105.7264913"><ele>982.97</ele><time>2026-08-13T19:52:27.000Z</time></trkpt>
        <trkpt lat="28.2653882" lon="105.7264657"><ele>981.04</ele><time>2026-08-13T19:52:59.000Z</time></trkpt>
        <trkpt lat="28.2653304" lon="105.7263026"><ele>981.34</ele><time>2026-08-13T19:54:21.000Z</time></trkpt>
        <trkpt lat="28.2652614" lon="105.7262154"><ele>982.48</ele><time>2026-08-13T19:54:35.000Z</time></trkpt>
        <trkpt lat="28.2652977" lon="105.7262801"><ele>983.44</ele><time>2026-08-13T19:55:09.000Z</time></trkpt>
        <trkpt lat="28.2653511" lon="105.7263678"><ele>985.83</ele><time>2026-08-13T19:55:23.000Z</time></trkpt>
        <trkpt lat="28.2654207" lon="105.7264499"><ele>985.62</ele><time>2026-08-13T19:55:35.000Z</time></trkpt>
        <trkpt lat="28.2654635" lon="105.7265614"><ele>984.08</ele><time>2026-08-13T19:56:03.000Z</time></trkpt>
        <trkpt lat="28.2655011" lon="105.7266713"><ele>981.77</ele><time>2026-08-13T19:56:39.000Z</time></trkpt>
        <trkpt lat="28.2655675" lon="105.7267761"><ele>977.45</ele><time>2026-08-13T19:56:45.000Z</time></trkpt>
        <trkpt lat="28.2656412" lon="105.7268754"><ele>973.04</ele><time>2026-08-13T19:56:49.000Z</time></trkpt>
        <trkpt lat="28.2657144" lon="105.7269806"><ele>964.72</ele><time>2026-08-13T19:56:55.000Z</time></trkpt>
        <trkpt lat="28.2657484" lon="105.7270165"><ele>959.94</ele><time>2026-08-13T19:57:01.000Z</time></trkpt>
        <trkpt lat="28.2658018" lon="105.7270922"><ele>958.49</ele><time>2026-08-13T19:57:23.000Z</time></trkpt>
        <trkpt lat="28.2658441" lon="105.7271901"><ele>959.35</ele><time>2026-08-13T19:57:35.000Z</time></trkpt>
        <trkpt lat="28.2658966" lon="105.7273069"><ele>961.94</ele><time>2026-08-13T19:57:39.000Z</time></trkpt>
        <trkpt lat="28.2659548" lon="105.7274035"><ele>966.48</ele><time>2026-08-13T19:57:55.000Z</time></trkpt>
        <trkpt lat="28.2660085" lon="105.7274947"><ele>968.09</ele><time>2026-08-13T19:58:05.000Z</time></trkpt>
        <trkpt lat="28.2660524" lon="105.7275955"><ele>970.03</ele><time>2026-08-13T19:58:13.000Z</time></trkpt>
        <trkpt lat="28.2661138" lon="105.7276851"><ele>971.74</ele><time>2026-08-13T19:58:31.000Z</time></trkpt>
        <trkpt lat="28.2661821" lon="105.7277591"><ele>969.12</ele><time>2026-08-13T19:59:03.000Z</time></trkpt>
        <trkpt lat="28.2662746" lon="105.7278416"><ele>965.58</ele><time>2026-08-13T19:59:09.000Z</time></trkpt>
        <trkpt lat="28.2663673" lon="105.7279145"><ele>963.61</ele><time>2026-08-13T19:59:17.000Z</time></trkpt>
        <trkpt lat="28.2664505" lon="105.7279705"><ele>961.67</ele><time>2026-08-13T19:59:25.000Z</time></trkpt>
        <trkpt lat="28.2665476" lon="105.7280208"><ele>959.56</ele><time>2026-08-13T19:59:37.000Z</time></trkpt>
        <trkpt lat="28.2666439" lon="105.7280666"><ele>957.47</ele><time>2026-08-13T19:59:43.000Z</time></trkpt>
        <trkpt lat="28.2667318" lon="105.7281124"><ele>956.18</ele><time>2026-08-13T19:59:49.000Z</time></trkpt>
        <trkpt lat="28.2668031" lon="105.7281774"><ele>955.72</ele><time>2026-08-13T19:59:59.000Z</time></trkpt>
        <trkpt lat="28.2668455" lon="105.7282707"><ele>956.57</ele><time>2026-08-13T20:00:13.000Z</time></trkpt>
        <trkpt lat="28.2669177" lon="105.7283227"><ele>956.02</ele><time>2026-08-13T20:00:35.000Z</time></trkpt>
        <trkpt lat="28.2670066" lon="105.7283615"><ele>954.44</ele><time>2026-08-13T20:00:47.000Z</time></trkpt>
        <trkpt lat="28.2670931" lon="105.7283371"><ele>953.99</ele><time>2026-08-13T20:01:29.000Z</time></trkpt>
        <trkpt lat="28.2671888" lon="105.7283508"><ele>956.9</ele><time>2026-08-13T20:01:51.000Z</time></trkpt>
        <trkpt lat="28.2672938" lon="105.7283991"><ele>961.63</ele><time>2026-08-13T20:02:11.000Z</time></trkpt>
        <trkpt lat="28.2673563" lon="105.728337"><ele>968.07</ele><time>2026-08-13T20:02:29.000Z</time></trkpt>
        <trkpt lat="28.2673783" lon="105.7283356"><ele>974.59</ele><time>2026-08-13T20:02:45.000Z</time></trkpt>
        <trkpt lat="28.2674498" lon="105.728404"><ele>977.62</ele><time>2026-08-13T20:02:49.000Z</time></trkpt>
        <trkpt lat="28.2674992" lon="105.7284796"><ele>981.39</ele><time>2026-08-13T20:03:01.000Z</time></trkpt>
        <trkpt lat="28.2675834" lon="105.728587"><ele>987.01</ele><time>2026-08-13T20:03:13.000Z</time></trkpt>
        <trkpt lat="28.2676573" lon="105.7287219"><ele>992.06</ele><time>2026-08-13T20:03:17.000Z</time></trkpt>
        <trkpt lat="28.2677457" lon="105.7287293"><ele>994.78</ele><time>2026-08-13T20:03:25.000Z</time></trkpt>
        <trkpt lat="28.2678001" lon="105.7285986"><ele>997.63</ele><time>2026-08-13T20:03:29.000Z</time></trkpt>
        <trkpt lat="28.2678038" lon="105.7284615"><ele>999.75</ele><time>2026-08-13T20:03:33.000Z</time></trkpt>
        <trkpt lat="28.2677904" lon="105.7283317"><ele>1000.12</ele><time>2026-08-13T20:03:37.000Z</time></trkpt>
        <trkpt lat="28.2678041" lon="105.7282802"><ele>998.24</ele><time>2026-08-13T20:03:43.000Z</time></trkpt>
        <trkpt lat="28.2678101" lon="105.7281959"><ele>997.53</ele><time>2026-08-13T20:04:15.000Z</time></trkpt>
        <trkpt lat="28.2677999" lon="105.7280753"><ele>998.04</ele><time>2026-08-13T20:04:19.000Z</time></trkpt>
        <trkpt lat="28.2677882" lon="105.7280607"><ele>997.83</ele><time>2026-08-13T20:04:23.000Z</time></trkpt>
        <trkpt lat="28.2678687" lon="105.7280387"><ele>997.44</ele><time>2026-08-13T20:04:35.000Z</time></trkpt>
        <trkpt lat="28.2679763" lon="105.7280076"><ele>997.64</ele><time>2026-08-13T20:04:39.000Z</time></trkpt>
        <trkpt lat="28.2682383" lon="105.7279921"><ele>997.91</ele><time>2026-08-13T20:04:45.000Z</time></trkpt>
        <trkpt lat="28.2684159" lon="105.7280242"><ele>998.63</ele><time>2026-08-13T20:04:49.000Z</time></trkpt>
        <trkpt lat="28.2685678" lon="105.7280021"><ele>999.62</ele><time>2026-08-13T20:04:53.000Z</time></trkpt>
        <trkpt lat="28.2689292" lon="105.7279732"><ele>1001.35</ele><time>2026-08-13T20:05:01.000Z</time></trkpt>
        <trkpt lat="28.2691164" lon="105.7279967"><ele>1004.06</ele><time>2026-08-13T20:05:07.000Z</time></trkpt>
        <trkpt lat="28.269083" lon="105.7280301"><ele>1008.06</ele><time>2026-08-13T20:05:15.000Z</time></trkpt>
        <trkpt lat="28.2689665" lon="105.7280506"><ele>1012.11</ele><time>2026-08-13T20:05:17.000Z</time></trkpt>
        <trkpt lat="28.2687064" lon="105.7280942"><ele>1015.09</ele><time>2026-08-13T20:05:21.000Z</time></trkpt>
        <trkpt lat="28.2684503" lon="105.7281322"><ele>1018.89</ele><time>2026-08-13T20:05:25.000Z</time></trkpt>
        <trkpt lat="28.2683768" lon="105.7280202"><ele>1021.07</ele><time>2026-08-13T20:05:29.000Z</time></trkpt>
        <trkpt lat="28.2682851" lon="105.727945"><ele>1017.21</ele><time>2026-08-13T20:05:45.000Z</time></trkpt>
        <trkpt lat="28.2682465" lon="105.7279237"><ele>1008.05</ele><time>2026-08-13T20:05:47.000Z</time></trkpt>
        <trkpt lat="28.2680966" lon="105.7279753"><ele>1002.66</ele><time>2026-08-13T20:05:49.000Z</time></trkpt>
        <trkpt lat="28.268066" lon="105.7280044"><ele>995.75</ele><time>2026-08-13T20:05:51.000Z</time></trkpt>
        <trkpt lat="28.2680771" lon="105.7279314"><ele>990.74</ele><time>2026-08-13T20:06:05.000Z</time></trkpt>
        <trkpt lat="28.2682022" lon="105.7279004"><ele>977.56</ele><time>2026-08-13T20:06:17.000Z</time></trkpt>
        <trkpt lat="28.2683005" lon="105.7277976"><ele>967.67</ele><time>2026-08-13T20:08:12.000Z</time></trkpt>
        <trkpt lat="28.2681414" lon="105.7277808"><ele>956.35</ele><time>2026-08-13T20:08:14.000Z</time></trkpt>
        <trkpt lat="28.2680707" lon="105.7278493"><ele>952.18</ele><time>2026-08-13T20:08:18.000Z</time></trkpt>
        <trkpt lat="28.2680996" lon="105.7279581"><ele>953.42</ele><time>2026-08-13T20:08:22.000Z</time></trkpt>
        <trkpt lat="28.2681885" lon="105.7280057"><ele>957.73</ele><time>2026-08-13T20:08:50.000Z</time></trkpt>
        <trkpt lat="28.2682895" lon="105.7280652"><ele>958.88</ele><time>2026-08-13T20:09:08.000Z</time></trkpt>
        <trkpt lat="28.2683842" lon="105.72814"><ele>962.24</ele><time>2026-08-13T20:09:18.000Z</time></trkpt>
        <trkpt lat="28.2684845" lon="105.7281715"><ele>965.92</ele><time>2026-08-13T20:09:32.000Z</time></trkpt>
        <trkpt lat="28.2685424" lon="105.72825"><ele>965.48</ele><time>2026-08-13T20:09:44.000Z</time></trkpt>
        <trkpt lat="28.2685931" lon="105.7282023"><ele>958.06</ele><time>2026-08-13T20:09:56.000Z</time></trkpt>
        <trkpt lat="28.2685043" lon="105.7282164"><ele>945.35</ele><time>2026-08-13T20:14:56.000Z</time></trkpt>
        <trkpt lat="28.2684317" lon="105.7281257"><ele>938.55</ele><time>2026-08-13T20:15:28.000Z</time></trkpt>
        <trkpt lat="28.2684718" lon="105.7282421"><ele>933.13</ele><time>2026-08-13T20:17:42.000Z</time></trkpt>
        <trkpt lat="28.2684718" lon="105.7282421"><ele>933.13</ele><time>2026-08-13T20:35:17.000Z</time></trkpt>
      </trkseg>
      <trkseg>
        <trkpt lat="28.2686436" lon="105.7283072"><ele>928.53</ele><time>2026-08-13T20:42:12.000Z</time></trkpt>
        <trkpt lat="28.2686436" lon="105.7283072"><ele>928.53</ele><time>2026-08-13T20:42:14.000Z</time></trkpt>
        <trkpt lat="28.2686691" lon="105.7284529"><ele>935.96</ele><time>2026-08-13T20:42:18.000Z</time></trkpt>
        <trkpt lat="28.2686935" lon="105.7283184"><ele>938.73</ele><time>2026-08-13T20:42:24.000Z</time></trkpt>
        <trkpt lat="28.2687645" lon="105.7282228"><ele>937.32</ele><time>2026-08-13T20:43:06.000Z</time></trkpt>
        <trkpt lat="28.2688548" lon="105.7281825"><ele>932.47</ele><time>2026-08-13T20:43:14.000Z</time></trkpt>
        <trkpt lat="28.2689589" lon="105.7281732"><ele>928.89</ele><time>2026-08-13T20:43:26.000Z</time></trkpt>
        <trkpt lat="28.2690554" lon="105.7282208"><ele>926.42</ele><time>2026-08-13T20:43:34.000Z</time></trkpt>
        <trkpt lat="28.2691231" lon="105.7283013"><ele>929.21</ele><time>2026-08-13T20:43:42.000Z</time></trkpt>
        <trkpt lat="28.2692096" lon="105.728365"><ele>931.08</ele><time>2026-08-13T20:43:52.000Z</time></trkpt>
        <trkpt lat="28.2693098" lon="105.7284305"><ele>934.41</ele><time>2026-08-13T20:44:06.000Z</time></trkpt>
        <trkpt lat="28.2693789" lon="105.728495"><ele>932.71</ele><time>2026-08-13T20:44:16.000Z</time></trkpt>
        <trkpt lat="28.2694289" lon="105.7285885"><ele>931.72</ele><time>2026-08-13T20:44:28.000Z</time></trkpt>
        <trkpt lat="28.2694849" lon="105.7286727"><ele>933.16</ele><time>2026-08-13T20:44:52.000Z</time></trkpt>
        <trkpt lat="28.269562" lon="105.7287452"><ele>932.25</ele><time>2026-08-13T20:45:04.000Z</time></trkpt>
        <trkpt lat="28.2696408" lon="105.7288082"><ele>930.49</ele><time>2026-08-13T20:45:18.000Z</time></trkpt>
        <trkpt lat="28.2696817" lon="105.7289026"><ele>928.25</ele><time>2026-08-13T20:45:30.000Z</time></trkpt>
        <trkpt lat="28.2697538" lon="105.7289733"><ele>924.78</ele><time>2026-08-13T20:45:40.000Z</time></trkpt>
        <trkpt lat="28.2698338" lon="105.7290385"><ele>921.7</ele><time>2026-08-13T20:45:48.000Z</time></trkpt>
        <trkpt lat="28.2698309" lon="105.7289619"><ele>918.12</ele><time>2026-08-13T20:46:06.000Z</time></trkpt>
        <trkpt lat="28.2697913" lon="105.728851"><ele>914.01</ele><time>2026-08-13T20:46:18.000Z</time></trkpt>
        <trkpt lat="28.2697658" lon="105.728804"><ele>916.78</ele><time>2026-08-13T20:46:20.000Z</time></trkpt>
        <trkpt lat="28.2696934" lon="105.7287485"><ele>908.54</ele><time>2026-08-13T20:46:30.000Z</time></trkpt>
        <trkpt lat="28.2696225" lon="105.7286665"><ele>901.07</ele><time>2026-08-13T20:47:30.000Z</time></trkpt>
        <trkpt lat="28.2696004" lon="105.7285611"><ele>894.32</ele><time>2026-08-13T20:47:56.000Z</time></trkpt>
        <trkpt lat="28.2696622" lon="105.7285872"><ele>891.53</ele><time>2026-08-13T20:48:06.000Z</time></trkpt>
        <trkpt lat="28.2697139" lon="105.7285115"><ele>888.71</ele><time>2026-08-13T20:49:26.000Z</time></trkpt>
        <trkpt lat="28.2697079" lon="105.7286219"><ele>886.43</ele><time>2026-08-13T20:50:12.000Z</time></trkpt>
        <trkpt lat="28.269646" lon="105.7285406"><ele>883.6</ele><time>2026-08-13T20:51:16.000Z</time></trkpt>
        <trkpt lat="28.2697134" lon="105.7286396"><ele>881.59</ele><time>2026-08-13T20:51:38.000Z</time></trkpt>
        <trkpt lat="28.2697626" lon="105.728756"><ele>877.93</ele><time>2026-08-13T20:51:58.000Z</time></trkpt>
        <trkpt lat="28.2698213" lon="105.7288496"><ele>876.13</ele><time>2026-08-13T20:52:06.000Z</time></trkpt>
        <trkpt lat="28.269862" lon="105.7289478"><ele>875.5</ele><time>2026-08-13T20:52:34.000Z</time></trkpt>
        <trkpt lat="28.2698479" lon="105.729059"><ele>875.99</ele><time>2026-08-13T20:52:46.000Z</time></trkpt>
        <trkpt lat="28.2698764" lon="105.7291643"><ele>877.59</ele><time>2026-08-13T20:52:54.000Z</time></trkpt>
        <trkpt lat="28.269913" lon="105.7292709"><ele>879.4</ele><time>2026-08-13T20:53:04.000Z</time></trkpt>
        <trkpt lat="28.2699546" lon="105.7293662"><ele>881.99</ele><time>2026-08-13T20:53:10.000Z</time></trkpt>
        <trkpt lat="28.2699835" lon="105.7294663"><ele>884.09</ele><time>2026-08-13T20:53:16.000Z</time></trkpt>
        <trkpt lat="28.2700227" lon="105.7295834"><ele>886.27</ele><time>2026-08-13T20:53:24.000Z</time></trkpt>
        <trkpt lat="28.2700213" lon="105.7297069"><ele>886.54</ele><time>2026-08-13T20:53:32.000Z</time></trkpt>
        <trkpt lat="28.2699951" lon="105.7298273"><ele>887.22</ele><time>2026-08-13T20:53:42.000Z</time></trkpt>
        <trkpt lat="28.2699446" lon="105.7299245"><ele>888.85</ele><time>2026-08-13T20:53:50.000Z</time></trkpt>
        <trkpt lat="28.2698978" lon="105.7300246"><ele>890.59</ele><time>2026-08-13T20:54:12.000Z</time></trkpt>
        <trkpt lat="28.2698586" lon="105.7301344"><ele>892.83</ele><time>2026-08-13T20:54:22.000Z</time></trkpt>
        <trkpt lat="28.2698451" lon="105.7302425"><ele>894.89</ele><time>2026-08-13T20:54:30.000Z</time></trkpt>
        <trkpt lat="28.269823" lon="105.7303425"><ele>896.91</ele><time>2026-08-13T20:54:50.000Z</time></trkpt>
        <trkpt lat="28.2697779" lon="105.7304435"><ele>897.48</ele><time>2026-08-13T20:55:04.000Z</time></trkpt>
        <trkpt lat="28.269707" lon="105.7305242"><ele>897.06</ele><time>2026-08-13T20:55:12.000Z</time></trkpt>
        <trkpt lat="28.2696962" lon="105.730563"><ele>896.03</ele><time>2026-08-13T20:55:24.000Z</time></trkpt>
        <trkpt lat="28.2696632" lon="105.730647"><ele>894.31</ele><time>2026-08-13T20:55:36.000Z</time></trkpt>
        <trkpt lat="28.2696336" lon="105.7307445"><ele>893.29</ele><time>2026-08-13T20:56:08.000Z</time></trkpt>
        <trkpt lat="28.2695412" lon="105.7307552"><ele>890.87</ele><time>2026-08-13T20:59:08.000Z</time></trkpt>
        <trkpt lat="28.2695149" lon="105.7307526"><ele>889.09</ele><time>2026-08-13T20:59:12.000Z</time></trkpt>
        <trkpt lat="28.2694074" lon="105.7307815"><ele>887.84</ele><time>2026-08-13T21:00:34.000Z</time></trkpt>
        <trkpt lat="28.2693156" lon="105.7307608"><ele>886.57</ele><time>2026-08-13T21:00:42.000Z</time></trkpt>
        <trkpt lat="28.2692129" lon="105.73077"><ele>886.38</ele><time>2026-08-13T21:00:50.000Z</time></trkpt>
        <trkpt lat="28.2691078" lon="105.7307764"><ele>886.84</ele><time>2026-08-13T21:00:58.000Z</time></trkpt>
        <trkpt lat="28.2690202" lon="105.7308313"><ele>888.96</ele><time>2026-08-13T21:01:08.000Z</time></trkpt>
        <trkpt lat="28.2689239" lon="105.7308572"><ele>892.35</ele><time>2026-08-13T21:01:18.000Z</time></trkpt>
        <trkpt lat="28.268836" lon="105.7308838"><ele>890.42</ele><time>2026-08-13T21:01:26.000Z</time></trkpt>
        <trkpt lat="28.2687479" lon="105.730902"><ele>888.83</ele><time>2026-08-13T21:01:36.000Z</time></trkpt>
        <trkpt lat="28.2686528" lon="105.7308868"><ele>888.51</ele><time>2026-08-13T21:01:44.000Z</time></trkpt>
        <trkpt lat="28.2686036" lon="105.7308915"><ele>889.11</ele><time>2026-08-13T21:01:48.000Z</time></trkpt>
        <trkpt lat="28.2685128" lon="105.7309091"><ele>889.48</ele><time>2026-08-13T21:01:58.000Z</time></trkpt>
        <trkpt lat="28.2684226" lon="105.7309424"><ele>890.37</ele><time>2026-08-13T21:02:04.000Z</time></trkpt>
        <trkpt lat="28.2683193" lon="105.7309896"><ele>891.31</ele><time>2026-08-13T21:02:14.000Z</time></trkpt>
        <trkpt lat="28.2682091" lon="105.73102"><ele>891.64</ele><time>2026-08-13T21:02:24.000Z</time></trkpt>
        <trkpt lat="28.2681004" lon="105.7310229"><ele>888.92</ele><time>2026-08-13T21:02:32.000Z</time></trkpt>
        <trkpt lat="28.2679998" lon="105.7310104"><ele>886.6</ele><time>2026-08-13T21:02:40.000Z</time></trkpt>
        <trkpt lat="28.2678967" lon="105.7310037"><ele>885.18</ele><time>2026-08-13T21:02:48.000Z</time></trkpt>
        <trkpt lat="28.2677905" lon="105.7310009"><ele>883.6</ele><time>2026-08-13T21:02:56.000Z</time></trkpt>
        <trkpt lat="28.2676832" lon="105.7310192"><ele>883.11</ele><time>2026-08-13T21:03:04.000Z</time></trkpt>
        <trkpt lat="28.2675752" lon="105.7310528"><ele>883.53</ele><time>2026-08-13T21:03:14.000Z</time></trkpt>
        <trkpt lat="28.267484" lon="105.7311077"><ele>885.35</ele><time>2026-08-13T21:03:22.000Z</time></trkpt>
        <trkpt lat="28.2674" lon="105.7311696"><ele>888.56</ele><time>2026-08-13T21:03:32.000Z</time></trkpt>
        <trkpt lat="28.267329" lon="105.7312146"><ele>887.55</ele><time>2026-08-13T21:03:40.000Z</time></trkpt>
        <trkpt lat="28.2672565" lon="105.7312844"><ele>887.11</ele><time>2026-08-13T21:03:50.000Z</time></trkpt>
        <trkpt lat="28.2671861" lon="105.7312562"><ele>888.02</ele><time>2026-08-13T21:04:16.000Z</time></trkpt>
        <trkpt lat="28.2671461" lon="105.7313132"><ele>889.49</ele><time>2026-08-13T21:04:22.000Z</time></trkpt>
        <trkpt lat="28.2670821" lon="105.7313859"><ele>889.99</ele><time>2026-08-13T21:04:34.000Z</time></trkpt>
        <trkpt lat="28.2670233" lon="105.7314773"><ele>891.53</ele><time>2026-08-13T21:04:42.000Z</time></trkpt>
        <trkpt lat="28.2670215" lon="105.7315845"><ele>892.48</ele><time>2026-08-13T21:04:52.000Z</time></trkpt>
        <trkpt lat="28.2670646" lon="105.731706"><ele>893.39</ele><time>2026-08-13T21:05:04.000Z</time></trkpt>
        <trkpt lat="28.2670798" lon="105.731842"><ele>894.43</ele><time>2026-08-13T21:05:12.000Z</time></trkpt>
        <trkpt lat="28.2671195" lon="105.7319696"><ele>895.15</ele><time>2026-08-13T21:05:20.000Z</time></trkpt>
        <trkpt lat="28.267159" lon="105.7320848"><ele>896.54</ele><time>2026-08-13T21:05:28.000Z</time></trkpt>
        <trkpt lat="28.267132" lon="105.732178"><ele>897.48</ele><time>2026-08-13T21:05:34.000Z</time></trkpt>
        <trkpt lat="28.2670724" lon="105.7322721"><ele>898.19</ele><time>2026-08-13T21:05:42.000Z</time></trkpt>
        <trkpt lat="28.2670093" lon="105.7323688"><ele>898.27</ele><time>2026-08-13T21:05:50.000Z</time></trkpt>
        <trkpt lat="28.266993" lon="105.7324775"><ele>897.87</ele><time>2026-08-13T21:06:00.000Z</time></trkpt>
        <trkpt lat="28.2669966" lon="105.7325225"><ele>895.23</ele><time>2026-08-13T21:06:04.000Z</time></trkpt>
        <trkpt lat="28.2669949" lon="105.7326117"><ele>893.63</ele><time>2026-08-13T21:06:16.000Z</time></trkpt>
        <trkpt lat="28.2669573" lon="105.7327144"><ele>890.3</ele><time>2026-08-13T21:06:24.000Z</time></trkpt>
        <trkpt lat="28.2668939" lon="105.7328281"><ele>887.73</ele><time>2026-08-13T21:06:32.000Z</time></trkpt>
        <trkpt lat="28.2668369" lon="105.7329481"><ele>883.43</ele><time>2026-08-13T21:06:40.000Z</time></trkpt>
        <trkpt lat="28.2667664" lon="105.7330515"><ele>879.26</ele><time>2026-08-13T21:06:48.000Z</time></trkpt>
        <trkpt lat="28.2666906" lon="105.7331237"><ele>878.49</ele><time>2026-08-13T21:06:58.000Z</time></trkpt>
        <trkpt lat="28.2666472" lon="105.733232"><ele>883.32</ele><time>2026-08-13T21:07:10.000Z</time></trkpt>
        <trkpt lat="28.266621" lon="105.7333593"><ele>885.34</ele><time>2026-08-13T21:07:16.000Z</time></trkpt>
        <trkpt lat="28.2665625" lon="105.7334531"><ele>886.87</ele><time>2026-08-13T21:07:24.000Z</time></trkpt>
        <trkpt lat="28.2664259" lon="105.7334529"><ele>886.33</ele><time>2026-08-13T21:07:38.000Z</time></trkpt>
        <trkpt lat="28.2663081" lon="105.7334404"><ele>891.82</ele><time>2026-08-13T21:07:44.000Z</time></trkpt>
        <trkpt lat="28.2661815" lon="105.7334091"><ele>895.91</ele><time>2026-08-13T21:07:54.000Z</time></trkpt>
        <trkpt lat="28.2660783" lon="105.733381"><ele>897.68</ele><time>2026-08-13T21:08:00.000Z</time></trkpt>
        <trkpt lat="28.265993" lon="105.7333281"><ele>898.28</ele><time>2026-08-13T21:08:08.000Z</time></trkpt>
        <trkpt lat="28.2659118" lon="105.7332733"><ele>898.62</ele><time>2026-08-13T21:08:16.000Z</time></trkpt>
        <trkpt lat="28.265817" lon="105.7332327"><ele>899.34</ele><time>2026-08-13T21:08:24.000Z</time></trkpt>
        <trkpt lat="28.2657214" lon="105.7331974"><ele>899.99</ele><time>2026-08-13T21:08:32.000Z</time></trkpt>
        <trkpt lat="28.2656253" lon="105.7331505"><ele>900.3</ele><time>2026-08-13T21:08:40.000Z</time></trkpt>
        <trkpt lat="28.2655167" lon="105.7331973"><ele>900.25</ele><time>2026-08-13T21:09:08.000Z</time></trkpt>
        <trkpt lat="28.2654265" lon="105.733132"><ele>902.68</ele><time>2026-08-13T21:09:16.000Z</time></trkpt>
        <trkpt lat="28.265327" lon="105.733163"><ele>906.46</ele><time>2026-08-13T21:09:24.000Z</time></trkpt>
        <trkpt lat="28.2652182" lon="105.7331497"><ele>908.38</ele><time>2026-08-13T21:09:34.000Z</time></trkpt>
        <trkpt lat="28.2651088" lon="105.7331675"><ele>908.26</ele><time>2026-08-13T21:09:44.000Z</time></trkpt>
        <trkpt lat="28.2650113" lon="105.7331531"><ele>908.25</ele><time>2026-08-13T21:09:56.000Z</time></trkpt>
        <trkpt lat="28.2649214" lon="105.7331715"><ele>907.08</ele><time>2026-08-13T21:10:04.000Z</time></trkpt>
        <trkpt lat="28.2648328" lon="105.7332062"><ele>905.46</ele><time>2026-08-13T21:10:12.000Z</time></trkpt>
        <trkpt lat="28.264736" lon="105.7332242"><ele>904.88</ele><time>2026-08-13T21:10:20.000Z</time></trkpt>
        <trkpt lat="28.2646461" lon="105.7332608"><ele>903.69</ele><time>2026-08-13T21:10:28.000Z</time></trkpt>
        <trkpt lat="28.264552" lon="105.7332994"><ele>903.01</ele><time>2026-08-13T21:10:36.000Z</time></trkpt>
        <trkpt lat="28.2644615" lon="105.7333551"><ele>903.16</ele><time>2026-08-13T21:10:44.000Z</time></trkpt>
        <trkpt lat="28.2643725" lon="105.7333955"><ele>902.49</ele><time>2026-08-13T21:10:56.000Z</time></trkpt>
        <trkpt lat="28.2642937" lon="105.7334698"><ele>900.87</ele><time>2026-08-13T21:11:04.000Z</time></trkpt>
        <trkpt lat="28.2642179" lon="105.7335359"><ele>900.48</ele><time>2026-08-13T21:11:10.000Z</time></trkpt>
        <trkpt lat="28.2641233" lon="105.7335785"><ele>900.85</ele><time>2026-08-13T21:11:18.000Z</time></trkpt>
        <trkpt lat="28.2640353" lon="105.733632"><ele>901.72</ele><time>2026-08-13T21:11:24.000Z</time></trkpt>
        <trkpt lat="28.2639293" lon="105.7336752"><ele>902.14</ele><time>2026-08-13T21:11:36.000Z</time></trkpt>
        <trkpt lat="28.2638421" lon="105.7337418"><ele>901.42</ele><time>2026-08-13T21:11:42.000Z</time></trkpt>
        <trkpt lat="28.2637493" lon="105.7337979"><ele>900.9</ele><time>2026-08-13T21:11:50.000Z</time></trkpt>
        <trkpt lat="28.2636567" lon="105.733836"><ele>901.91</ele><time>2026-08-13T21:11:58.000Z</time></trkpt>
        <trkpt lat="28.2635595" lon="105.7338619"><ele>903.11</ele><time>2026-08-13T21:12:06.000Z</time></trkpt>
        <trkpt lat="28.2634585" lon="105.7338919"><ele>904.17</ele><time>2026-08-13T21:12:14.000Z</time></trkpt>
        <trkpt lat="28.2633504" lon="105.7339158"><ele>905.26</ele><time>2026-08-13T21:12:22.000Z</time></trkpt>
        <trkpt lat="28.2632525" lon="105.7339658"><ele>905.68</ele><time>2026-08-13T21:12:30.000Z</time></trkpt>
        <trkpt lat="28.2631481" lon="105.733992"><ele>905.61</ele><time>2026-08-13T21:12:38.000Z</time></trkpt>
        <trkpt lat="28.2630674" lon="105.7340528"><ele>906.24</ele><time>2026-08-13T21:12:46.000Z</time></trkpt>
        <trkpt lat="28.2629889" lon="105.7341324"><ele>906.79</ele><time>2026-08-13T21:12:54.000Z</time></trkpt>
        <trkpt lat="28.2629047" lon="105.7341824"><ele>906.6</ele><time>2026-08-13T21:13:02.000Z</time></trkpt>
        <trkpt lat="28.2628007" lon="105.7342224"><ele>906.55</ele><time>2026-08-13T21:13:10.000Z</time></trkpt>
        <trkpt lat="28.2626944" lon="105.7342735"><ele>906.31</ele><time>2026-08-13T21:13:20.000Z</time></trkpt>
        <trkpt lat="28.2626182" lon="105.7343564"><ele>906.05</ele><time>2026-08-13T21:13:28.000Z</time></trkpt>
        <trkpt lat="28.262525" lon="105.7343875"><ele>906.28</ele><time>2026-08-13T21:13:36.000Z</time></trkpt>
        <trkpt lat="28.2624189" lon="105.7343646"><ele>914.66</ele><time>2026-08-13T21:13:44.000Z</time></trkpt>
        <trkpt lat="28.2623155" lon="105.7343807"><ele>911.06</ele><time>2026-08-13T21:13:52.000Z</time></trkpt>
        <trkpt lat="28.2622141" lon="105.7343683"><ele>908.78</ele><time>2026-08-13T21:14:00.000Z</time></trkpt>
        <trkpt lat="28.2621088" lon="105.7343653"><ele>906.96</ele><time>2026-08-13T21:14:08.000Z</time></trkpt>
        <trkpt lat="28.2620041" lon="105.7343342"><ele>916.21</ele><time>2026-08-13T21:14:18.000Z</time></trkpt>
        <trkpt lat="28.2619073" lon="105.7343109"><ele>921.25</ele><time>2026-08-13T21:14:30.000Z</time></trkpt>
        <trkpt lat="28.2618139" lon="105.7343296"><ele>914.9</ele><time>2026-08-13T21:14:38.000Z</time></trkpt>
        <trkpt lat="28.2617242" lon="105.7343908"><ele>911.11</ele><time>2026-08-13T21:14:46.000Z</time></trkpt>
        <trkpt lat="28.2616185" lon="105.7344015"><ele>908.99</ele><time>2026-08-13T21:14:58.000Z</time></trkpt>
        <trkpt lat="28.261519" lon="105.7343586"><ele>907.81</ele><time>2026-08-13T21:15:06.000Z</time></trkpt>
        <trkpt lat="28.2614296" lon="105.7343034"><ele>906.24</ele><time>2026-08-13T21:15:14.000Z</time></trkpt>
        <trkpt lat="28.2613319" lon="105.734259"><ele>904.54</ele><time>2026-08-13T21:15:22.000Z</time></trkpt>
        <trkpt lat="28.2612339" lon="105.7342095"><ele>902.43</ele><time>2026-08-13T21:15:30.000Z</time></trkpt>
        <trkpt lat="28.2611368" lon="105.7341609"><ele>900.66</ele><time>2026-08-13T21:15:40.000Z</time></trkpt>
        <trkpt lat="28.2610369" lon="105.7341366"><ele>899.89</ele><time>2026-08-13T21:15:50.000Z</time></trkpt>
        <trkpt lat="28.2609325" lon="105.7341066"><ele>900.22</ele><time>2026-08-13T21:15:58.000Z</time></trkpt>
        <trkpt lat="28.260836" lon="105.7340678"><ele>900.76</ele><time>2026-08-13T21:16:08.000Z</time></trkpt>
        <trkpt lat="28.2607254" lon="105.7340251"><ele>901.33</ele><time>2026-08-13T21:16:16.000Z</time></trkpt>
        <trkpt lat="28.2606226" lon="105.7340154"><ele>901.78</ele><time>2026-08-13T21:16:26.000Z</time></trkpt>
        <trkpt lat="28.2605314" lon="105.733997"><ele>902.89</ele><time>2026-08-13T21:16:34.000Z</time></trkpt>
        <trkpt lat="28.2604335" lon="105.7339736"><ele>904.03</ele><time>2026-08-13T21:16:42.000Z</time></trkpt>
        <trkpt lat="28.2603393" lon="105.7339592"><ele>904.66</ele><time>2026-08-13T21:16:50.000Z</time></trkpt>
        <trkpt lat="28.2602352" lon="105.7339639"><ele>904.78</ele><time>2026-08-13T21:16:58.000Z</time></trkpt>
        <trkpt lat="28.2601364" lon="105.7339669"><ele>904.99</ele><time>2026-08-13T21:17:06.000Z</time></trkpt>
        <trkpt lat="28.260032" lon="105.7339902"><ele>904.75</ele><time>2026-08-13T21:17:14.000Z</time></trkpt>
        <trkpt lat="28.2599359" lon="105.7339927"><ele>904.39</ele><time>2026-08-13T21:17:22.000Z</time></trkpt>
        <trkpt lat="28.2598394" lon="105.7340156"><ele>904.53</ele><time>2026-08-13T21:17:32.000Z</time></trkpt>
        <trkpt lat="28.2597857" lon="105.7340114"><ele>906.42</ele><time>2026-08-13T21:17:36.000Z</time></trkpt>
        <trkpt lat="28.2597067" lon="105.7340237"><ele>908.93</ele><time>2026-08-13T21:17:54.000Z</time></trkpt>
        <trkpt lat="28.2596377" lon="105.7340837"><ele>912.08</ele><time>2026-08-13T21:18:02.000Z</time></trkpt>
        <trkpt lat="28.2595686" lon="105.7341627"><ele>915.17</ele><time>2026-08-13T21:18:12.000Z</time></trkpt>
        <trkpt lat="28.2595305" lon="105.7342647"><ele>920.86</ele><time>2026-08-13T21:18:22.000Z</time></trkpt>
        <trkpt lat="28.2595072" lon="105.7343777"><ele>922.52</ele><time>2026-08-13T21:18:32.000Z</time></trkpt>
        <trkpt lat="28.2594847" lon="105.734485"><ele>922.52</ele><time>2026-08-13T21:18:40.000Z</time></trkpt>
        <trkpt lat="28.2594763" lon="105.7345932"><ele>921.81</ele><time>2026-08-13T21:18:48.000Z</time></trkpt>
        <trkpt lat="28.2594675" lon="105.7347014"><ele>921.92</ele><time>2026-08-13T21:18:56.000Z</time></trkpt>
        <trkpt lat="28.2594576" lon="105.7348095"><ele>921.76</ele><time>2026-08-13T21:19:04.000Z</time></trkpt>
        <trkpt lat="28.2594436" lon="105.7349251"><ele>921.54</ele><time>2026-08-13T21:19:14.000Z</time></trkpt>
        <trkpt lat="28.2594315" lon="105.7350371"><ele>920.76</ele><time>2026-08-13T21:19:22.000Z</time></trkpt>
        <trkpt lat="28.2594346" lon="105.7351496"><ele>920.34</ele><time>2026-08-13T21:19:34.000Z</time></trkpt>
        <trkpt lat="28.2594246" lon="105.7352531"><ele>919.95</ele><time>2026-08-13T21:19:40.000Z</time></trkpt>
        <trkpt lat="28.2594129" lon="105.7353699"><ele>919.73</ele><time>2026-08-13T21:19:50.000Z</time></trkpt>
        <trkpt lat="28.2594119" lon="105.735484"><ele>919.58</ele><time>2026-08-13T21:19:58.000Z</time></trkpt>
        <trkpt lat="28.2594141" lon="105.7355915"><ele>919.39</ele><time>2026-08-13T21:20:08.000Z</time></trkpt>
        <trkpt lat="28.2594201" lon="105.735654"><ele>919.07</ele><time>2026-08-13T21:20:12.000Z</time></trkpt>
        <trkpt lat="28.2594028" lon="105.7357718"><ele>918.81</ele><time>2026-08-13T21:20:20.000Z</time></trkpt>
        <trkpt lat="28.2593786" lon="105.7359018"><ele>918.7</ele><time>2026-08-13T21:20:28.000Z</time></trkpt>
        <trkpt lat="28.2593778" lon="105.7360251"><ele>918.68</ele><time>2026-08-13T21:20:38.000Z</time></trkpt>
        <trkpt lat="28.2592247" lon="105.736123"><ele>918.93</ele><time>2026-08-13T21:20:44.000Z</time></trkpt>
        <trkpt lat="28.2590989" lon="105.7361614"><ele>918.44</ele><time>2026-08-13T21:20:46.000Z</time></trkpt>
        <trkpt lat="28.2589914" lon="105.7361859"><ele>921.07</ele><time>2026-08-13T21:20:50.000Z</time></trkpt>
        <trkpt lat="28.2588962" lon="105.7362453"><ele>923.67</ele><time>2026-08-13T21:20:56.000Z</time></trkpt>
        <trkpt lat="28.2589418" lon="105.7363405"><ele>927.75</ele><time>2026-08-13T21:21:04.000Z</time></trkpt>
        <trkpt lat="28.2590414" lon="105.7364379"><ele>930.74</ele><time>2026-08-13T21:21:08.000Z</time></trkpt>
        <trkpt lat="28.2591443" lon="105.7365142"><ele>931.99</ele><time>2026-08-13T21:21:16.000Z</time></trkpt>
        <trkpt lat="28.2593013" lon="105.7366091"><ele>932.33</ele><time>2026-08-13T21:21:22.000Z</time></trkpt>
        <trkpt lat="28.2594164" lon="105.7366991"><ele>932.07</ele><time>2026-08-13T21:21:24.000Z</time></trkpt>
        <trkpt lat="28.2594785" lon="105.7367699"><ele>931.6</ele><time>2026-08-13T21:21:28.000Z</time></trkpt>
        <trkpt lat="28.2594251" lon="105.7367365"><ele>930.47</ele><time>2026-08-13T21:21:42.000Z</time></trkpt>
        <trkpt lat="28.2593642" lon="105.7366448"><ele>930.51</ele><time>2026-08-13T21:21:46.000Z</time></trkpt>
        <trkpt lat="28.2593293" lon="105.7365963"><ele>930.12</ele><time>2026-08-13T21:21:50.000Z</time></trkpt>
        <trkpt lat="28.2593015" lon="105.7366962"><ele>929.67</ele><time>2026-08-13T21:22:06.000Z</time></trkpt>
        <trkpt lat="28.2592875" lon="105.7368249"><ele>928.69</ele><time>2026-08-13T21:22:14.000Z</time></trkpt>
        <trkpt lat="28.2592833" lon="105.736947"><ele>927.74</ele><time>2026-08-13T21:22:20.000Z</time></trkpt>
        <trkpt lat="28.2592818" lon="105.7370831"><ele>927.69</ele><time>2026-08-13T21:22:28.000Z</time></trkpt>
        <trkpt lat="28.2592271" lon="105.7371711"><ele>929.98</ele><time>2026-08-13T21:22:40.000Z</time></trkpt>
        <trkpt lat="28.259139" lon="105.7372208"><ele>931.94</ele><time>2026-08-13T21:22:46.000Z</time></trkpt>
        <trkpt lat="28.2590428" lon="105.7372519"><ele>932.13</ele><time>2026-08-13T21:22:50.000Z</time></trkpt>
        <trkpt lat="28.2589331" lon="105.7372943"><ele>930.83</ele><time>2026-08-13T21:22:58.000Z</time></trkpt>
        <trkpt lat="28.2588058" lon="105.7373219"><ele>929.14</ele><time>2026-08-13T21:23:02.000Z</time></trkpt>
        <trkpt lat="28.2587057" lon="105.7373574"><ele>923.46</ele><time>2026-08-13T21:23:16.000Z</time></trkpt>
        <trkpt lat="28.2586538" lon="105.7374545"><ele>923.34</ele><time>2026-08-13T21:23:28.000Z</time></trkpt>
        <trkpt lat="28.2586108" lon="105.7375549"><ele>921.14</ele><time>2026-08-13T21:23:32.000Z</time></trkpt>
        <trkpt lat="28.2585429" lon="105.7376205"><ele>919.79</ele><time>2026-08-13T21:23:36.000Z</time></trkpt>
        <trkpt lat="28.2584644" lon="105.7376778"><ele>918.46</ele><time>2026-08-13T21:23:42.000Z</time></trkpt>
        <trkpt lat="28.2583737" lon="105.7377346"><ele>918.66</ele><time>2026-08-13T21:23:50.000Z</time></trkpt>
        <trkpt lat="28.2582817" lon="105.737782"><ele>919.65</ele><time>2026-08-13T21:23:58.000Z</time></trkpt>
        <trkpt lat="28.2581932" lon="105.737834"><ele>919.84</ele><time>2026-08-13T21:24:06.000Z</time></trkpt>
        <trkpt lat="28.258111" lon="105.7378965"><ele>920.1</ele><time>2026-08-13T21:24:14.000Z</time></trkpt>
        <trkpt lat="28.2580346" lon="105.7379621"><ele>919.53</ele><time>2026-08-13T21:24:22.000Z</time></trkpt>
        <trkpt lat="28.2579689" lon="105.73804"><ele>919.38</ele><time>2026-08-13T21:24:30.000Z</time></trkpt>
        <trkpt lat="28.2579419" lon="105.7381422"><ele>918.49</ele><time>2026-08-13T21:24:38.000Z</time></trkpt>
        <trkpt lat="28.2578827" lon="105.7382221"><ele>918.64</ele><time>2026-08-13T21:24:48.000Z</time></trkpt>
        <trkpt lat="28.2578137" lon="105.7383125"><ele>918.64</ele><time>2026-08-13T21:24:56.000Z</time></trkpt>
        <trkpt lat="28.2577634" lon="105.7384101"><ele>918.48</ele><time>2026-08-13T21:25:04.000Z</time></trkpt>
        <trkpt lat="28.2577598" lon="105.7384472"><ele>917.42</ele><time>2026-08-13T21:25:08.000Z</time></trkpt>
        <trkpt lat="28.2577216" lon="105.7385166"><ele>914.29</ele><time>2026-08-13T21:25:16.000Z</time></trkpt>
        <trkpt lat="28.2576714" lon="105.7386206"><ele>911.46</ele><time>2026-08-13T21:25:24.000Z</time></trkpt>
        <trkpt lat="28.2576245" lon="105.7387186"><ele>909.02</ele><time>2026-08-13T21:25:34.000Z</time></trkpt>
        <trkpt lat="28.2576035" lon="105.7388357"><ele>905.82</ele><time>2026-08-13T21:25:42.000Z</time></trkpt>
        <trkpt lat="28.2575903" lon="105.7389694"><ele>904.33</ele><time>2026-08-13T21:25:48.000Z</time></trkpt>
        <trkpt lat="28.2575196" lon="105.7390502"><ele>903.74</ele><time>2026-08-13T21:25:56.000Z</time></trkpt>
        <trkpt lat="28.2574282" lon="105.7390847"><ele>903.19</ele><time>2026-08-13T21:26:02.000Z</time></trkpt>
        <trkpt lat="28.2574439" lon="105.7391672"><ele>904.03</ele><time>2026-08-13T21:26:06.000Z</time></trkpt>
        <trkpt lat="28.2574675" lon="105.7392822"><ele>904.46</ele><time>2026-08-13T21:26:12.000Z</time></trkpt>
        <trkpt lat="28.2574789" lon="105.7394034"><ele>904.65</ele><time>2026-08-13T21:26:18.000Z</time></trkpt>
        <trkpt lat="28.2574163" lon="105.7395069"><ele>904.76</ele><time>2026-08-13T21:26:26.000Z</time></trkpt>
        <trkpt lat="28.2573366" lon="105.7395801"><ele>904.73</ele><time>2026-08-13T21:26:34.000Z</time></trkpt>
        <trkpt lat="28.2572725" lon="105.7396794"><ele>904.64</ele><time>2026-08-13T21:26:44.000Z</time></trkpt>
        <trkpt lat="28.2571888" lon="105.7397455"><ele>904.07</ele><time>2026-08-13T21:26:52.000Z</time></trkpt>
        <trkpt lat="28.2571083" lon="105.7398166"><ele>904.89</ele><time>2026-08-13T21:27:00.000Z</time></trkpt>
        <trkpt lat="28.2570129" lon="105.7398021"><ele>905.82</ele><time>2026-08-13T21:27:04.000Z</time></trkpt>
        <trkpt lat="28.2569075" lon="105.7397521"><ele>906.58</ele><time>2026-08-13T21:27:08.000Z</time></trkpt>
        <trkpt lat="28.2567968" lon="105.7397263"><ele>907.23</ele><time>2026-08-13T21:27:16.000Z</time></trkpt>
        <trkpt lat="28.2566924" lon="105.7397309"><ele>908.97</ele><time>2026-08-13T21:27:24.000Z</time></trkpt>
        <trkpt lat="28.2565856" lon="105.7397268"><ele>911.26</ele><time>2026-08-13T21:27:32.000Z</time></trkpt>
        <trkpt lat="28.2564888" lon="105.7397035"><ele>913.74</ele><time>2026-08-13T21:27:40.000Z</time></trkpt>
        <trkpt lat="28.2563897" lon="105.7396761"><ele>915.51</ele><time>2026-08-13T21:27:48.000Z</time></trkpt>
        <trkpt lat="28.2562943" lon="105.739621"><ele>916.43</ele><time>2026-08-13T21:27:56.000Z</time></trkpt>
        <trkpt lat="28.2561929" lon="105.7396268"><ele>916.69</ele><time>2026-08-13T21:28:06.000Z</time></trkpt>
        <trkpt lat="28.2561603" lon="105.7395359"><ele>916.8</ele><time>2026-08-13T21:28:10.000Z</time></trkpt>
        <trkpt lat="28.2561755" lon="105.7394272"><ele>920.1</ele><time>2026-08-13T21:28:12.000Z</time></trkpt>
        <trkpt lat="28.2561226" lon="105.7393776"><ele>922.22</ele><time>2026-08-13T21:28:28.000Z</time></trkpt>
        <trkpt lat="28.2560266" lon="105.739368"><ele>921.28</ele><time>2026-08-13T21:28:40.000Z</time></trkpt>
        <trkpt lat="28.2559495" lon="105.7393006"><ele>920.72</ele><time>2026-08-13T21:28:48.000Z</time></trkpt>
        <trkpt lat="28.25589" lon="105.7392065"><ele>922.37</ele><time>2026-08-13T21:28:54.000Z</time></trkpt>
        <trkpt lat="28.2558415" lon="105.739112"><ele>924.13</ele><time>2026-08-13T21:28:58.000Z</time></trkpt>
        <trkpt lat="28.2557894" lon="105.7390217"><ele>925.51</ele><time>2026-08-13T21:29:10.000Z</time></trkpt>
        <trkpt lat="28.2556879" lon="105.7390307"><ele>928.59</ele><time>2026-08-13T21:29:22.000Z</time></trkpt>
        <trkpt lat="28.2555736" lon="105.7390758"><ele>936.94</ele><time>2026-08-13T21:29:30.000Z</time></trkpt>
        <trkpt lat="28.2554748" lon="105.7390378"><ele>945.72</ele><time>2026-08-13T21:29:38.000Z</time></trkpt>
        <trkpt lat="28.2554056" lon="105.7389507"><ele>954.82</ele><time>2026-08-13T21:29:44.000Z</time></trkpt>
        <trkpt lat="28.255346" lon="105.7388518"><ele>962.24</ele><time>2026-08-13T21:29:52.000Z</time></trkpt>
        <trkpt lat="28.2552602" lon="105.7388505"><ele>973.28</ele><time>2026-08-13T21:29:58.000Z</time></trkpt>
        <trkpt lat="28.2551542" lon="105.7389181"><ele>983.21</ele><time>2026-08-13T21:30:04.000Z</time></trkpt>
        <trkpt lat="28.2550604" lon="105.7389933"><ele>990.52</ele><time>2026-08-13T21:30:08.000Z</time></trkpt>
        <trkpt lat="28.2549697" lon="105.7390437"><ele>965.65</ele><time>2026-08-13T21:30:14.000Z</time></trkpt>
        <trkpt lat="28.2548635" lon="105.7390502"><ele>950.73</ele><time>2026-08-13T21:30:22.000Z</time></trkpt>
        <trkpt lat="28.2547661" lon="105.7390172"><ele>941.41</ele><time>2026-08-13T21:30:30.000Z</time></trkpt>
        <trkpt lat="28.2546699" lon="105.7389745"><ele>934.94</ele><time>2026-08-13T21:30:38.000Z</time></trkpt>
        <trkpt lat="28.2545632" lon="105.7389596"><ele>931.03</ele><time>2026-08-13T21:30:48.000Z</time></trkpt>
        <trkpt lat="28.254461" lon="105.7389957"><ele>927.36</ele><time>2026-08-13T21:30:58.000Z</time></trkpt>
        <trkpt lat="28.2543635" lon="105.7390195"><ele>923.17</ele><time>2026-08-13T21:31:06.000Z</time></trkpt>
        <trkpt lat="28.2542739" lon="105.7390599"><ele>921.36</ele><time>2026-08-13T21:31:16.000Z</time></trkpt>
        <trkpt lat="28.2541742" lon="105.7390672"><ele>918.75</ele><time>2026-08-13T21:31:26.000Z</time></trkpt>
        <trkpt lat="28.2540762" lon="105.7391122"><ele>917.6</ele><time>2026-08-13T21:31:36.000Z</time></trkpt>
        <trkpt lat="28.2539883" lon="105.7391765"><ele>917.99</ele><time>2026-08-13T21:31:46.000Z</time></trkpt>
        <trkpt lat="28.2539168" lon="105.7392532"><ele>917.94</ele><time>2026-08-13T21:31:54.000Z</time></trkpt>
        <trkpt lat="28.2538529" lon="105.7393433"><ele>917.4</ele><time>2026-08-13T21:32:02.000Z</time></trkpt>
        <trkpt lat="28.2537883" lon="105.7394236"><ele>917.64</ele><time>2026-08-13T21:32:14.000Z</time></trkpt>
        <trkpt lat="28.2537176" lon="105.7394886"><ele>917.12</ele><time>2026-08-13T21:32:22.000Z</time></trkpt>
        <trkpt lat="28.2536511" lon="105.7395756"><ele>917.26</ele><time>2026-08-13T21:32:30.000Z</time></trkpt>
        <trkpt lat="28.2535853" lon="105.7396576"><ele>917.16</ele><time>2026-08-13T21:32:38.000Z</time></trkpt>
        <trkpt lat="28.2535232" lon="105.7397361"><ele>917.21</ele><time>2026-08-13T21:32:46.000Z</time></trkpt>
        <trkpt lat="28.2534724" lon="105.7398451"><ele>916.99</ele><time>2026-08-13T21:32:56.000Z</time></trkpt>
        <trkpt lat="28.2534175" lon="105.7399515"><ele>916.72</ele><time>2026-08-13T21:33:02.000Z</time></trkpt>
        <trkpt lat="28.2533595" lon="105.7400617"><ele>916.61</ele><time>2026-08-13T21:33:10.000Z</time></trkpt>
        <trkpt lat="28.2532942" lon="105.740159"><ele>916.69</ele><time>2026-08-13T21:33:20.000Z</time></trkpt>
        <trkpt lat="28.2532268" lon="105.7402615"><ele>916.81</ele><time>2026-08-13T21:33:28.000Z</time></trkpt>
        <trkpt lat="28.2531538" lon="105.7403591"><ele>916.88</ele><time>2026-08-13T21:33:38.000Z</time></trkpt>
        <trkpt lat="28.2530907" lon="105.7404452"><ele>916.97</ele><time>2026-08-13T21:33:44.000Z</time></trkpt>
        <trkpt lat="28.2530637" lon="105.7404735"><ele>916.55</ele><time>2026-08-13T21:33:48.000Z</time></trkpt>
        <trkpt lat="28.2529946" lon="105.7405078"><ele>916.22</ele><time>2026-08-13T21:34:00.000Z</time></trkpt>
        <trkpt lat="28.25292" lon="105.7405836"><ele>916.37</ele><time>2026-08-13T21:34:08.000Z</time></trkpt>
        <trkpt lat="28.2528561" lon="105.7406748"><ele>916.17</ele><time>2026-08-13T21:34:16.000Z</time></trkpt>
        <trkpt lat="28.2527788" lon="105.7407506"><ele>915.71</ele><time>2026-08-13T21:34:24.000Z</time></trkpt>
        <trkpt lat="28.2526982" lon="105.7408113"><ele>916.22</ele><time>2026-08-13T21:34:32.000Z</time></trkpt>
        <trkpt lat="28.2526107" lon="105.7408601"><ele>921.87</ele><time>2026-08-13T21:34:40.000Z</time></trkpt>
        <trkpt lat="28.2525274" lon="105.740916"><ele>921.25</ele><time>2026-08-13T21:34:48.000Z</time></trkpt>
        <trkpt lat="28.2524354" lon="105.740977"><ele>920.83</ele><time>2026-08-13T21:34:58.000Z</time></trkpt>
        <trkpt lat="28.2523525" lon="105.741064"><ele>924.69</ele><time>2026-08-13T21:35:06.000Z</time></trkpt>
        <trkpt lat="28.2522775" lon="105.7411405"><ele>927.76</ele><time>2026-08-13T21:35:14.000Z</time></trkpt>
        <trkpt lat="28.2521985" lon="105.7412305"><ele>929.75</ele><time>2026-08-13T21:35:24.000Z</time></trkpt>
        <trkpt lat="28.2521858" lon="105.7412751"><ele>930.97</ele><time>2026-08-13T21:35:30.000Z</time></trkpt>
        <trkpt lat="28.2521258" lon="105.7413435"><ele>932.36</ele><time>2026-08-13T21:35:44.000Z</time></trkpt>
        <trkpt lat="28.2520459" lon="105.7414216"><ele>933.38</ele><time>2026-08-13T21:35:52.000Z</time></trkpt>
        <trkpt lat="28.2520041" lon="105.7415208"><ele>935.28</ele><time>2026-08-13T21:36:00.000Z</time></trkpt>
        <trkpt lat="28.2519932" lon="105.7416327"><ele>937.59</ele><time>2026-08-13T21:36:10.000Z</time></trkpt>
        <trkpt lat="28.2519192" lon="105.7417075"><ele>937.15</ele><time>2026-08-13T21:36:16.000Z</time></trkpt>
        <trkpt lat="28.2518331" lon="105.741757"><ele>940.13</ele><time>2026-08-13T21:36:22.000Z</time></trkpt>
        <trkpt lat="28.2517437" lon="105.7418277"><ele>939.99</ele><time>2026-08-13T21:36:30.000Z</time></trkpt>
        <trkpt lat="28.2516822" lon="105.7419148"><ele>938.62</ele><time>2026-08-13T21:36:38.000Z</time></trkpt>
        <trkpt lat="28.2516332" lon="105.7420039"><ele>936.73</ele><time>2026-08-13T21:36:46.000Z</time></trkpt>
        <trkpt lat="28.2515514" lon="105.7420823"><ele>934.33</ele><time>2026-08-13T21:36:54.000Z</time></trkpt>
        <trkpt lat="28.2514696" lon="105.7421554"><ele>932.69</ele><time>2026-08-13T21:37:02.000Z</time></trkpt>
        <trkpt lat="28.2514036" lon="105.7422377"><ele>932.13</ele><time>2026-08-13T21:37:10.000Z</time></trkpt>
        <trkpt lat="28.2513351" lon="105.7423129"><ele>931.48</ele><time>2026-08-13T21:37:16.000Z</time></trkpt>
        <trkpt lat="28.251263" lon="105.7423987"><ele>931.11</ele><time>2026-08-13T21:37:24.000Z</time></trkpt>
        <trkpt lat="28.2511971" lon="105.7424961"><ele>930.56</ele><time>2026-08-13T21:37:34.000Z</time></trkpt>
        <trkpt lat="28.2511404" lon="105.7425921"><ele>929.91</ele><time>2026-08-13T21:37:42.000Z</time></trkpt>
        <trkpt lat="28.2510919" lon="105.7426921"><ele>929.19</ele><time>2026-08-13T21:37:50.000Z</time></trkpt>
        <trkpt lat="28.2510555" lon="105.7428005"><ele>928.44</ele><time>2026-08-13T21:37:58.000Z</time></trkpt>
        <trkpt lat="28.251" lon="105.7428871"><ele>927.76</ele><time>2026-08-13T21:38:06.000Z</time></trkpt>
        <trkpt lat="28.2510302" lon="105.7428883"><ele>927.01</ele><time>2026-08-13T21:38:16.000Z</time></trkpt>
        <trkpt lat="28.2510202" lon="105.7429689"><ele>920.97</ele><time>2026-08-13T21:39:24.000Z</time></trkpt>
        <trkpt lat="28.2510457" lon="105.7430684"><ele>919.17</ele><time>2026-08-13T21:39:32.000Z</time></trkpt>
        <trkpt lat="28.2509881" lon="105.7431443"><ele>918.2</ele><time>2026-08-13T21:39:40.000Z</time></trkpt>
        <trkpt lat="28.2509064" lon="105.7432036"><ele>917.92</ele><time>2026-08-13T21:39:46.000Z</time></trkpt>
        <trkpt lat="28.2508208" lon="105.7432642"><ele>917.73</ele><time>2026-08-13T21:39:52.000Z</time></trkpt>
        <trkpt lat="28.2507578" lon="105.743342"><ele>917.44</ele><time>2026-08-13T21:40:00.000Z</time></trkpt>
        <trkpt lat="28.2507082" lon="105.7434408"><ele>916.22</ele><time>2026-08-13T21:40:08.000Z</time></trkpt>
        <trkpt lat="28.2506703" lon="105.7435403"><ele>915.11</ele><time>2026-08-13T21:40:16.000Z</time></trkpt>
        <trkpt lat="28.2506101" lon="105.7436273"><ele>913.53</ele><time>2026-08-13T21:40:32.000Z</time></trkpt>
        <trkpt lat="28.2505611" lon="105.7437386"><ele>910.83</ele><time>2026-08-13T21:40:40.000Z</time></trkpt>
        <trkpt lat="28.250527" lon="105.7438018"><ele>909.7</ele><time>2026-08-13T21:40:46.000Z</time></trkpt>
        <trkpt lat="28.2506106" lon="105.7438462"><ele>909.92</ele><time>2026-08-13T21:40:56.000Z</time></trkpt>
        <trkpt lat="28.2506456" lon="105.7439431"><ele>910.55</ele><time>2026-08-13T21:41:18.000Z</time></trkpt>
        <trkpt lat="28.2506762" lon="105.7440643"><ele>912.85</ele><time>2026-08-13T21:41:26.000Z</time></trkpt>
        <trkpt lat="28.2507129" lon="105.7441751"><ele>914.43</ele><time>2026-08-13T21:41:30.000Z</time></trkpt>
        <trkpt lat="28.2507761" lon="105.7442521"><ele>915.51</ele><time>2026-08-13T21:41:34.000Z</time></trkpt>
        <trkpt lat="28.2507375" lon="105.7443205"><ele>916.5</ele><time>2026-08-13T21:41:42.000Z</time></trkpt>
        <trkpt lat="28.2506475" lon="105.7443946"><ele>919.33</ele><time>2026-08-13T21:41:50.000Z</time></trkpt>
        <trkpt lat="28.2505693" lon="105.7444841"><ele>927.17</ele><time>2026-08-13T21:41:56.000Z</time></trkpt>
        <trkpt lat="28.2505107" lon="105.7445866"><ele>933</ele><time>2026-08-13T21:42:04.000Z</time></trkpt>
        <trkpt lat="28.2504112" lon="105.7446336"><ele>933.09</ele><time>2026-08-13T21:42:12.000Z</time></trkpt>
        <trkpt lat="28.2503335" lon="105.7447177"><ele>932.21</ele><time>2026-08-13T21:42:20.000Z</time></trkpt>
        <trkpt lat="28.2502773" lon="105.7448192"><ele>931.45</ele><time>2026-08-13T21:42:32.000Z</time></trkpt>
        <trkpt lat="28.2502051" lon="105.7449142"><ele>928.1</ele><time>2026-08-13T21:42:40.000Z</time></trkpt>
        <trkpt lat="28.2501248" lon="105.7449696"><ele>926.64</ele><time>2026-08-13T21:42:46.000Z</time></trkpt>
        <trkpt lat="28.2500362" lon="105.7450093"><ele>926.59</ele><time>2026-08-13T21:42:52.000Z</time></trkpt>
        <trkpt lat="28.2499379" lon="105.7450438"><ele>927.1</ele><time>2026-08-13T21:43:00.000Z</time></trkpt>
        <trkpt lat="28.2498447" lon="105.7450624"><ele>927.9</ele><time>2026-08-13T21:43:06.000Z</time></trkpt>
        <trkpt lat="28.2497398" lon="105.7450527"><ele>928.6</ele><time>2026-08-13T21:43:14.000Z</time></trkpt>
        <trkpt lat="28.2496423" lon="105.7450151"><ele>929.11</ele><time>2026-08-13T21:43:22.000Z</time></trkpt>
        <trkpt lat="28.2495482" lon="105.7449682"><ele>928.99</ele><time>2026-08-13T21:43:30.000Z</time></trkpt>
        <trkpt lat="28.2494468" lon="105.7449351"><ele>929.17</ele><time>2026-08-13T21:43:40.000Z</time></trkpt>
        <trkpt lat="28.2493621" lon="105.7448854"><ele>929.29</ele><time>2026-08-13T21:43:46.000Z</time></trkpt>
        <trkpt lat="28.2493074" lon="105.7447974"><ele>929.72</ele><time>2026-08-13T21:43:54.000Z</time></trkpt>
        <trkpt lat="28.2492652" lon="105.7446935"><ele>930.35</ele><time>2026-08-13T21:44:02.000Z</time></trkpt>
        <trkpt lat="28.2492344" lon="105.7445902"><ele>930.71</ele><time>2026-08-13T21:44:08.000Z</time></trkpt>
        <trkpt lat="28.2492182" lon="105.7444617"><ele>931.16</ele><time>2026-08-13T21:44:16.000Z</time></trkpt>
        <trkpt lat="28.2492052" lon="105.7443498"><ele>931.26</ele><time>2026-08-13T21:44:24.000Z</time></trkpt>
        <trkpt lat="28.2491795" lon="105.7442371"><ele>931.92</ele><time>2026-08-13T21:44:32.000Z</time></trkpt>
        <trkpt lat="28.2491471" lon="105.7441297"><ele>933.6</ele><time>2026-08-13T21:44:40.000Z</time></trkpt>
        <trkpt lat="28.2491155" lon="105.7440107"><ele>935.45</ele><time>2026-08-13T21:44:50.000Z</time></trkpt>
        <trkpt lat="28.2490948" lon="105.7438964"><ele>937.14</ele><time>2026-08-13T21:44:58.000Z</time></trkpt>
        <trkpt lat="28.2490936" lon="105.7437781"><ele>938.66</ele><time>2026-08-13T21:45:06.000Z</time></trkpt>
        <trkpt lat="28.249114" lon="105.7436587"><ele>939.57</ele><time>2026-08-13T21:45:14.000Z</time></trkpt>
        <trkpt lat="28.2491265" lon="105.7435375"><ele>940.07</ele><time>2026-08-13T21:45:22.000Z</time></trkpt>
        <trkpt lat="28.2491297" lon="105.7434167"><ele>940.36</ele><time>2026-08-13T21:45:32.000Z</time></trkpt>
        <trkpt lat="28.2490994" lon="105.7433183"><ele>940.89</ele><time>2026-08-13T21:45:38.000Z</time></trkpt>
        <trkpt lat="28.249077" lon="105.7432045"><ele>941.29</ele><time>2026-08-13T21:45:46.000Z</time></trkpt>
        <trkpt lat="28.2490566" lon="105.7430903"><ele>941.52</ele><time>2026-08-13T21:45:54.000Z</time></trkpt>
        <trkpt lat="28.2490276" lon="105.7429871"><ele>941.67</ele><time>2026-08-13T21:46:02.000Z</time></trkpt>
        <trkpt lat="28.2489565" lon="105.7429229"><ele>941.93</ele><time>2026-08-13T21:46:06.000Z</time></trkpt>
        <trkpt lat="28.248861" lon="105.7429047"><ele>942.42</ele><time>2026-08-13T21:46:12.000Z</time></trkpt>
        <trkpt lat="28.2488185" lon="105.7428218"><ele>941.76</ele><time>2026-08-13T21:46:20.000Z</time></trkpt>
        <trkpt lat="28.2488025" lon="105.7427086"><ele>941.14</ele><time>2026-08-13T21:46:28.000Z</time></trkpt>
        <trkpt lat="28.2487622" lon="105.742588"><ele>941</ele><time>2026-08-13T21:46:36.000Z</time></trkpt>
        <trkpt lat="28.2487197" lon="105.7424806"><ele>940.96</ele><time>2026-08-13T21:46:44.000Z</time></trkpt>
        <trkpt lat="28.2487356" lon="105.742378"><ele>940.63</ele><time>2026-08-13T21:46:54.000Z</time></trkpt>
        <trkpt lat="28.248819" lon="105.7423691"><ele>940.27</ele><time>2026-08-13T21:47:04.000Z</time></trkpt>
        <trkpt lat="28.248735" lon="105.742487"><ele>940.03</ele><time>2026-08-13T21:47:18.000Z</time></trkpt>
        <trkpt lat="28.2486536" lon="105.7424381"><ele>932.88</ele><time>2026-08-13T21:47:28.000Z</time></trkpt>
        <trkpt lat="28.2486041" lon="105.7423276"><ele>924.47</ele><time>2026-08-13T21:47:32.000Z</time></trkpt>
        <trkpt lat="28.2485224" lon="105.7422946"><ele>918.87</ele><time>2026-08-13T21:47:36.000Z</time></trkpt>
        <trkpt lat="28.2484139" lon="105.7422786"><ele>915.31</ele><time>2026-08-13T21:47:38.000Z</time></trkpt>
        <trkpt lat="28.2483732" lon="105.7421953"><ele>912.51</ele><time>2026-08-13T21:47:44.000Z</time></trkpt>
        <trkpt lat="28.2483702" lon="105.742247"><ele>908.56</ele><time>2026-08-13T21:47:56.000Z</time></trkpt>
        <trkpt lat="28.2484358" lon="105.7421985"><ele>902.51</ele><time>2026-08-13T21:48:10.000Z</time></trkpt>
        <trkpt lat="28.2484019" lon="105.7422317"><ele>895.42</ele><time>2026-08-13T21:48:33.000Z</time></trkpt>
        <trkpt lat="28.2482659" lon="105.742754"><ele>888.3</ele><time>2026-08-13T21:55:33.000Z</time></trkpt>
        <trkpt lat="28.2484048" lon="105.7424342"><ele>901.32</ele><time>2026-08-13T21:55:39.000Z</time></trkpt>
        <trkpt lat="28.2483473" lon="105.7423492"><ele>919.92</ele><time>2026-08-13T21:55:47.000Z</time></trkpt>
        <trkpt lat="28.24825" lon="105.7423443"><ele>928.19</ele><time>2026-08-13T21:55:55.000Z</time></trkpt>
        <trkpt lat="28.2481477" lon="105.7424079"><ele>931.41</ele><time>2026-08-13T21:56:03.000Z</time></trkpt>
        <trkpt lat="28.2480492" lon="105.7424926"><ele>937.28</ele><time>2026-08-13T21:56:11.000Z</time></trkpt>
        <trkpt lat="28.2479527" lon="105.7425281"><ele>950.26</ele><time>2026-08-13T21:56:17.000Z</time></trkpt>
        <trkpt lat="28.2478497" lon="105.7425638"><ele>955.29</ele><time>2026-08-13T21:56:27.000Z</time></trkpt>
        <trkpt lat="28.2477621" lon="105.7426408"><ele>952.9</ele><time>2026-08-13T21:56:39.000Z</time></trkpt>
        <trkpt lat="28.2477323" lon="105.7427451"><ele>952</ele><time>2026-08-13T21:56:53.000Z</time></trkpt>
        <trkpt lat="28.2476769" lon="105.7428521"><ele>951.71</ele><time>2026-08-13T21:57:01.000Z</time></trkpt>
        <trkpt lat="28.2476708" lon="105.7429623"><ele>952.03</ele><time>2026-08-13T21:57:09.000Z</time></trkpt>
        <trkpt lat="28.2476057" lon="105.7430274"><ele>953.05</ele><time>2026-08-13T21:57:25.000Z</time></trkpt>
        <trkpt lat="28.2475303" lon="105.743094"><ele>952.42</ele><time>2026-08-13T21:57:31.000Z</time></trkpt>
        <trkpt lat="28.2474628" lon="105.7431714"><ele>952.9</ele><time>2026-08-13T21:57:39.000Z</time></trkpt>
        <trkpt lat="28.2474374" lon="105.7432847"><ele>953.07</ele><time>2026-08-13T21:57:45.000Z</time></trkpt>
        <trkpt lat="28.2474216" lon="105.7434029"><ele>953.72</ele><time>2026-08-13T21:57:53.000Z</time></trkpt>
        <trkpt lat="28.2474067" lon="105.7435265"><ele>954.56</ele><time>2026-08-13T21:57:59.000Z</time></trkpt>
        <trkpt lat="28.2473977" lon="105.7435611"><ele>954.72</ele><time>2026-08-13T21:58:15.000Z</time></trkpt>
        <trkpt lat="28.2474116" lon="105.7436393"><ele>952.32</ele><time>2026-08-13T21:58:39.000Z</time></trkpt>
        <trkpt lat="28.2473973" lon="105.7437398"><ele>950.66</ele><time>2026-08-13T21:58:47.000Z</time></trkpt>
        <trkpt lat="28.2473802" lon="105.743854"><ele>949.99</ele><time>2026-08-13T21:58:55.000Z</time></trkpt>
        <trkpt lat="28.247375" lon="105.7439623"><ele>950.6</ele><time>2026-08-13T21:59:05.000Z</time></trkpt>
        <trkpt lat="28.2473629" lon="105.744084"><ele>951.44</ele><time>2026-08-13T21:59:17.000Z</time></trkpt>
        <trkpt lat="28.2473913" lon="105.7441898"><ele>953.58</ele><time>2026-08-13T21:59:25.000Z</time></trkpt>
        <trkpt lat="28.2474222" lon="105.7442958"><ele>954.4</ele><time>2026-08-13T21:59:33.000Z</time></trkpt>
        <trkpt lat="28.2474357" lon="105.7444032"><ele>954.71</ele><time>2026-08-13T21:59:43.000Z</time></trkpt>
        <trkpt lat="28.2474567" lon="105.7445063"><ele>952.33</ele><time>2026-08-13T21:59:51.000Z</time></trkpt>
        <trkpt lat="28.2474575" lon="105.744619"><ele>949.16</ele><time>2026-08-13T22:00:01.000Z</time></trkpt>
        <trkpt lat="28.2474473" lon="105.7447263"><ele>945.62</ele><time>2026-08-13T22:00:09.000Z</time></trkpt>
        <trkpt lat="28.2474178" lon="105.7448331"><ele>943.46</ele><time>2026-08-13T22:00:19.000Z</time></trkpt>
        <trkpt lat="28.2473623" lon="105.7449254"><ele>942.36</ele><time>2026-08-13T22:00:25.000Z</time></trkpt>
        <trkpt lat="28.2472871" lon="105.7450149"><ele>941.97</ele><time>2026-08-13T22:00:33.000Z</time></trkpt>
        <trkpt lat="28.2472055" lon="105.7450978"><ele>944.34</ele><time>2026-08-13T22:00:43.000Z</time></trkpt>
        <trkpt lat="28.2471338" lon="105.7451725"><ele>949.4</ele><time>2026-08-13T22:00:49.000Z</time></trkpt>
        <trkpt lat="28.2470405" lon="105.7451794"><ele>953.99</ele><time>2026-08-13T22:00:57.000Z</time></trkpt>
        <trkpt lat="28.2469412" lon="105.7451431"><ele>958.38</ele><time>2026-08-13T22:01:05.000Z</time></trkpt>
        <trkpt lat="28.2468425" lon="105.7450777"><ele>961.77</ele><time>2026-08-13T22:01:15.000Z</time></trkpt>
        <trkpt lat="28.2467663" lon="105.7449945"><ele>964.28</ele><time>2026-08-13T22:01:25.000Z</time></trkpt>
        <trkpt lat="28.2466767" lon="105.744924"><ele>966.98</ele><time>2026-08-13T22:01:33.000Z</time></trkpt>
        <trkpt lat="28.2465803" lon="105.744873"><ele>969.54</ele><time>2026-08-13T22:01:43.000Z</time></trkpt>
        <trkpt lat="28.2464909" lon="105.7448295"><ele>971.87</ele><time>2026-08-13T22:01:51.000Z</time></trkpt>
        <trkpt lat="28.246403" lon="105.7448016"><ele>973.08</ele><time>2026-08-13T22:01:59.000Z</time></trkpt>
        <trkpt lat="28.2463171" lon="105.7447653"><ele>973.58</ele><time>2026-08-13T22:02:07.000Z</time></trkpt>
        <trkpt lat="28.2462202" lon="105.7447278"><ele>972.87</ele><time>2026-08-13T22:02:15.000Z</time></trkpt>
        <trkpt lat="28.2461201" lon="105.7447003"><ele>972.45</ele><time>2026-08-13T22:02:23.000Z</time></trkpt>
        <trkpt lat="28.2460367" lon="105.7446476"><ele>971.38</ele><time>2026-08-13T22:02:31.000Z</time></trkpt>
        <trkpt lat="28.2459666" lon="105.7445654"><ele>970.08</ele><time>2026-08-13T22:02:39.000Z</time></trkpt>
        <trkpt lat="28.245897" lon="105.74449"><ele>969.52</ele><time>2026-08-13T22:02:47.000Z</time></trkpt>
        <trkpt lat="28.245816" lon="105.7444441"><ele>969.61</ele><time>2026-08-13T22:02:57.000Z</time></trkpt>
        <trkpt lat="28.2457124" lon="105.7444192"><ele>969.88</ele><time>2026-08-13T22:03:17.000Z</time></trkpt>
        <trkpt lat="28.2455973" lon="105.7444048"><ele>970.49</ele><time>2026-08-13T22:03:27.000Z</time></trkpt>
        <trkpt lat="28.2454732" lon="105.7443942"><ele>972.67</ele><time>2026-08-13T22:03:45.000Z</time></trkpt>
        <trkpt lat="28.2453648" lon="105.744358"><ele>976.03</ele><time>2026-08-13T22:03:51.000Z</time></trkpt>
        <trkpt lat="28.2452696" lon="105.7443176"><ele>976.98</ele><time>2026-08-13T22:03:59.000Z</time></trkpt>
        <trkpt lat="28.2451736" lon="105.7442705"><ele>976.24</ele><time>2026-08-13T22:04:09.000Z</time></trkpt>
        <trkpt lat="28.2450741" lon="105.7442581"><ele>974.16</ele><time>2026-08-13T22:04:17.000Z</time></trkpt>
        <trkpt lat="28.2449673" lon="105.7442725"><ele>971.67</ele><time>2026-08-13T22:04:27.000Z</time></trkpt>
        <trkpt lat="28.2448709" lon="105.7442872"><ele>970.29</ele><time>2026-08-13T22:04:33.000Z</time></trkpt>
        <trkpt lat="28.2447799" lon="105.7443398"><ele>969.12</ele><time>2026-08-13T22:04:41.000Z</time></trkpt>
        <trkpt lat="28.2447021" lon="105.7444179"><ele>969.15</ele><time>2026-08-13T22:04:51.000Z</time></trkpt>
        <trkpt lat="28.2446704" lon="105.7445186"><ele>969.02</ele><time>2026-08-13T22:05:05.000Z</time></trkpt>
        <trkpt lat="28.2445932" lon="105.7445969"><ele>966.74</ele><time>2026-08-13T22:05:13.000Z</time></trkpt>
        <trkpt lat="28.2445514" lon="105.7446929"><ele>965.13</ele><time>2026-08-13T22:05:23.000Z</time></trkpt>
        <trkpt lat="28.244495" lon="105.7447883"><ele>963.38</ele><time>2026-08-13T22:05:33.000Z</time></trkpt>
        <trkpt lat="28.2444578" lon="105.7448934"><ele>962.5</ele><time>2026-08-13T22:05:39.000Z</time></trkpt>
        <trkpt lat="28.2444286" lon="105.7450161"><ele>962.85</ele><time>2026-08-13T22:05:49.000Z</time></trkpt>
        <trkpt lat="28.244422" lon="105.7451451"><ele>964.06</ele><time>2026-08-13T22:05:57.000Z</time></trkpt>
        <trkpt lat="28.2443743" lon="105.7452488"><ele>964.95</ele><time>2026-08-13T22:06:09.000Z</time></trkpt>
        <trkpt lat="28.24436" lon="105.7453617"><ele>965.67</ele><time>2026-08-13T22:06:19.000Z</time></trkpt>
        <trkpt lat="28.2443514" lon="105.7454671"><ele>966.88</ele><time>2026-08-13T22:06:25.000Z</time></trkpt>
        <trkpt lat="28.2443294" lon="105.7455796"><ele>968.83</ele><time>2026-08-13T22:06:35.000Z</time></trkpt>
        <trkpt lat="28.2443155" lon="105.7456977"><ele>969.72</ele><time>2026-08-13T22:06:45.000Z</time></trkpt>
        <trkpt lat="28.2442809" lon="105.745796"><ele>969.83</ele><time>2026-08-13T22:06:53.000Z</time></trkpt>
        <trkpt lat="28.2442291" lon="105.7458846"><ele>969.11</ele><time>2026-08-13T22:07:01.000Z</time></trkpt>
        <trkpt lat="28.2442106" lon="105.7459927"><ele>968.58</ele><time>2026-08-13T22:07:09.000Z</time></trkpt>
        <trkpt lat="28.2441462" lon="105.7460793"><ele>967.06</ele><time>2026-08-13T22:07:17.000Z</time></trkpt>
        <trkpt lat="28.244096" lon="105.7461804"><ele>966.83</ele><time>2026-08-13T22:07:25.000Z</time></trkpt>
        <trkpt lat="28.2440567" lon="105.7462785"><ele>968.87</ele><time>2026-08-13T22:07:33.000Z</time></trkpt>
        <trkpt lat="28.2440128" lon="105.7463699"><ele>971.52</ele><time>2026-08-13T22:07:41.000Z</time></trkpt>
        <trkpt lat="28.244001" lon="105.7464938"><ele>972.88</ele><time>2026-08-13T22:07:49.000Z</time></trkpt>
        <trkpt lat="28.2439516" lon="105.7466059"><ele>974.39</ele><time>2026-08-13T22:07:59.000Z</time></trkpt>
        <trkpt lat="28.2438776" lon="105.746671"><ele>975.72</ele><time>2026-08-13T22:08:07.000Z</time></trkpt>
        <trkpt lat="28.2437851" lon="105.7467319"><ele>976.44</ele><time>2026-08-13T22:08:47.000Z</time></trkpt>
        <trkpt lat="28.2436826" lon="105.7467838"><ele>976.6</ele><time>2026-08-13T22:08:55.000Z</time></trkpt>
        <trkpt lat="28.2436007" lon="105.746852"><ele>975.87</ele><time>2026-08-13T22:09:05.000Z</time></trkpt>
        <trkpt lat="28.2435401" lon="105.7469468"><ele>973.46</ele><time>2026-08-13T22:09:13.000Z</time></trkpt>
        <trkpt lat="28.2434762" lon="105.7470379"><ele>970.81</ele><time>2026-08-13T22:09:23.000Z</time></trkpt>
        <trkpt lat="28.2434146" lon="105.747143"><ele>967.54</ele><time>2026-08-13T22:09:35.000Z</time></trkpt>
        <trkpt lat="28.2433314" lon="105.7472364"><ele>964.89</ele><time>2026-08-13T22:09:43.000Z</time></trkpt>
        <trkpt lat="28.2432372" lon="105.7473045"><ele>962.91</ele><time>2026-08-13T22:09:53.000Z</time></trkpt>
        <trkpt lat="28.2431839" lon="105.7473915"><ele>960.8</ele><time>2026-08-13T22:10:01.000Z</time></trkpt>
        <trkpt lat="28.243117" lon="105.7474798"><ele>960.01</ele><time>2026-08-13T22:10:09.000Z</time></trkpt>
        <trkpt lat="28.2430335" lon="105.7475462"><ele>959.67</ele><time>2026-08-13T22:10:17.000Z</time></trkpt>
        <trkpt lat="28.2429614" lon="105.7476231"><ele>959.32</ele><time>2026-08-13T22:10:35.000Z</time></trkpt>
        <trkpt lat="28.2428975" lon="105.7477052"><ele>960.6</ele><time>2026-08-13T22:10:47.000Z</time></trkpt>
        <trkpt lat="28.2428215" lon="105.7477598"><ele>961.45</ele><time>2026-08-13T22:10:59.000Z</time></trkpt>
        <trkpt lat="28.2427324" lon="105.7478192"><ele>960.18</ele><time>2026-08-13T22:11:07.000Z</time></trkpt>
        <trkpt lat="28.2426645" lon="105.7478985"><ele>958.61</ele><time>2026-08-13T22:11:17.000Z</time></trkpt>
        <trkpt lat="28.242586" lon="105.7479706"><ele>958.41</ele><time>2026-08-13T22:11:25.000Z</time></trkpt>
        <trkpt lat="28.2425082" lon="105.7480415"><ele>958.32</ele><time>2026-08-13T22:11:33.000Z</time></trkpt>
        <trkpt lat="28.2424641" lon="105.7481313"><ele>958.2</ele><time>2026-08-13T22:11:41.000Z</time></trkpt>
        <trkpt lat="28.242404" lon="105.7482146"><ele>958.4</ele><time>2026-08-13T22:11:49.000Z</time></trkpt>
        <trkpt lat="28.2423592" lon="105.7483107"><ele>958.32</ele><time>2026-08-13T22:11:59.000Z</time></trkpt>
        <trkpt lat="28.2423321" lon="105.7484245"><ele>958.46</ele><time>2026-08-13T22:12:07.000Z</time></trkpt>
        <trkpt lat="28.2422841" lon="105.7485172"><ele>958.8</ele><time>2026-08-13T22:12:15.000Z</time></trkpt>
        <trkpt lat="28.242256" lon="105.7486235"><ele>959.33</ele><time>2026-08-13T22:12:25.000Z</time></trkpt>
        <trkpt lat="28.2421918" lon="105.7487061"><ele>961.92</ele><time>2026-08-13T22:12:35.000Z</time></trkpt>
        <trkpt lat="28.2421084" lon="105.7487553"><ele>965.25</ele><time>2026-08-13T22:12:43.000Z</time></trkpt>
        <trkpt lat="28.2420157" lon="105.7487774"><ele>967.57</ele><time>2026-08-13T22:12:51.000Z</time></trkpt>
        <trkpt lat="28.2419241" lon="105.7487846"><ele>968.9</ele><time>2026-08-13T22:13:03.000Z</time></trkpt>
        <trkpt lat="28.2418293" lon="105.748794"><ele>969.79</ele><time>2026-08-13T22:13:21.000Z</time></trkpt>
        <trkpt lat="28.24174" lon="105.7488221"><ele>970.98</ele><time>2026-08-13T22:13:29.000Z</time></trkpt>
        <trkpt lat="28.2416509" lon="105.7488441"><ele>970.05</ele><time>2026-08-13T22:13:39.000Z</time></trkpt>
        <trkpt lat="28.2415554" lon="105.7488599"><ele>966.37</ele><time>2026-08-13T22:13:49.000Z</time></trkpt>
        <trkpt lat="28.2414645" lon="105.748843"><ele>964.29</ele><time>2026-08-13T22:13:55.000Z</time></trkpt>
        <trkpt lat="28.2413618" lon="105.7488217"><ele>964.2</ele><time>2026-08-13T22:14:03.000Z</time></trkpt>
        <trkpt lat="28.2412676" lon="105.7487843"><ele>965.49</ele><time>2026-08-13T22:14:13.000Z</time></trkpt>
        <trkpt lat="28.2411627" lon="105.748792"><ele>965.14</ele><time>2026-08-13T22:14:29.000Z</time></trkpt>
        <trkpt lat="28.2410739" lon="105.7488337"><ele>952.34</ele><time>2026-08-13T22:14:37.000Z</time></trkpt>
        <trkpt lat="28.2410111" lon="105.7487877"><ele>941.84</ele><time>2026-08-13T22:14:45.000Z</time></trkpt>
        <trkpt lat="28.2409229" lon="105.7487823"><ele>933.28</ele><time>2026-08-13T22:14:55.000Z</time></trkpt>
        <trkpt lat="28.2408302" lon="105.7488007"><ele>926.81</ele><time>2026-08-13T22:15:03.000Z</time></trkpt>
        <trkpt lat="28.2407235" lon="105.7488344"><ele>921.45</ele><time>2026-08-13T22:15:13.000Z</time></trkpt>
        <trkpt lat="28.2406295" lon="105.7488196"><ele>917.85</ele><time>2026-08-13T22:15:19.000Z</time></trkpt>
        <trkpt lat="28.2405369" lon="105.7487441"><ele>916.28</ele><time>2026-08-13T22:15:25.000Z</time></trkpt>
        <trkpt lat="28.2404537" lon="105.7486568"><ele>914.75</ele><time>2026-08-13T22:15:33.000Z</time></trkpt>
        <trkpt lat="28.2403732" lon="105.7485755"><ele>912.05</ele><time>2026-08-13T22:15:41.000Z</time></trkpt>
        <trkpt lat="28.2403099" lon="105.7484785"><ele>908.85</ele><time>2026-08-13T22:15:49.000Z</time></trkpt>
        <trkpt lat="28.2402462" lon="105.748387"><ele>908.39</ele><time>2026-08-13T22:15:53.000Z</time></trkpt>
        <trkpt lat="28.2401705" lon="105.7482823"><ele>907.99</ele><time>2026-08-13T22:15:59.000Z</time></trkpt>
        <trkpt lat="28.240092" lon="105.7481841"><ele>911.27</ele><time>2026-08-13T22:16:09.000Z</time></trkpt>
        <trkpt lat="28.2400018" lon="105.7481494"><ele>920.44</ele><time>2026-08-13T22:16:33.000Z</time></trkpt>
        <trkpt lat="28.2399119" lon="105.7481695"><ele>933.32</ele><time>2026-08-13T22:16:43.000Z</time></trkpt>
        <trkpt lat="28.2398367" lon="105.7482377"><ele>944.25</ele><time>2026-08-13T22:16:53.000Z</time></trkpt>
        <trkpt lat="28.2397581" lon="105.7483189"><ele>958.87</ele><time>2026-08-13T22:17:03.000Z</time></trkpt>
        <trkpt lat="28.2396847" lon="105.7483946"><ele>970.07</ele><time>2026-08-13T22:17:13.000Z</time></trkpt>
        <trkpt lat="28.2396849" lon="105.748519"><ele>978.46</ele><time>2026-08-13T22:17:23.000Z</time></trkpt>
        <trkpt lat="28.2397118" lon="105.7486364"><ele>985.29</ele><time>2026-08-13T22:17:31.000Z</time></trkpt>
        <trkpt lat="28.2397026" lon="105.7486962"><ele>990.33</ele><time>2026-08-13T22:17:45.000Z</time></trkpt>
        <trkpt lat="28.2397633" lon="105.7487715"><ele>993.62</ele><time>2026-08-13T22:18:03.000Z</time></trkpt>
        <trkpt lat="28.2398107" lon="105.7488754"><ele>992.56</ele><time>2026-08-13T22:18:13.000Z</time></trkpt>
        <trkpt lat="28.2398411" lon="105.7489827"><ele>990.26</ele><time>2026-08-13T22:18:21.000Z</time></trkpt>
        <trkpt lat="28.2398817" lon="105.749079"><ele>987.98</ele><time>2026-08-13T22:18:29.000Z</time></trkpt>
        <trkpt lat="28.2399313" lon="105.7491663"><ele>986.95</ele><time>2026-08-13T22:18:37.000Z</time></trkpt>
        <trkpt lat="28.2399644" lon="105.7492684"><ele>985.92</ele><time>2026-08-13T22:18:45.000Z</time></trkpt>
        <trkpt lat="28.2400185" lon="105.749361"><ele>985.11</ele><time>2026-08-13T22:18:53.000Z</time></trkpt>
        <trkpt lat="28.2400846" lon="105.749453"><ele>984.66</ele><time>2026-08-13T22:19:03.000Z</time></trkpt>
        <trkpt lat="28.240159" lon="105.7495347"><ele>984.98</ele><time>2026-08-13T22:19:13.000Z</time></trkpt>
        <trkpt lat="28.2402122" lon="105.749649"><ele>985.94</ele><time>2026-08-13T22:19:21.000Z</time></trkpt>
        <trkpt lat="28.2402672" lon="105.7497515"><ele>986.81</ele><time>2026-08-13T22:19:31.000Z</time></trkpt>
        <trkpt lat="28.2403234" lon="105.749849"><ele>988.25</ele><time>2026-08-13T22:19:41.000Z</time></trkpt>
        <trkpt lat="28.2403623" lon="105.7499686"><ele>990.3</ele><time>2026-08-13T22:19:51.000Z</time></trkpt>
        <trkpt lat="28.2403695" lon="105.7500976"><ele>993.36</ele><time>2026-08-13T22:19:59.000Z</time></trkpt>
        <trkpt lat="28.2403391" lon="105.7502087"><ele>997.77</ele><time>2026-08-13T22:20:03.000Z</time></trkpt>
        <trkpt lat="28.2402884" lon="105.7503039"><ele>1001.61</ele><time>2026-08-13T22:20:13.000Z</time></trkpt>
        <trkpt lat="28.2403144" lon="105.7503906"><ele>1005.38</ele><time>2026-08-13T22:20:31.000Z</time></trkpt>
        <trkpt lat="28.2402655" lon="105.7503141"><ele>1005.95</ele><time>2026-08-13T22:21:35.000Z</time></trkpt>
        <trkpt lat="28.2402457" lon="105.7504199"><ele>1008.48</ele><time>2026-08-13T22:21:57.000Z</time></trkpt>
        <trkpt lat="28.2402168" lon="105.7505391"><ele>1010.45</ele><time>2026-08-13T22:22:05.000Z</time></trkpt>
        <trkpt lat="28.2402216" lon="105.7506581"><ele>1003.6</ele><time>2026-08-13T22:22:23.000Z</time></trkpt>
        <trkpt lat="28.2401899" lon="105.7507703"><ele>996.13</ele><time>2026-08-13T22:22:31.000Z</time></trkpt>
        <trkpt lat="28.2401013" lon="105.7508054"><ele>990.6</ele><time>2026-08-13T22:22:49.000Z</time></trkpt>
        <trkpt lat="28.2400924" lon="105.7508818"><ele>988.31</ele><time>2026-08-13T22:22:59.000Z</time></trkpt>
        <trkpt lat="28.2400407" lon="105.750973"><ele>988.2</ele><time>2026-08-13T22:23:05.000Z</time></trkpt>
        <trkpt lat="28.2399557" lon="105.751033"><ele>989.1</ele><time>2026-08-13T22:23:15.000Z</time></trkpt>
        <trkpt lat="28.2398507" lon="105.7510692"><ele>991.81</ele><time>2026-08-13T22:23:23.000Z</time></trkpt>
        <trkpt lat="28.2397517" lon="105.7510696"><ele>993.93</ele><time>2026-08-13T22:23:29.000Z</time></trkpt>
        <trkpt lat="28.2396575" lon="105.7510544"><ele>995.33</ele><time>2026-08-13T22:23:35.000Z</time></trkpt>
        <trkpt lat="28.2395483" lon="105.7510109"><ele>995.87</ele><time>2026-08-13T22:23:43.000Z</time></trkpt>
        <trkpt lat="28.2394484" lon="105.7509829"><ele>996.56</ele><time>2026-08-13T22:23:51.000Z</time></trkpt>
        <trkpt lat="28.2393559" lon="105.7509635"><ele>996.96</ele><time>2026-08-13T22:23:59.000Z</time></trkpt>
        <trkpt lat="28.2392619" lon="105.7509612"><ele>996.93</ele><time>2026-08-13T22:24:07.000Z</time></trkpt>
        <trkpt lat="28.2391668" lon="105.7509559"><ele>996.31</ele><time>2026-08-13T22:24:15.000Z</time></trkpt>
        <trkpt lat="28.2390793" lon="105.7509274"><ele>995.64</ele><time>2026-08-13T22:24:21.000Z</time></trkpt>
        <trkpt lat="28.2389924" lon="105.7509016"><ele>995.3</ele><time>2026-08-13T22:24:29.000Z</time></trkpt>
        <trkpt lat="28.2389057" lon="105.7508716"><ele>995.2</ele><time>2026-08-13T22:24:37.000Z</time></trkpt>
        <trkpt lat="28.2387984" lon="105.7508656"><ele>995.91</ele><time>2026-08-13T22:24:47.000Z</time></trkpt>
        <trkpt lat="28.2386885" lon="105.7508513"><ele>996.57</ele><time>2026-08-13T22:24:57.000Z</time></trkpt>
        <trkpt lat="28.2385867" lon="105.7508085"><ele>997.95</ele><time>2026-08-13T22:25:07.000Z</time></trkpt>
        <trkpt lat="28.2384897" lon="105.7507771"><ele>998.24</ele><time>2026-08-13T22:25:15.000Z</time></trkpt>
        <trkpt lat="28.2383878" lon="105.7507547"><ele>998.48</ele><time>2026-08-13T22:25:23.000Z</time></trkpt>
        <trkpt lat="28.2382888" lon="105.7507319"><ele>999.49</ele><time>2026-08-13T22:25:31.000Z</time></trkpt>
        <trkpt lat="28.2381837" lon="105.7507053"><ele>1000.88</ele><time>2026-08-13T22:25:45.000Z</time></trkpt>
        <trkpt lat="28.2380783" lon="105.7507103"><ele>1001.96</ele><time>2026-08-13T22:25:55.000Z</time></trkpt>
        <trkpt lat="28.2379745" lon="105.750748"><ele>1003.93</ele><time>2026-08-13T22:26:07.000Z</time></trkpt>
        <trkpt lat="28.2378887" lon="105.7508026"><ele>1005.09</ele><time>2026-08-13T22:26:19.000Z</time></trkpt>
        <trkpt lat="28.2378129" lon="105.7508922"><ele>1006.01</ele><time>2026-08-13T22:26:31.000Z</time></trkpt>
        <trkpt lat="28.237775" lon="105.7510131"><ele>1005.44</ele><time>2026-08-13T22:26:41.000Z</time></trkpt>
        <trkpt lat="28.2377982" lon="105.7511349"><ele>1004.54</ele><time>2026-08-13T22:26:49.000Z</time></trkpt>
        <trkpt lat="28.2378362" lon="105.7512015"><ele>1004.61</ele><time>2026-08-13T22:27:05.000Z</time></trkpt>
        <trkpt lat="28.2378458" lon="105.7513025"><ele>1004.43</ele><time>2026-08-13T22:27:27.000Z</time></trkpt>
        <trkpt lat="28.2378394" lon="105.7514373"><ele>1004.38</ele><time>2026-08-13T22:27:33.000Z</time></trkpt>
        <trkpt lat="28.2378332" lon="105.7515571"><ele>1004.21</ele><time>2026-08-13T22:27:43.000Z</time></trkpt>
        <trkpt lat="28.2377976" lon="105.7516747"><ele>1003.34</ele><time>2026-08-13T22:27:55.000Z</time></trkpt>
        <trkpt lat="28.2377511" lon="105.7517897"><ele>1002.79</ele><time>2026-08-13T22:28:01.000Z</time></trkpt>
        <trkpt lat="28.2376947" lon="105.7518958"><ele>1002.58</ele><time>2026-08-13T22:28:07.000Z</time></trkpt>
        <trkpt lat="28.2376566" lon="105.7520144"><ele>1002.99</ele><time>2026-08-13T22:28:17.000Z</time></trkpt>
        <trkpt lat="28.2376099" lon="105.7521491"><ele>1003.61</ele><time>2026-08-13T22:28:27.000Z</time></trkpt>
        <trkpt lat="28.2375821" lon="105.7522739"><ele>1004.78</ele><time>2026-08-13T22:28:35.000Z</time></trkpt>
        <trkpt lat="28.2375463" lon="105.7523881"><ele>1006.94</ele><time>2026-08-13T22:28:45.000Z</time></trkpt>
        <trkpt lat="28.2374999" lon="105.7524976"><ele>1010.18</ele><time>2026-08-13T22:28:57.000Z</time></trkpt>
        <trkpt lat="28.2374425" lon="105.7526237"><ele>1015.15</ele><time>2026-08-13T22:29:03.000Z</time></trkpt>
        <trkpt lat="28.2374082" lon="105.7527305"><ele>1018.78</ele><time>2026-08-13T22:29:07.000Z</time></trkpt>
        <trkpt lat="28.2373974" lon="105.7528507"><ele>1021.59</ele><time>2026-08-13T22:29:23.000Z</time></trkpt>
        <trkpt lat="28.2373788" lon="105.7529663"><ele>1024.08</ele><time>2026-08-13T22:29:31.000Z</time></trkpt>
        <trkpt lat="28.2373312" lon="105.7530736"><ele>1025.53</ele><time>2026-08-13T22:29:39.000Z</time></trkpt>
        <trkpt lat="28.2372661" lon="105.7531536"><ele>1025.96</ele><time>2026-08-13T22:29:49.000Z</time></trkpt>
        <trkpt lat="28.2371828" lon="105.7532066"><ele>1025.4</ele><time>2026-08-13T22:30:01.000Z</time></trkpt>
        <trkpt lat="28.2370932" lon="105.7532523"><ele>1018.26</ele><time>2026-08-13T22:30:09.000Z</time></trkpt>
        <trkpt lat="28.2370099" lon="105.7533187"><ele>1012.84</ele><time>2026-08-13T22:30:17.000Z</time></trkpt>
        <trkpt lat="28.2369367" lon="105.7533949"><ele>1008.61</ele><time>2026-08-13T22:30:25.000Z</time></trkpt>
        <trkpt lat="28.2368546" lon="105.7534575"><ele>1004.57</ele><time>2026-08-13T22:30:33.000Z</time></trkpt>
        <trkpt lat="28.2367654" lon="105.7535097"><ele>1001.7</ele><time>2026-08-13T22:30:41.000Z</time></trkpt>
        <trkpt lat="28.2366852" lon="105.7535693"><ele>1000.32</ele><time>2026-08-13T22:30:49.000Z</time></trkpt>
        <trkpt lat="28.236605" lon="105.7536231"><ele>999.03</ele><time>2026-08-13T22:30:57.000Z</time></trkpt>
        <trkpt lat="28.2365158" lon="105.7536657"><ele>997.95</ele><time>2026-08-13T22:31:05.000Z</time></trkpt>
        <trkpt lat="28.2364339" lon="105.7537153"><ele>997.87</ele><time>2026-08-13T22:31:13.000Z</time></trkpt>
        <trkpt lat="28.2363517" lon="105.7537683"><ele>997.56</ele><time>2026-08-13T22:31:21.000Z</time></trkpt>
        <trkpt lat="28.2362728" lon="105.7538304"><ele>998.08</ele><time>2026-08-13T22:31:29.000Z</time></trkpt>
        <trkpt lat="28.2361912" lon="105.7538886"><ele>998.03</ele><time>2026-08-13T22:31:37.000Z</time></trkpt>
        <trkpt lat="28.2361038" lon="105.7539486"><ele>997.54</ele><time>2026-08-13T22:31:45.000Z</time></trkpt>
        <trkpt lat="28.2360212" lon="105.7539998"><ele>997.27</ele><time>2026-08-13T22:31:55.000Z</time></trkpt>
        <trkpt lat="28.2359467" lon="105.7540744"><ele>997.16</ele><time>2026-08-13T22:32:03.000Z</time></trkpt>
        <trkpt lat="28.2358609" lon="105.7541521"><ele>997.19</ele><time>2026-08-13T22:32:13.000Z</time></trkpt>
        <trkpt lat="28.2357747" lon="105.7542186"><ele>996.7</ele><time>2026-08-13T22:32:21.000Z</time></trkpt>
        <trkpt lat="28.2356739" lon="105.754273"><ele>997.24</ele><time>2026-08-13T22:32:31.000Z</time></trkpt>
        <trkpt lat="28.2355851" lon="105.7543336"><ele>997.66</ele><time>2026-08-13T22:32:45.000Z</time></trkpt>
        <trkpt lat="28.2354991" lon="105.7543994"><ele>998.02</ele><time>2026-08-13T22:32:59.000Z</time></trkpt>
        <trkpt lat="28.2354115" lon="105.7544481"><ele>997.86</ele><time>2026-08-13T22:33:07.000Z</time></trkpt>
        <trkpt lat="28.2353249" lon="105.7545043"><ele>997.91</ele><time>2026-08-13T22:33:17.000Z</time></trkpt>
        <trkpt lat="28.235238" lon="105.754571"><ele>998.56</ele><time>2026-08-13T22:33:25.000Z</time></trkpt>
        <trkpt lat="28.2351485" lon="105.7546177"><ele>998.91</ele><time>2026-08-13T22:33:33.000Z</time></trkpt>
        <trkpt lat="28.2350386" lon="105.7546537"><ele>999.14</ele><time>2026-08-13T22:33:43.000Z</time></trkpt>
        <trkpt lat="28.2349545" lon="105.7547089"><ele>999.46</ele><time>2026-08-13T22:33:49.000Z</time></trkpt>
        <trkpt lat="28.2348617" lon="105.7547748"><ele>999.69</ele><time>2026-08-13T22:33:59.000Z</time></trkpt>
        <trkpt lat="28.2347648" lon="105.7548318"><ele>999.85</ele><time>2026-08-13T22:34:09.000Z</time></trkpt>
        <trkpt lat="28.2346765" lon="105.7548818"><ele>1000.07</ele><time>2026-08-13T22:34:15.000Z</time></trkpt>
        <trkpt lat="28.2345721" lon="105.7549235"><ele>1000.32</ele><time>2026-08-13T22:34:27.000Z</time></trkpt>
        <trkpt lat="28.2344779" lon="105.7549582"><ele>1001.23</ele><time>2026-08-13T22:34:37.000Z</time></trkpt>
        <trkpt lat="28.2343802" lon="105.754997"><ele>1001.33</ele><time>2026-08-13T22:34:47.000Z</time></trkpt>
        <trkpt lat="28.2342833" lon="105.7550417"><ele>1001.63</ele><time>2026-08-13T22:34:57.000Z</time></trkpt>
        <trkpt lat="28.2341818" lon="105.755082"><ele>1002.96</ele><time>2026-08-13T22:35:05.000Z</time></trkpt>
        <trkpt lat="28.2340827" lon="105.7551341"><ele>1006.35</ele><time>2026-08-13T22:35:13.000Z</time></trkpt>
        <trkpt lat="28.2339909" lon="105.7551655"><ele>1009.62</ele><time>2026-08-13T22:35:21.000Z</time></trkpt>
        <trkpt lat="28.2339045" lon="105.7552108"><ele>1011.65</ele><time>2026-08-13T22:35:29.000Z</time></trkpt>
        <trkpt lat="28.2338169" lon="105.7552425"><ele>1012.3</ele><time>2026-08-13T22:35:37.000Z</time></trkpt>
        <trkpt lat="28.2337224" lon="105.7552473"><ele>1012.84</ele><time>2026-08-13T22:35:45.000Z</time></trkpt>
        <trkpt lat="28.2336166" lon="105.7552422"><ele>1013.64</ele><time>2026-08-13T22:35:55.000Z</time></trkpt>
        <trkpt lat="28.2335148" lon="105.7552402"><ele>1014.56</ele><time>2026-08-13T22:36:03.000Z</time></trkpt>
        <trkpt lat="28.2334142" lon="105.755229"><ele>1015.35</ele><time>2026-08-13T22:36:11.000Z</time></trkpt>
        <trkpt lat="28.2333334" lon="105.7551753"><ele>1015.55</ele><time>2026-08-13T22:36:51.000Z</time></trkpt>
        <trkpt lat="28.2332361" lon="105.755131"><ele>1012.8</ele><time>2026-08-13T22:37:01.000Z</time></trkpt>
        <trkpt lat="28.2331409" lon="105.7550933"><ele>1011.28</ele><time>2026-08-13T22:37:09.000Z</time></trkpt>
        <trkpt lat="28.2330504" lon="105.7550714"><ele>1010.58</ele><time>2026-08-13T22:37:17.000Z</time></trkpt>
        <trkpt lat="28.2329531" lon="105.7550487"><ele>1009.73</ele><time>2026-08-13T22:37:27.000Z</time></trkpt>
        <trkpt lat="28.232865" lon="105.7550169"><ele>1009.18</ele><time>2026-08-13T22:37:33.000Z</time></trkpt>
        <trkpt lat="28.2327804" lon="105.7549682"><ele>1008.47</ele><time>2026-08-13T22:37:41.000Z</time></trkpt>
        <trkpt lat="28.2326988" lon="105.7549152"><ele>1006.9</ele><time>2026-08-13T22:37:51.000Z</time></trkpt>
        <trkpt lat="28.2326059" lon="105.7548662"><ele>1006.24</ele><time>2026-08-13T22:38:01.000Z</time></trkpt>
        <trkpt lat="28.2325126" lon="105.7548359"><ele>1004.46</ele><time>2026-08-13T22:38:09.000Z</time></trkpt>
        <trkpt lat="28.2324163" lon="105.7548082"><ele>1004.67</ele><time>2026-08-13T22:38:17.000Z</time></trkpt>
        <trkpt lat="28.2323209" lon="105.7547598"><ele>1005.65</ele><time>2026-08-13T22:38:25.000Z</time></trkpt>
        <trkpt lat="28.2322236" lon="105.7547361"><ele>1006.64</ele><time>2026-08-13T22:38:33.000Z</time></trkpt>
        <trkpt lat="28.2321375" lon="105.7546986"><ele>1007.56</ele><time>2026-08-13T22:38:41.000Z</time></trkpt>
        <trkpt lat="28.232045" lon="105.7546608"><ele>1008.07</ele><time>2026-08-13T22:38:49.000Z</time></trkpt>
        <trkpt lat="28.2319431" lon="105.7546295"><ele>1008.68</ele><time>2026-08-13T22:38:59.000Z</time></trkpt>
        <trkpt lat="28.2318382" lon="105.7546028"><ele>1009.71</ele><time>2026-08-13T22:39:17.000Z</time></trkpt>
        <trkpt lat="28.2317352" lon="105.7545933"><ele>1012.59</ele><time>2026-08-13T22:39:25.000Z</time></trkpt>
        <trkpt lat="28.2316703" lon="105.7546411"><ele>1014.84</ele><time>2026-08-13T22:39:41.000Z</time></trkpt>
        <trkpt lat="28.2315885" lon="105.7546537"><ele>1015.32</ele><time>2026-08-13T22:40:11.000Z</time></trkpt>
        <trkpt lat="28.2315418" lon="105.7545844"><ele>1014.48</ele><time>2026-08-13T22:40:19.000Z</time></trkpt>
        <trkpt lat="28.2316162" lon="105.7545433"><ele>1013.06</ele><time>2026-08-13T22:40:57.000Z</time></trkpt>
        <trkpt lat="28.2316369" lon="105.7546229"><ele>1010.71</ele><time>2026-08-13T22:41:07.000Z</time></trkpt>
        <trkpt lat="28.2316222" lon="105.7547347"><ele>1008.72</ele><time>2026-08-13T22:41:25.000Z</time></trkpt>
        <trkpt lat="28.2315796" lon="105.7548597"><ele>1008.65</ele><time>2026-08-13T22:41:33.000Z</time></trkpt>
        <trkpt lat="28.23153" lon="105.7549645"><ele>1009.56</ele><time>2026-08-13T22:41:41.000Z</time></trkpt>
        <trkpt lat="28.231489" lon="105.7550754"><ele>1010.98</ele><time>2026-08-13T22:41:49.000Z</time></trkpt>
        <trkpt lat="28.2314458" lon="105.7551723"><ele>1012.3</ele><time>2026-08-13T22:41:59.000Z</time></trkpt>
        <trkpt lat="28.2313989" lon="105.7552666"><ele>1013.23</ele><time>2026-08-13T22:42:09.000Z</time></trkpt>
        <trkpt lat="28.231356" lon="105.7553705"><ele>1013.18</ele><time>2026-08-13T22:42:19.000Z</time></trkpt>
        <trkpt lat="28.2313226" lon="105.755478"><ele>1012.85</ele><time>2026-08-13T22:42:27.000Z</time></trkpt>
        <trkpt lat="28.23129" lon="105.7555846"><ele>1011.84</ele><time>2026-08-13T22:42:35.000Z</time></trkpt>
        <trkpt lat="28.2312595" lon="105.7557011"><ele>1011.14</ele><time>2026-08-13T22:42:45.000Z</time></trkpt>
        <trkpt lat="28.2312468" lon="105.755824"><ele>1010.83</ele><time>2026-08-13T22:42:55.000Z</time></trkpt>
        <trkpt lat="28.2312269" lon="105.7559358"><ele>1010.59</ele><time>2026-08-13T22:43:03.000Z</time></trkpt>
        <trkpt lat="28.2311968" lon="105.756049"><ele>1010.72</ele><time>2026-08-13T22:43:11.000Z</time></trkpt>
        <trkpt lat="28.2311529" lon="105.7561427"><ele>1011.14</ele><time>2026-08-13T22:43:17.000Z</time></trkpt>
        <trkpt lat="28.2310904" lon="105.7562262"><ele>1011.62</ele><time>2026-08-13T22:43:27.000Z</time></trkpt>
        <trkpt lat="28.2310133" lon="105.7562896"><ele>1012.66</ele><time>2026-08-13T22:43:41.000Z</time></trkpt>
        <trkpt lat="28.2309596" lon="105.7563877"><ele>1014.56</ele><time>2026-08-13T22:43:53.000Z</time></trkpt>
        <trkpt lat="28.230883" lon="105.7564463"><ele>1015.79</ele><time>2026-08-13T22:44:41.000Z</time></trkpt>
        <trkpt lat="28.2309055" lon="105.7565187"><ele>1016.05</ele><time>2026-08-13T22:44:57.000Z</time></trkpt>
        <trkpt lat="28.2309899" lon="105.7565621"><ele>1014.78</ele><time>2026-08-13T22:45:07.000Z</time></trkpt>
        <trkpt lat="28.2310281" lon="105.7566466"><ele>1014.13</ele><time>2026-08-13T22:45:17.000Z</time></trkpt>
        <trkpt lat="28.230977" lon="105.7567041"><ele>1014.04</ele><time>2026-08-13T22:45:27.000Z</time></trkpt>
        <trkpt lat="28.2308857" lon="105.7567144"><ele>1014.43</ele><time>2026-08-13T22:45:37.000Z</time></trkpt>
        <trkpt lat="28.2308017" lon="105.7566556"><ele>1014.97</ele><time>2026-08-13T22:45:47.000Z</time></trkpt>
        <trkpt lat="28.2308017" lon="105.7566556"><ele>1014.97</ele><time>2026-08-13T22:45:52.000Z</time></trkpt>
      </trkseg>
  </trk>
</gpx>